[[{"header":{"parameterUnit":"m.s-1","parameterCategory":1,"la1":30.6,"la2":29.2853,"lo1":-89.7004,"lo2":-87.6739,"dy":0.0162,"dx":0.0183,"nx":112,"ny":82,"refTime":"2024-09-23T12:00:00:Z","depth":0,"parameterNumber":2,"parameterNumberName":"U-component_of_WINDS"},"data":[0.0,0.0,0.0,0.0,0.0,0.0,0.0,0.0,0.0,0.0,0.0,0.0,0.0,0.0,0.0,0.0,0.0,0.0,0.0,0.0,0.0,0.0,0.0,0.0,0.0,0.0,0.0,0.0,0.0,0.0,0.0,0.0,0.0,0.0,0.0,0.0,0.0,0.0,0.0,0.0,0.0,0.0,0.0,0.0,0.0,0.0,0.0,0.0,0.0,0.0,0.0,0.0,0.0,0.0,0.0,0.0,0.0,0.0,0.0,0.0,0.0,0.0,0.0,0.0,0.0,0.0,0.0,0.0,0.0,0.0,0.0,0.0,0.0,0.0,0.0,0.0,0.0,0.0,0.0,0.0,0.0,0.0,0.0,0.0,0.0,0.0,0.0,0.0,0.0,0.0,-2.1292,-2.1468,-2.1125,-2.0701,-2.0309,-2.0182,-1.9876,-1.932,0.0,0.0,0.0,0.0,0.0,0.0,0.0,0.0,0.0,0.0,0.0,0.0,0.0,0.0,0.0,0.0,0.0,0.0,0.0,0.0,0.0,0.0,0.0,0.0,0.0,0.0,0.0,0.0,0.0,0.0,0.0,0.0,0.0,0.0,0.0,0.0,0.0,0.0,0.0,0.0,0.0,0.0,0.0,0.0,0.0,0.0,0.0,0.0,0.0,0.0,0.0,0.0,0.0,0.0,0.0,0.0,0.0,0.0,0.0,0.0,0.0,0.0,0.0,0.0,0.0,0.0,0.0,0.0,0.0,0.0,0.0,0.0,0.0,0.0,0.0,0.0,0.0,0.0,0.0,0.0,0.0,0.0,0.0,0.0,0.0,0.0,0.0,0.0,0.0,0.0,0.0,0.0,0.0,0.0,0.0,0.0,0.0,0.0,0.0,0.0,0.0,0.0,0.0,0.0,-2.0426,-2.1393,-2.1058,-2.0693,-2.0646,-2.0139,-1.9825,-1.9736,0.0,0.0,0.0,0.0,0.0,0.0,0.0,0.0,0.0,0.0,0.0,0.0,0.0,0.0,0.0,0.0,0.0,0.0,0.0,0.0,0.0,0.0,0.0,0.0,0.0,0.0,0.0,0.0,0.0,0.0,0.0,0.0,0.0,0.0,0.0,0.0,0.0,0.0,0.0,0.0,0.0,0.0,0.0,0.0,0.0,0.0,0.0,0.0,0.0,0.0,0.0,0.0,0.0,0.0,0.0,0.0,0.0,0.0,0.0,0.0,0.0,0.0,0.0,0.0,0.0,0.0,0.0,0.0,0.0,0.0,0.0,0.0,0.0,0.0,0.0,0.0,0.0,0.0,0.0,0.0,0.0,0.0,0.0,0.0,0.0,0.0,0.0,0.0,0.0,0.0,0.0,0.0,0.0,0.0,0.0,0.0,0.0,0.0,0.0,0.0,0.0,0.0,0.0,-2.1204,-2.1368,-2.1882,-2.1443,-2.1046,-2.0743,-2.0137,-1.9798,-1.9798,-1.8843,0.0,0.0,0.0,0.0,0.0,0.0,0.0,0.0,0.0,0.0,0.0,0.0,0.0,0.0,0.0,0.0,0.0,0.0,0.0,0.0,0.0,0.0,0.0,0.0,0.0,0.0,0.0,0.0,0.0,0.0,0.0,0.0,0.0,0.0,0.0,0.0,0.0,0.0,0.0,0.0,0.0,0.0,0.0,0.0,0.0,0.0,0.0,0.0,0.0,0.0,0.0,0.0,0.0,0.0,0.0,0.0,0.0,0.0,0.0,0.0,0.0,0.0,0.0,0.0,0.0,0.0,0.0,0.0,0.0,0.0,0.0,0.0,0.0,0.0,0.0,0.0,0.0,0.0,0.0,0.0,0.0,0.0,0.0,0.0,0.0,0.0,0.0,0.0,0.0,0.0,0.0,0.0,0.0,0.0,0.0,0.0,0.0,0.0,0.0,0.0,0.0,0.0,-2.2439,-2.2359,-2.2498,-2.1895,-2.1317,-2.0891,-2.0213,-1.9798,-1.9759,-1.8681,0.0,0.0,0.0,0.0,0.0,0.0,0.0,0.0,0.0,0.0,0.0,0.0,0.0,0.0,0.0,0.0,0.0,0.0,0.0,0.0,0.0,0.0,0.0,0.0,0.0,0.0,0.0,0.0,0.0,0.0,0.0,0.0,0.0,0.0,0.0,0.0,0.0,0.0,0.0,0.0,0.0,0.0,0.0,0.0,0.0,0.0,0.0,0.0,0.0,0.0,0.0,0.0,0.0,0.0,0.0,0.0,0.0,0.0,0.0,0.0,0.0,0.0,0.0,0.0,0.0,0.0,0.0,0.0,0.0,0.0,0.0,0.0,0.0,0.0,0.0,0.0,0.0,0.0,0.0,0.0,0.0,0.0,0.0,0.0,0.0,0.0,0.0,0.0,0.0,0.0,0.0,0.0,0.0,0.0,0.0,0.0,0.0,0.0,0.0,0.0,0.0,0.0,-2.1963,-2.251,-2.2965,-2.2121,-2.1468,-2.143,-2.0426,-1.9759,-1.9604,-1.8282,0.0,0.0,0.0,0.0,0.0,0.0,0.0,0.0,0.0,0.0,0.0,0.0,0.0,0.0,0.0,0.0,0.0,0.0,0.0,0.0,0.0,0.0,0.0,0.0,0.0,0.0,0.0,0.0,0.0,0.0,0.0,0.0,0.0,0.0,0.0,0.0,0.0,0.0,0.0,0.0,0.0,0.0,0.0,0.0,0.0,0.0,0.0,0.0,0.0,0.0,0.0,0.0,0.0,0.0,0.0,0.0,0.0,0.0,0.0,0.0,0.0,0.0,0.0,0.0,0.0,0.0,0.0,0.0,0.0,0.0,0.0,0.0,0.0,0.0,0.0,0.0,0.0,0.0,0.0,0.0,0.0,0.0,0.0,0.0,0.0,0.0,0.0,0.0,0.0,0.0,0.0,0.0,0.0,0.0,0.0,0.0,0.0,0.0,0.0,0.0,0.0,0.0,-2.1671,-2.2228,-2.2798,-2.2167,-2.1572,-2.1237,-2.0506,-1.9924,-1.9629,0.0,0.0,0.0,0.0,0.0,0.0,0.0,0.0,0.0,0.0,0.0,0.0,0.0,0.0,0.0,0.0,0.0,0.0,0.0,0.0,0.0,0.0,0.0,0.0,0.0,0.0,0.0,0.0,0.0,0.0,0.0,0.0,0.0,0.0,0.0,0.0,0.0,0.0,0.0,0.0,0.0,0.0,0.0,0.0,0.0,0.0,0.0,0.0,0.0,0.0,0.0,0.0,0.0,0.0,0.0,0.0,0.0,0.0,0.0,0.0,0.0,0.0,0.0,0.0,0.0,0.0,0.0,0.0,0.0,0.0,0.0,0.0,0.0,0.0,0.0,0.0,0.0,0.0,0.0,0.0,0.0,0.0,0.0,0.0,0.0,0.0,0.0,0.0,0.0,0.0,0.0,0.0,0.0,0.0,0.0,0.0,0.0,0.0,0.0,0.0,0.0,0.0,-2.0878,-2.151,-2.2063,-2.2628,-2.2174,-2.1562,-2.1023,-2.0484,-1.9912,-1.9238,0.0,0.0,0.0,0.0,0.0,0.0,0.0,0.0,0.0,0.0,0.0,0.0,0.0,0.0,0.0,0.0,0.0,0.0,0.0,0.0,0.0,0.0,0.0,0.0,0.0,0.0,0.0,0.0,0.0,0.0,0.0,0.0,0.0,0.0,0.0,0.0,0.0,0.0,0.0,0.0,0.0,0.0,0.0,0.0,0.0,0.0,0.0,0.0,0.0,0.0,0.0,0.0,0.0,0.0,0.0,0.0,0.0,0.0,0.0,0.0,0.0,0.0,0.0,0.0,0.0,0.0,0.0,0.0,0.0,0.0,0.0,0.0,0.0,0.0,0.0,0.0,0.0,0.0,0.0,0.0,0.0,0.0,0.0,0.0,0.0,0.0,0.0,0.0,0.0,0.0,0.0,0.0,0.0,0.0,0.0,0.0,0.0,0.0,0.0,0.0,0.0,0.0,-2.0609,-2.1406,-2.2004,-2.2616,-2.2186,-2.1562,-2.1023,-2.0496,-1.9711,0.0,0.0,0.0,0.0,0.0,0.0,0.0,0.0,0.0,0.0,0.0,0.0,0.0,0.0,0.0,0.0,0.0,0.0,0.0,0.0,0.0,0.0,0.0,0.0,0.0,0.0,0.0,0.0,0.0,0.0,0.0,0.0,0.0,0.0,0.0,0.0,0.0,0.0,0.0,0.0,0.0,0.0,0.0,0.0,0.0,0.0,0.0,0.0,0.0,0.0,0.0,0.0,0.0,0.0,0.0,0.0,0.0,0.0,0.0,0.0,0.0,0.0,0.0,0.0,0.0,0.0,0.0,0.0,0.0,0.0,0.0,0.0,0.0,0.0,0.0,0.0,0.0,0.0,0.0,0.0,0.0,0.0,0.0,0.0,0.0,0.0,0.0,0.0,0.0,0.0,0.0,0.0,0.0,0.0,0.0,0.0,0.0,0.0,0.0,0.0,0.0,0.0,0.0,-2.0613,-2.1571,-2.2128,-2.2359,-2.2176,-2.1705,-2.0798,-2.0568,-1.9909,-1.8481,0.0,0.0,0.0,0.0,0.0,0.0,0.0,0.0,0.0,0.0,0.0,0.0,0.0,0.0,0.0,0.0,0.0,0.0,0.0,0.0,0.0,0.0,0.0,0.0,0.0,0.0,0.0,0.0,0.0,0.0,0.0,0.0,0.0,0.0,0.0,0.0,0.0,0.0,0.0,0.0,0.0,0.0,0.0,0.0,0.0,0.0,0.0,0.0,0.0,0.0,0.0,0.0,0.0,0.0,0.0,0.0,0.0,0.0,0.0,0.0,0.0,0.0,0.0,0.0,0.0,0.0,0.0,0.0,0.0,0.0,0.0,0.0,0.0,0.0,0.0,0.0,0.0,0.0,0.0,0.0,0.0,0.0,0.0,0.0,0.0,0.0,0.0,0.0,0.0,0.0,0.0,0.0,0.0,0.0,0.0,0.0,0.0,0.0,0.0,0.0,0.0,0.0,-2.0556,-2.1584,-2.2197,-2.2197,-2.2197,-2.1849,-2.1007,-2.073,-1.9925,-1.8403,0.0,0.0,0.0,0.0,0.0,0.0,0.0,0.0,0.0,0.0,0.0,0.0,0.0,0.0,0.0,0.0,0.0,0.0,0.0,0.0,0.0,0.0,0.0,0.0,0.0,0.0,0.0,0.0,0.0,0.0,0.0,0.0,0.0,0.0,0.0,0.0,0.0,0.0,0.0,0.0,0.0,0.0,0.0,0.0,0.0,0.0,0.0,0.0,0.0,0.0,0.0,0.0,0.0,0.0,0.0,0.0,0.0,0.0,0.0,0.0,0.0,0.0,0.0,0.0,0.0,0.0,0.0,0.0,0.0,0.0,0.0,0.0,0.0,0.0,0.0,0.0,0.0,0.0,0.0,0.0,0.0,0.0,0.0,0.0,0.0,0.0,0.0,0.0,0.0,0.0,0.0,0.0,0.0,0.0,0.0,0.0,0.0,0.0,0.0,0.0,0.0,0.0,-2.0499,-2.1524,-2.2197,-2.2197,-2.2197,-2.1981,-2.1452,-2.0923,-1.9937,-1.8374,0.0,0.0,0.0,0.0,0.0,0.0,0.0,0.0,0.0,0.0,0.0,0.0,0.0,0.0,0.0,0.0,0.0,0.0,0.0,0.0,0.0,0.0,0.0,0.0,0.0,0.0,0.0,0.0,0.0,0.0,0.0,0.0,0.0,0.0,0.0,0.0,0.0,0.0,0.0,0.0,0.0,0.0,0.0,0.0,0.0,0.0,0.0,0.0,0.0,0.0,0.0,0.0,0.0,0.0,0.0,0.0,0.0,0.0,0.0,0.0,-1.8025,-1.7303,0.0,0.0,0.0,0.0,0.0,0.0,0.0,0.0,0.0,0.0,0.0,0.0,0.0,0.0,0.0,0.0,0.0,0.0,0.0,0.0,0.0,0.0,0.0,0.0,0.0,0.0,0.0,0.0,0.0,0.0,0.0,0.0,0.0,0.0,0.0,0.0,0.0,0.0,0.0,0.0,-2.0526,-2.1536,-2.2197,-2.2197,-2.2197,-2.1981,-2.1452,-2.0899,-2.0069,-1.8891,-1.7944,0.0,0.0,0.0,0.0,0.0,0.0,0.0,0.0,0.0,0.0,0.0,0.0,0.0,0.0,0.0,0.0,0.0,0.0,0.0,0.0,0.0,0.0,0.0,0.0,0.0,0.0,0.0,0.0,0.0,0.0,0.0,0.0,0.0,0.0,0.0,0.0,0.0,0.0,0.0,0.0,0.0,0.0,0.0,0.0,0.0,0.0,0.0,0.0,0.0,0.0,0.0,0.0,0.0,0.0,0.0,0.0,0.0,0.0,0.0,-1.9318,-1.8698,0.0,0.0,0.0,0.0,0.0,0.0,0.0,0.0,0.0,0.0,0.0,0.0,0.0,0.0,0.0,0.0,0.0,0.0,0.0,0.0,0.0,0.0,0.0,0.0,0.0,0.0,0.0,0.0,0.0,0.0,0.0,0.0,0.0,0.0,0.0,0.0,0.0,0.0,0.0,0.0,-2.0887,-2.1921,-2.257,-2.257,-2.257,-2.2462,-2.2185,-2.1428,-2.0514,-1.9444,-1.8742,0.0,0.0,0.0,0.0,0.0,0.0,0.0,0.0,0.0,0.0,0.0,0.0,0.0,0.0,0.0,0.0,0.0,0.0,0.0,0.0,0.0,0.0,0.0,0.0,0.0,0.0,0.0,0.0,0.0,0.0,0.0,0.0,0.0,0.0,0.0,0.0,0.0,0.0,0.0,0.0,0.0,0.0,0.0,0.0,0.0,0.0,0.0,0.0,0.0,0.0,0.0,0.0,0.0,-2.1124,-2.1343,-2.1752,-2.1752,-2.1856,-2.2064,-2.0925,-2.0553,-2.0756,-2.0313,0.0,0.0,0.0,0.0,0.0,0.0,0.0,0.0,0.0,0.0,0.0,0.0,0.0,0.0,0.0,0.0,0.0,0.0,0.0,0.0,0.0,0.0,-1.8438,-1.9039,-1.946,-1.9621,-1.9206,0.0,0.0,0.0,0.0,0.0,0.0,0.0,0.0,0.0,0.0,0.0,-2.1428,-2.2462,-2.3111,-2.3111,-2.3111,-2.3087,-2.2991,-2.2101,-2.1115,-2.0129,-1.9601,-1.867,0.0,0.0,0.0,0.0,0.0,0.0,0.0,0.0,0.0,0.0,0.0,0.0,0.0,0.0,0.0,0.0,0.0,0.0,0.0,0.0,0.0,0.0,0.0,0.0,0.0,0.0,0.0,0.0,0.0,0.0,0.0,0.0,-1.7313,-1.8016,0.0,0.0,0.0,0.0,0.0,0.0,0.0,0.0,0.0,0.0,0.0,0.0,0.0,-2.1127,-2.1187,-2.1656,-2.2137,-2.2666,-2.2528,-2.2738,-2.3251,-2.3041,-2.3011,-2.2991,-2.2845,0.0,-2.1451,-2.1578,0.0,0.0,0.0,0.0,0.0,0.0,0.0,0.0,0.0,0.0,0.0,0.0,0.0,0.0,0.0,0.0,0.0,0.0,0.0,0.0,0.0,0.0,-1.964,-2.0467,-2.0853,-2.1184,-2.1531,-2.0455,-1.9229,-1.8939,-1.88,-1.8724,0.0,0.0,0.0,0.0,0.0,0.0,-2.2065,-2.3015,-2.3664,-2.3664,-2.3664,-2.3484,-2.3015,-2.2426,-2.1837,-2.1223,-2.0294,-1.9643,-1.9558,-1.8597,0.0,0.0,0.0,0.0,0.0,0.0,0.0,0.0,0.0,0.0,0.0,0.0,0.0,0.0,0.0,0.0,0.0,0.0,0.0,0.0,0.0,0.0,0.0,0.0,0.0,0.0,0.0,0.0,0.0,-1.7656,-1.8746,-1.8933,-1.9194,-1.9094,0.0,0.0,0.0,0.0,0.0,0.0,0.0,0.0,0.0,-2.144,-2.1782,-2.21,-2.2396,-2.2918,-2.3297,-2.3522,-2.3751,-2.4083,-2.459,-2.4519,-2.4612,-2.4748,-2.4748,-2.442,-2.3815,-2.2643,-2.2162,-2.2174,0.0,0.0,0.0,0.0,-2.2944,-2.2741,-2.241,-2.1743,-2.0986,-2.0671,0.0,0.0,0.0,0.0,0.0,0.0,0.0,-1.9094,-1.9652,-1.9931,-2.019,-2.0823,-2.1058,-2.1257,-2.1734,-2.1319,-2.0699,-2.0472,-2.0262,-2.0148,-1.9959,-2.0429,0.0,0.0,0.0,-2.2751,-2.3039,-2.3737,-2.4194,-2.4194,-2.4194,-2.4097,-2.3869,-2.3099,-2.2414,-2.1873,-2.1127,-2.0475,-1.9927,-1.9455,-1.867,0.0,0.0,0.0,0.0,0.0,0.0,0.0,0.0,0.0,0.0,0.0,0.0,0.0,0.0,0.0,0.0,0.0,0.0,0.0,0.0,0.0,0.0,0.0,0.0,0.0,0.0,0.0,0.0,-1.9021,-1.9825,-2.0026,-2.0237,-2.0072,0.0,0.0,0.0,0.0,0.0,0.0,-2.1849,-2.2238,-2.2568,-2.2959,-2.3164,-2.3414,-2.379,-2.4249,-2.4507,-2.4507,-2.4833,-2.5218,-2.5655,-2.5581,-2.5652,-2.5947,-2.5947,-2.587,-2.5566,-2.3956,-2.3302,-2.3302,-2.3358,-2.3452,-2.3594,-2.4143,-2.407,-2.3755,-2.3758,-2.3221,-2.2358,-2.2105,-2.1615,-2.0979,-2.0344,0.0,0.0,0.0,0.0,-2.0035,-2.0775,-2.0881,-2.099,-2.1533,-2.167,-2.1839,-2.219,-2.2209,-2.2168,-2.1774,-2.1541,-2.1408,-2.125,-2.1741,0.0,-2.2468,-2.2975,-2.352,-2.3917,-2.441,-2.4723,-2.4723,-2.4723,-2.4675,-2.453,-2.3821,-2.3087,-2.2438,-2.1897,-2.1187,-2.0237,-2.0048,-1.9412,-1.8212,0.0,0.0,0.0,0.0,0.0,0.0,0.0,0.0,0.0,0.0,0.0,0.0,0.0,0.0,0.0,0.0,0.0,0.0,0.0,0.0,0.0,0.0,0.0,0.0,0.0,0.0,0.0,0.0,0.0,-2.1132,-2.1038,0.0,0.0,0.0,0.0,-2.1413,-2.2133,-2.2626,-2.2574,-2.3332,-2.3815,-2.3839,-2.4788,-2.5389,-2.5413,-2.5918,-2.6188,-2.6188,-2.6007,-2.5965,-2.5989,-2.5758,-2.5693,-2.5716,-2.5716,-2.5716,-2.5704,-2.5808,-2.5838,-2.5838,-2.6042,-2.6247,-2.6398,-2.5827,-2.5709,-2.5859,-2.5172,-2.4316,-2.3689,-2.4089,-2.3039,-2.1318,-1.9981,-1.9465,0.0,0.0,-1.9576,-2.0194,-2.1401,-2.1866,-2.2258,-2.315,-2.353,-2.369,-2.3711,-2.3656,-2.3426,-2.2356,-2.2287,-2.2477,-2.2491,0.0,-2.2986,-2.3411,-2.3919,-2.4265,-2.4414,-2.4939,-2.5264,-2.5264,-2.5264,-2.5059,-2.4554,-2.447,-2.4013,-2.3003,-2.245,-2.1909,-2.1344,-2.0334,-1.9744,-1.966,-1.865,0.0,0.0,0.0,0.0,0.0,0.0,0.0,0.0,0.0,0.0,0.0,0.0,0.0,0.0,0.0,0.0,0.0,0.0,0.0,0.0,0.0,0.0,0.0,0.0,0.0,0.0,0.0,0.0,-2.1812,-2.1958,0.0,-2.1188,-2.1723,-2.2218,-2.2486,-2.3411,-2.4154,-2.4413,-2.4961,-2.5273,-2.5273,-2.5472,-2.5819,-2.6144,-2.6665,-2.7082,-2.7406,-2.7648,-2.7727,-2.7727,-2.7633,-2.7633,-2.7633,-2.7489,-2.7406,-2.7417,-2.7334,-2.6655,-2.5661,-2.6037,-2.612,-2.612,-2.5859,-2.5745,-2.5583,-2.4845,-2.4255,-2.3784,-2.3633,-2.3032,-2.2241,-2.1605,-2.1301,-2.1155,-2.1163,-2.1232,-2.15,-2.2288,-2.2518,-2.268,-2.3182,-2.3346,-2.351,-2.3813,-2.3836,-2.3835,-2.3726,-2.3677,-2.3731,-2.383,-2.4333,-2.473,-2.4754,-2.5372,-2.5777,-2.585,-2.6164,-2.6214,-2.5853,-2.5817,-2.56,-2.5071,-2.4723,-2.4362,-2.4001,-2.3171,-2.2462,-2.1933,-2.1211,-2.049,-1.9793,-1.9083,-1.8362,0.0,0.0,0.0,0.0,0.0,0.0,0.0,0.0,0.0,0.0,0.0,0.0,0.0,0.0,0.0,0.0,0.0,0.0,0.0,0.0,0.0,0.0,0.0,0.0,0.0,-2.1739,-2.2306,-2.2528,-2.2745,-2.2698,-2.2163,-2.2749,-2.337,-2.3746,-2.4657,-2.537,-2.5809,-2.6178,-2.647,-2.6644,-2.6714,-2.6887,-2.7219,-2.7552,-2.7897,-2.823,-2.8465,-2.8626,-2.8626,-2.8539,-2.8453,-2.8453,-2.8302,-2.8313,-2.8226,-2.8051,-2.7278,-2.6195,-2.6591,-2.6644,-2.6407,-2.6324,-2.6157,-2.5924,-2.5103,-2.4612,-2.4312,-2.3515,-2.3166,-2.2889,-2.2491,-2.2287,-2.2122,-2.2205,-2.2205,-2.2317,-2.2786,-2.2991,-2.3114,-2.3443,-2.3567,-2.3732,-2.4043,-2.4105,-2.4273,-2.467,-2.4626,-2.4589,-2.4735,-2.5256,-2.5666,-2.5761,-2.6158,-2.6534,-2.6697,-2.6848,-2.6791,-2.6418,-2.6382,-2.6154,-2.5624,-2.5252,-2.4903,-2.4542,-2.3881,-2.3268,-2.2751,-2.2041,-2.1332,-2.061,-1.9708,-1.8999,-1.8458,0.0,0.0,0.0,0.0,0.0,0.0,0.0,0.0,0.0,0.0,0.0,0.0,0.0,0.0,0.0,0.0,0.0,0.0,0.0,0.0,0.0,0.0,0.0,-2.2188,-2.2085,-2.2337,-2.3411,-2.3352,-2.3241,-2.3173,-2.4073,-2.4879,-2.5182,-2.5703,-2.6147,-2.6508,-2.7001,-2.7495,-2.7989,-2.8459,-2.8712,-2.8723,-2.8723,-2.8735,-2.8746,-2.8532,-2.8468,-2.8457,-2.8217,-2.8042,-2.8031,-2.8031,-2.802,-2.8009,-2.8009,-2.7921,-2.7734,-2.7887,-2.7876,-2.7613,-2.7414,-2.7149,-2.684,-2.5918,-2.5585,-2.5351,-2.4039,-2.3426,-2.3092,-2.2496,-2.2129,-2.2046,-2.2201,-2.2284,-2.2383,-2.3062,-2.3416,-2.3696,-2.4145,-2.442,-2.4495,-2.4495,-2.4495,-2.4667,-2.5158,-2.5059,-2.4935,-2.5139,-2.5284,-2.5673,-2.62,-2.6353,0.0,-2.6908,-2.6908,-2.6896,-2.6884,-2.6959,-2.6731,-2.6178,-2.6117,-2.5673,-2.4638,-2.4554,-2.4314,-2.3809,-2.2799,-2.2221,-2.2197,-2.0634,-1.9564,-1.9011,0.0,0.0,0.0,0.0,0.0,0.0,0.0,0.0,0.0,0.0,0.0,0.0,0.0,0.0,0.0,0.0,0.0,0.0,0.0,0.0,0.0,-2.1847,-2.191,-2.1925,-2.3089,-2.4014,-2.4155,-2.4638,-2.4952,-2.4803,-2.488,-2.5237,-2.6097,-2.6289,-2.6764,-2.7561,-2.7741,-2.7876,-2.8012,-2.8147,-2.8384,-2.8722,-2.8722,-2.8902,-2.9263,-2.9543,-2.9723,-2.9734,-3.0012,-2.9885,-2.955,-2.9468,-2.9176,-2.8741,-2.8466,-2.8283,-2.8126,-2.7688,-2.7337,-2.7171,-2.6883,-2.6604,-2.6404,-2.6088,-2.5789,-2.5488,-2.5064,-2.4715,-2.4337,-2.4118,-2.39,-2.3721,-2.381,-2.381,-2.3929,-2.4227,-2.4446,-2.4566,-2.5045,-2.5176,-2.5255,-2.5513,-2.5513,-2.5691,-2.6133,-2.6136,-2.6045,-2.5892,-2.6077,-2.6402,-2.6714,-2.6944,-2.7184,-2.7343,-2.7672,-2.7687,-2.7305,-2.7423,-2.7284,-2.6755,-2.6707,-2.6406,-2.5709,-2.53,-2.4855,-2.4338,-2.3688,-2.2967,-2.2209,-2.138,-2.049,0.0,0.0,0.0,0.0,0.0,0.0,0.0,0.0,0.0,0.0,0.0,0.0,0.0,0.0,0.0,0.0,0.0,0.0,0.0,0.0,0.0,0.0,-2.2567,-2.2742,-2.259,-2.3571,-2.4399,-2.4602,-2.5097,-2.5553,-2.5802,-2.5756,-2.6091,-2.7088,-2.7166,-2.7514,-2.8221,-2.8556,-2.8768,-2.8959,-2.9081,-2.9326,-2.9594,-2.9594,-2.974,-3.0113,-3.0309,-3.0348,-3.0359,-3.0563,-3.0444,-3.0168,-2.9998,-2.9642,-2.9368,-2.8987,-2.8796,-2.87,0.0,0.0,0.0,0.0,-2.6833,-2.6608,-2.6329,-2.6002,-2.5706,-2.532,-2.4985,-2.4802,-2.47,-2.4516,-2.4414,-2.4414,-2.4414,-2.4414,-2.4608,-2.47,-2.4894,-2.5168,-2.5351,-2.5533,-2.5704,-2.5795,-2.5976,-2.6336,-2.6525,0.0,-2.6519,-2.6757,-2.6959,-2.7281,-2.7416,-2.7522,-2.7615,-2.8018,-2.806,-2.7751,-2.7896,-2.7837,-2.7308,-2.7272,0.0,0.0,0.0,-2.5648,-2.4879,-2.4362,0.0,0.0,0.0,0.0,0.0,-2.1656,0.0,0.0,-2.0346,-2.0574,0.0,0.0,0.0,0.0,0.0,0.0,0.0,0.0,0.0,0.0,0.0,0.0,0.0,0.0,0.0,0.0,-2.2913,-2.3835,-2.3765,-2.3884,-2.4231,-2.5105,-2.5183,-2.5585,-2.6523,-2.6613,-2.7004,-2.7975,-2.8098,-2.8332,-2.8813,-2.9315,0.0,0.0,0.0,-3.0793,-3.0793,-3.0793,-3.0793,-3.0793,-3.0643,-3.0568,-3.0579,-3.0341,-3.0242,-3.0199,-2.9914,-2.9784,-2.973,-2.9423,-2.9314,-2.9229,-2.8391,-2.8052,-2.8052,-2.7725,-2.7525,-2.7272,-2.6546,0.0,0.0,-2.5255,-2.4951,-2.4858,-2.4663,-2.457,-2.457,-2.457,-2.457,-2.457,-2.457,-2.4756,-2.4951,-2.4941,-2.5319,-2.5605,-2.5696,-2.5858,-2.6121,-2.6302,-2.6584,-2.6864,-2.7065,-2.7326,-2.7464,-2.7866,-2.7727,-2.7696,-2.7976,-2.8196,-2.8253,-2.8274,-2.8435,0.0,-2.7849,-2.7813,-2.7584,-2.7055,-2.6959,-2.6502,-2.5528,-2.5047,-2.4554,-2.4037,-2.4037,-2.3773,-2.3244,-2.3713,-2.3737,-2.3304,-2.2185,-2.2209,0.0,0.0,0.0,0.0,0.0,0.0,0.0,0.0,0.0,0.0,0.0,0.0,0.0,0.0,0.0,-2.3331,-2.381,-2.4154,-2.4545,-2.4751,-2.5218,-2.6132,-2.6429,-2.6738,-2.7433,-2.7304,-2.736,-2.7951,-2.8357,-2.8877,-2.936,-2.977,-3.0077,-3.0165,-3.0263,-3.0307,-3.0307,-3.0307,-3.0307,-3.0307,-3.0493,0.0,-3.0489,-3.0584,-3.0451,-3.0088,-3.0088,-2.9874,-2.9423,-2.9225,-2.8927,-2.8796,-2.8827,-2.8655,-2.8396,-2.8022,-2.7693,-2.7447,-2.6921,-2.6471,-2.6058,-2.5873,-2.5661,-2.5488,-2.5478,-2.5488,0.0,-2.5488,-2.5488,-2.5488,-2.5488,-2.5488,-2.5575,-2.5757,-2.6044,-2.634,-2.654,-2.6814,-2.7087,-2.7275,-2.7545,-2.7825,-2.8125,-2.7931,-2.7861,-2.7948,-2.83,-2.8499,-2.8499,-2.8754,-2.8771,-2.8516,-2.8727,-2.8688,-2.8402,-2.8366,-2.8138,-2.7609,-2.7176,-2.6839,-2.6635,-2.6526,-2.6214,-2.5661,-2.5648,-2.5384,-2.4855,-2.4963,-2.518,-2.5456,-2.3989,-2.364,0.0,0.0,0.0,0.0,0.0,0.0,0.0,0.0,0.0,0.0,0.0,-1.9744,-2.1076,0.0,-2.2484,-2.3662,-2.4111,-2.442,-2.4962,-2.5349,-2.5723,-2.6149,-2.6574,-2.6975,-2.7475,-2.7554,-2.7877,-2.8351,-2.8826,-2.9192,-2.944,-2.9904,-3.0173,-3.0173,-3.041,-3.0529,-3.0529,-3.0529,-3.0529,-3.054,-3.0563,-3.067,-3.0681,-3.0721,-3.07,-3.0476,-3.0261,-3.0123,-2.9912,-2.9617,-2.9311,-2.9086,-2.9198,-2.892,-2.8397,-2.8171,-2.788,-2.7651,-2.7231,-2.6953,-2.6745,-2.6556,-2.6467,-2.6377,-2.6377,-2.623,-2.6064,-2.6064,-2.5908,-2.5742,-2.5742,-2.5742,-2.5732,-2.5917,-2.6207,-2.6496,-2.6699,-2.6986,-2.7357,-2.7441,-2.7715,-2.7998,-2.8196,-2.8353,-2.8489,-2.8332,-2.8437,-2.8626,-2.87,-2.8872,-2.9036,-2.9033,-2.9189,-2.9332,-2.9328,-2.9051,-2.8679,-2.815,-2.7621,-2.7332,-2.7332,-2.7079,-2.6803,-2.6526,-2.6514,-2.6394,-2.6117,-2.6117,-2.6262,-2.6502,-2.5721,-2.5492,0.0,0.0,0.0,0.0,0.0,0.0,0.0,-1.8332,-1.8439,-1.8903,-1.9479,-2.0192,-2.1217,-2.2101,-2.2964,-2.3742,-2.427,-2.4766,-2.5115,-2.5654,-2.6003,-2.6003,-2.643,-2.6977,-2.754,-2.7945,-2.8359,-2.8806,-2.9285,-2.9551,-2.9551,-2.9998,-3.0264,-3.0264,-3.0636,-3.0838,-3.0838,-3.0838,-3.0838,-3.0838,-3.0724,-3.0724,-3.0724,-3.062,-3.062,-3.062,-3.0401,-3.0287,-3.0183,-2.9984,-2.9774,-2.9448,-2.9448,-2.9021,-2.8279,-2.8299,-2.8056,-2.7823,-2.753,-2.7399,-2.7298,-2.7114,-2.7012,-2.7012,-2.7012,-2.6777,-2.6514,-2.6514,-2.626,-2.5986,-2.5986,-2.5986,-2.5986,-2.5986,-2.6368,-2.6758,-2.6758,-2.7135,-2.7521,-2.7521,-2.7915,-2.8125,-2.8125,-2.8625,-2.8995,-2.8869,-2.8744,-2.876,-2.8999,-2.9173,-2.9311,-2.9562,-2.9733,-2.9855,-3.0098,-2.9689,-2.9268,-2.8847,-2.8414,-2.8186,-2.8186,-2.7765,-2.7548,-2.7548,-2.7548,-2.7548,-2.7548,-2.7548,-2.7548,-2.7548,-2.7548,-2.744,-2.0194,-2.0151,-1.9651,-1.8712,-1.8319,-1.8363,0.0,-1.8964,-1.8983,-1.9203,-2.0023,-2.0854,-2.1155,-2.2432,-2.3473,-2.3867,-2.4605,-2.5099,-2.5228,-2.5976,-2.6505,-2.6505,-2.6936,-2.7594,-2.8466,-2.8593,-2.8828,-2.9296,-2.9774,-3.004,-3.004,-3.0498,-3.0753,-3.0753,-3.0806,-3.0838,-3.0838,-3.0838,-3.0838,-3.0838,-3.0609,-3.0391,-3.0391,-3.0193,-3.0099,-3.0099,-3.0099,-2.9879,-2.9659,-2.9659,-2.9448,-2.9132,-2.9132,-2.8976,-2.8645,-2.8558,-2.8304,-2.8028,-2.7528,-2.7206,-2.7012,-2.7012,-2.7012,-2.7012,-2.7012,-2.6982,-2.6943,-2.6943,-2.6914,-2.6865,-2.6865,-2.6865,-2.6865,-2.6865,-2.727,-2.7663,-2.7663,-2.8064,-2.8462,-2.8462,-2.8523,-2.8625,-2.8625,-2.8748,-2.8921,-2.9326,-2.9556,-2.9806,-3.0055,-3.0044,-3.0062,-3.0074,-3.0114,-3.0099,-3.0122,-3.0025,-2.9977,-2.9917,-2.9857,-2.9821,-2.9821,-2.9761,-2.9737,-2.9737,-2.9737,-2.9737,-2.9737,-2.9737,-2.9737,-2.9737,-2.9737,-2.9232,-2.1924,-2.1032,-1.9959,-2.009,-1.9906,-1.9809,-2.0229,-2.0232,-2.0127,-2.0332,-2.0869,-2.1432,-2.2089,-2.2804,-2.3527,-2.414,-2.4537,-2.4964,-2.5483,-2.5869,-2.6296,-2.6815,-2.7068,-2.7414,-2.8174,-2.8708,-2.9105,-2.9304,-2.9753,-3.0015,-3.0015,-3.0203,-3.0308,-3.0308,-3.058,-3.0716,-3.0716,-3.0987,-3.1123,-3.1123,-3.1006,-3.1006,-3.0995,-3.0629,-3.0137,-2.9774,-2.9564,-2.9448,-2.9343,-2.9343,-2.9132,-2.8824,-2.8824,-2.8717,-2.8495,-2.8625,-2.845,-2.8199,-2.8022,-2.7859,-2.7764,-2.7764,-2.7764,-2.7764,-2.7764,-2.7588,-2.7393,-2.7393,-2.7207,-2.7012,-2.7012,-2.7012,-2.7012,-2.7012,-2.7409,-2.7814,-2.7814,-2.8217,-2.8618,-2.8618,-2.8848,-2.9115,-2.9115,-2.9343,-2.9789,-3.0253,-2.9959,-2.9772,-3.0125,-3.0216,-3.0328,-3.0589,-3.0909,-3.0958,-3.0591,-3.0543,-3.041,-3.011,-3.0086,-3.0086,-3.0086,-3.0086,-3.0086,-3.0086,-3.0086,-3.0086,-3.0086,-3.0086,-3.0086,-3.0086,-3.0086,-3.0013,-2.2562,-2.1392,-2.0523,-2.1126,-2.1114,-2.0941,-2.1181,-2.1151,-2.1174,-2.1172,-2.1497,-2.2024,-2.275,-2.3128,-2.3533,-2.4384,-2.4615,-2.4957,-2.5722,-2.6034,-2.6426,-2.707,-2.7361,-2.7612,-2.801,-2.8705,-2.9147,-2.9271,-2.9589,-2.9774,-2.9879,-3.0003,-3.0075,-3.018,-3.0636,-3.0874,-3.0756,-3.1086,-3.1251,-3.1141,-3.1141,-3.1141,-3.1131,-3.0792,-3.0355,-2.9815,-2.948,-2.9206,-2.9206,-2.9086,-2.8824,-2.8621,-2.8621,-2.8514,-2.8291,-2.8514,-2.8514,-2.8291,-2.8291,-2.8291,-2.8291,-2.8291,-2.8291,-2.8291,-2.8291,-2.8086,-2.7842,-2.7842,-2.7607,-2.7373,-2.7373,-2.7373,-2.7373,-2.7373,-2.7776,-2.8176,-2.8176,-2.8584,-2.9001,-2.9001,-2.9289,-2.9604,-2.9604,-2.9904,-3.0394,-3.0964,-3.0348,-3.003,-3.0365,-3.041,-3.0601,-3.0984,-3.1407,-3.1504,-3.112,-3.1096,-3.0927,-3.0543,-3.0518,-3.0518,-3.0518,-3.0518,-3.0518,-3.0518,-3.0518,-3.0518,-3.0518,-3.0518,-3.0518,-3.0518,-3.0518,-3.0807,-2.1198,-2.1083,-2.1642,-2.1217,-2.1114,-2.109,-2.1181,-2.1537,-2.168,-2.1311,-2.1894,-2.2565,-2.2859,-2.3206,-2.372,-2.4345,-2.4877,-2.5319,-2.5762,-2.6567,-2.711,-2.714,-2.7915,-2.8448,-2.8448,-2.8468,-2.8659,-2.9081,-2.9122,-2.9237,-2.9554,-2.9952,-3.0304,-3.0667,-3.1112,-3.123,-3.087,-3.088,-3.0781,-3.045,-3.045,-3.045,-3.045,-3.0429,-3.0419,-3.0379,-2.9957,-2.9687,-2.9342,-2.8916,-2.8514,-2.8291,-2.8291,-2.8291,-2.8291,-2.8291,-2.8291,-2.8291,-2.8291,-2.8291,-2.8291,-2.8291,-2.8291,-2.8291,-2.8291,-2.8281,-2.8271,-2.8271,-2.8262,-2.8252,-2.8252,-2.8252,-2.8252,-2.8252,-2.8678,-2.9092,-2.9092,-2.9523,-2.9953,-2.9953,-3.0003,-3.0104,-3.0104,-3.013,-3.0394,-3.0964,-3.0942,-3.0943,-3.0949,-3.1017,-3.0984,-3.0984,-3.1407,-3.1661,-3.1637,-3.1637,-3.1637,-3.1613,-3.1613,-3.1613,-3.1613,-3.1613,-3.1613,-3.1613,-3.1613,-3.1613,-3.1613,-3.1613,-3.1613,-3.1613,-3.1613,-3.1913,-2.2734,-2.2231,-2.1766,-2.1611,-2.1569,-2.147,-2.1252,-2.1537,-2.178,-2.1683,-2.2119,-2.2598,-2.2967,-2.3379,-2.389,-2.4323,-2.4848,-2.5391,-2.6132,-2.6488,-2.6883,-2.7465,-2.7791,-2.8078,-2.8364,-2.871,-2.8971,-2.9122,-2.9132,-2.9263,-2.9672,-2.9823,-3.0143,-3.0447,-3.1004,-3.1126,-3.1004,-3.1297,-3.1448,-3.1335,-3.1335,-3.1184,-3.0892,-3.0678,-3.0416,-3.0127,-2.9747,-2.9577,-2.9557,-2.9006,-2.8819,-2.8682,-2.8398,-2.8291,-2.8291,-2.8291,-2.8291,-2.8291,-2.8291,-2.8291,-2.8291,-2.8291,-2.8291,-2.8291,-2.8291,-2.8291,-2.8291,-2.8291,-2.8291,-2.8291,-2.8291,-2.8291,-2.8291,-2.8291,-2.8708,-2.9132,-2.9132,-2.9564,-2.9994,-2.9994,-3.0286,-3.0593,-3.0593,-3.0863,-3.124,-3.1415,-3.1479,-3.1506,-3.1536,-3.1821,-3.1983,-3.1983,-3.2456,-3.2743,-3.2743,-3.2743,-3.2743,-3.2743,-3.2743,-3.2743,-3.2743,-3.2743,-3.2743,-3.2743,-3.2743,-3.2743,-3.2743,-3.2743,-3.2743,-3.2743,-3.2743,-3.2851,-2.3005,-2.2463,-2.1807,-2.1807,-2.1807,-2.1655,-2.1282,-2.1668,-2.202,-2.1909,-2.2344,-2.2822,-2.3086,-2.3369,-2.374,-2.4326,-2.4785,-2.5381,-2.626,-2.665,-2.7051,-2.7598,-2.7803,-2.7998,-2.8262,-2.8611,-2.8814,-2.8814,-2.8953,-2.9172,-2.9687,-2.9998,-3.0299,-3.0681,-3.1124,-3.1241,-3.1127,-3.1416,-3.1556,-3.145,-3.145,-3.1301,-3.1023,-3.0804,-3.0655,-3.0266,-2.9976,-2.9795,-2.9766,-2.9326,-2.9062,-2.8887,-2.8623,-2.8428,-2.8291,-2.8291,-2.8291,-2.8291,-2.8291,-2.8291,-2.8291,-2.8291,-2.8291,-2.8291,-2.8291,-2.8291,-2.8291,-2.8291,-2.8291,-2.8291,-2.8291,-2.8291,-2.8291,-2.8291,-2.8708,-2.9132,-2.9132,-2.9564,-2.9994,-2.9994,-3.0412,-3.0838,-3.0838,-3.1435,-3.1927,-3.2017,-3.2218,-3.2179,-3.1812,-3.2217,-3.2489,-3.2489,-3.2981,-3.3284,-3.3284,-3.3284,-3.3284,-3.3284,-3.3284,-3.3284,-3.3284,-3.3284,-3.3284,-3.3284,-3.3284,-3.3284,-3.3284,-3.3284,-3.3284,-3.3284,-3.3284,-3.3392,-2.2129,-2.1807,-2.1807,-2.1807,-2.1807,-2.1655,-2.1282,-2.1869,-2.2339,-2.1967,-2.2519,-2.3076,-2.3105,-2.3125,-2.3408,-2.4248,-2.4766,-2.5381,-2.626,-2.7109,-2.7637,-2.7666,-2.8037,-2.8291,-2.8291,-2.8291,-2.8301,-2.832,-2.8691,-2.9064,-2.9461,-3.0244,-3.0804,-3.1041,-3.1566,-3.1556,-3.1325,-3.1334,-3.1102,-3.0889,-3.0889,-3.0889,-3.0889,-3.0889,-3.0889,-3.0869,-3.042,-3.0234,-3.0195,-2.9775,-2.9355,-2.8984,-2.8955,-2.8701,-2.833,-2.833,-2.831,-2.8291,-2.8291,-2.8291,-2.8291,-2.8291,-2.8291,-2.8291,-2.8291,-2.8291,-2.8291,-2.8291,-2.8291,-2.8291,-2.8291,-2.8291,-2.8291,-2.8291,-2.8708,-2.9132,-2.9132,-2.9564,-2.9994,-2.9994,-3.0412,-3.0827,-3.0827,-3.1742,-3.2544,-3.2544,-3.2969,-3.2937,-3.1972,-3.2299,-3.2571,-3.2571,-3.3064,-3.3368,-3.3368,-3.3368,-3.3368,-3.3368,-3.3368,-3.3368,-3.3368,-3.3368,-3.3368,-3.3368,-3.3368,-3.3368,-3.3368,-3.3368,-3.3368,-3.3368,-3.3368,-3.3621,-2.2038,-2.1873,-2.1807,-2.1807,-2.1807,-2.1655,-2.1282,-2.1628,-2.196,-2.1899,-2.206,-2.2305,-2.2617,-2.293,-2.332,-2.3857,-2.458,-2.5381,-2.626,-2.6846,-2.7305,-2.7627,-2.8037,-2.8291,-2.8291,-2.8291,-2.8418,-2.874,-2.8857,-2.9199,-2.9956,-3.0201,-3.0476,-3.0935,-3.1063,-3.1112,-3.0995,-3.0995,-3.1005,-3.0889,-3.0889,-3.0889,-3.0889,-3.0889,-3.0889,-3.0889,-3.0762,-3.0713,-3.0674,-3.0225,-2.9971,-2.9834,-2.9521,-2.9141,-2.876,-2.876,-2.8564,-2.8291,-2.8291,-2.8291,-2.8291,-2.8291,-2.8291,-2.8291,-2.8291,-2.8291,-2.8291,-2.8291,-2.8291,-2.8291,-2.8291,-2.8291,-2.8291,-2.8291,-2.8708,-2.9132,-2.9132,-2.9564,-2.9994,-2.9994,-3.0412,-3.0931,-3.1322,-3.2037,-3.2544,-3.2544,-3.2969,-3.3189,-3.2925,-3.3382,-3.3664,-3.3664,-3.4149,-3.4438,-3.4438,-3.4438,-3.4438,-3.4438,-3.4438,-3.4438,-3.4438,-3.4438,-3.4438,-3.4438,-3.4438,-3.4438,-3.4438,-3.4438,-3.4438,-3.4438,-3.4438,-3.4499,-2.2038,-2.1959,-2.1807,-2.1807,-2.1807,-2.1655,-2.1282,-2.1537,-2.171,-2.146,-2.1703,-2.1836,-2.1771,-2.2314,-2.2939,-2.3193,-2.4268,-2.5312,-2.6006,-2.6631,-2.7178,-2.7617,-2.7881,-2.8086,-2.8271,-2.8291,-2.8545,-2.916,-2.9209,-2.9502,-3.0156,-3.0391,-3.0625,-3.0889,-3.0889,-3.0889,-3.0889,-3.0889,-3.0889,-3.0889,-3.0889,-3.0889,-3.0889,-3.0889,-3.0889,-3.0889,-3.0889,-3.0889,-3.0869,-3.0605,-3.0381,-3.0176,-2.9932,-2.958,-2.918,-2.8994,-2.8769,-2.8545,-2.8359,-2.8291,-2.8291,-2.8291,-2.8291,-2.8291,-2.8291,-2.8291,-2.8291,-2.8291,-2.8291,-2.8291,-2.8291,-2.8291,-2.8291,-2.8291,-2.8708,-2.9132,-2.9132,-2.9564,-3.0099,-3.0308,-3.062,-3.0931,-3.1527,-3.2139,-3.2544,-3.2544,-3.2969,-3.3281,-3.3281,-3.3779,-3.4075,-3.4075,-3.4543,-3.4823,-3.4823,-3.4823,-3.4823,-3.4823,-3.4823,-3.4823,-3.4823,-3.4823,-3.4823,-3.4823,-3.4823,-3.4823,-3.4823,-3.4823,-3.4823,-3.4823,-3.4823,-3.4823,-2.2101,-2.1949,-2.1807,-2.1807,-2.1807,-2.1731,-2.1359,-2.1457,-2.1509,-2.0956,-2.1253,-2.1428,-2.085,-2.1624,-2.2383,-2.249,-2.3857,-2.5078,-2.5586,-2.6338,-2.7031,-2.7519,-2.7627,-2.7832,-2.8252,-2.8291,-2.8643,-2.9502,-2.957,-2.9785,-3.0264,-3.0674,-3.0889,-3.0889,-3.0889,-3.0889,-3.0889,-3.0889,-3.0889,-3.0889,-3.0889,-3.0889,-3.0889,-3.0889,-3.0889,-3.0889,-3.0889,-3.0889,-3.0889,-3.0889,-3.0654,-3.0293,-3.0293,-3.0029,-2.9609,-2.9228,-2.9053,-2.8945,-2.8525,-2.8379,-2.8369,-2.831,-2.8291,-2.8291,-2.8291,-2.8291,-2.8291,-2.8291,-2.8291,-2.8291,-2.8291,-2.8291,-2.8291,-2.8291,-2.8708,-2.9132,-2.9132,-2.9564,-3.0203,-3.0734,-3.0838,-3.0931,-3.1527,-3.2139,-3.2544,-3.2544,-3.2969,-3.3281,-3.3281,-3.3779,-3.4075,-3.4075,-3.4543,-3.4823,-3.4823,-3.4823,-3.4823,-3.4823,-3.4823,-3.4823,-3.4823,-3.4823,-3.4823,-3.4823,-3.4823,-3.4823,-3.4823,-3.4823,-3.4823,-3.4823,-3.4823,-3.4823,-2.2327,-2.2101,-2.1807,-2.1807,-2.1807,-2.1731,-2.1502,-2.1136,-2.0797,-2.0847,-2.0289,-1.9912,-2.0546,-2.1055,-2.1689,-2.2393,-2.3359,-2.4287,-2.5078,-2.5635,-2.625,-2.7031,-2.7441,-2.7832,-2.8252,-2.8291,-2.8643,-2.9502,-2.957,-2.9922,-3.0732,-3.085,-3.0889,-3.0889,-3.0889,-3.0889,-3.0889,-3.0889,-3.0889,-3.0889,-3.0889,-3.0889,-3.0889,-3.0889,-3.0889,-3.0889,-3.0889,-3.0889,-3.0889,-3.0889,-3.084,-3.0771,-3.0771,-3.0488,-3.0078,-3.0,-2.9756,-2.9394,-2.8965,-2.8809,-2.875,-2.8408,-2.8291,-2.8291,-2.8291,-2.8291,-2.8291,-2.8291,-2.8291,-2.8291,-2.8291,-2.8291,-2.8291,-2.8291,-2.8708,-2.9132,-2.9132,-2.9564,-3.0203,-3.0734,-3.0838,-3.0931,-3.1527,-3.2139,-3.2544,-3.2544,-3.2969,-3.3281,-3.3281,-3.3779,-3.4075,-3.4075,-3.4543,-3.4823,-3.4823,-3.4823,-3.4823,-3.4823,-3.4823,-3.4823,-3.4823,-3.4823,-3.4823,-3.4823,-3.4823,-3.4823,-3.4823,-3.4823,-3.4823,-3.4823,-3.4823,-3.4823,-2.2402,-2.2111,-2.1807,-2.1807,-2.1807,-2.1731,-2.1436,-2.0949,-2.0561,-2.0307,-1.9738,-1.935,-1.9383,-2.0213,-2.1025,-2.1435,-2.2607,-2.376,-2.4609,-2.5107,-2.5713,-2.6582,-2.707,-2.75,-2.793,-2.8164,-2.8643,-2.9502,-2.957,-2.9951,-3.084,-3.0889,-3.0889,-3.0889,-3.0889,-3.0889,-3.0889,-3.0889,-3.0889,-3.0889,-3.0889,-3.0889,-3.0889,-3.0889,-3.0889,-3.0889,-3.0889,-3.0889,-3.0889,-3.0889,-3.0889,-3.0889,-3.0889,-3.0752,-3.0527,-3.0283,-3.0068,-2.9834,-2.9404,-2.9111,-2.8887,-2.8682,-2.8467,-2.8291,-2.8291,-2.8291,-2.8291,-2.8291,-2.8291,-2.8291,-2.8291,-2.8291,-2.8291,-2.8291,-2.8708,-2.9237,-2.9459,-2.9774,-3.0203,-3.0734,-3.0838,-3.0931,-3.1527,-3.2139,-3.2544,-3.2544,-3.2969,-3.3281,-3.3281,-3.3779,-3.4075,-3.4075,-3.4543,-3.4823,-3.4823,-3.4823,-3.4823,-3.4823,-3.4823,-3.4823,-3.4823,-3.4823,-3.4823,-3.4823,-3.4823,-3.4823,-3.4823,-3.4823,-3.4823,-3.4823,-3.4823,-3.4823,-2.2434,-2.2101,-2.1873,-2.1807,-2.1807,-2.1655,-2.1359,-2.0793,-2.0236,-1.9677,-1.9295,-1.8909,-1.8449,-1.9462,-2.0381,-2.0664,-2.2012,-2.332,-2.417,-2.4736,-2.5361,-2.6152,-2.6699,-2.7187,-2.7627,-2.8047,-2.8643,-2.9502,-2.9746,-3.0156,-3.0859,-3.0889,-3.0889,-3.0889,-3.0889,-3.0889,-3.0889,-3.0889,-3.0889,-3.0889,-3.0889,-3.0889,-3.0889,-3.0889,-3.0889,-3.0889,-3.0889,-3.0889,-3.0889,-3.0889,-3.0889,-3.0889,-3.0889,-3.0889,-3.085,-3.0478,-3.0342,-3.0283,-2.9853,-2.9482,-2.918,-2.9092,-2.8711,-2.8291,-2.8291,-2.8291,-2.8291,-2.8291,-2.8291,-2.8291,-2.8291,-2.8291,-2.8291,-2.8398,-2.8814,-2.9237,-2.9889,-2.9994,-3.0203,-3.0734,-3.0838,-3.0931,-3.1527,-3.2139,-3.2544,-3.2544,-3.2969,-3.3281,-3.3281,-3.3779,-3.4075,-3.4075,-3.4543,-3.4823,-3.4823,-3.4823,-3.4823,-3.4823,-3.4823,-3.4823,-3.4823,-3.4823,-3.4823,-3.4823,-3.4823,-3.4823,-3.4823,-3.4823,-3.4883,-3.4992,-3.4992,-3.5052,-2.2519,-2.2252,-2.2035,-2.1883,-2.1655,-2.1512,-2.1502,-2.0541,-1.969,-1.9578,-1.8813,-1.8223,-1.8525,-1.9033,-1.9795,-2.0977,-2.1963,-2.2871,-2.3721,-2.4551,-2.5244,-2.5742,-2.6514,-2.7187,-2.7627,-2.8047,-2.8643,-2.9502,-3.0312,-3.081,-3.0889,-3.0889,-3.0889,-3.0889,-3.0889,-3.0889,-3.0889,-3.0889,-3.0889,-3.0889,-3.0889,-3.0889,-3.0889,-3.0889,-3.0889,-3.0889,-3.0889,-3.0889,-3.0889,-3.0889,-3.0889,-3.0889,-3.0889,-3.0889,-3.0889,-3.084,-3.083,-3.0762,-3.0303,-3.0107,-3.0019,-2.9639,-2.8965,-2.8291,-2.8291,-2.8291,-2.8291,-2.8291,-2.8291,-2.8291,-2.8291,-2.8291,-2.8398,-2.892,-2.9026,-2.9237,-2.9889,-2.9994,-3.0203,-3.0734,-3.0838,-3.0931,-3.1527,-3.2139,-3.2544,-3.2544,-3.2969,-3.3281,-3.3281,-3.3779,-3.4075,-3.4075,-3.4543,-3.4823,-3.4823,-3.4823,-3.4823,-3.4823,-3.4823,-3.4823,-3.4823,-3.4823,-3.4823,-3.4823,-3.4823,-3.4823,-3.4823,-3.4823,-3.5076,-3.5545,-3.5545,-3.5797,-2.2531,-2.2176,-2.1883,-2.1655,-2.1706,-2.1751,-2.1265,-2.0562,-1.9875,-1.9482,-1.8674,-1.8057,-1.8223,-1.8603,-1.9316,-2.0625,-2.1348,-2.2227,-2.3594,-2.4307,-2.4834,-2.5283,-2.6328,-2.708,-2.7256,-2.7891,-2.8643,-2.9502,-3.0391,-3.0889,-3.0889,-3.0889,-3.0889,-3.0889,-3.0889,-3.0889,-3.0889,-3.0889,-3.0889,-3.0889,-3.0889,-3.0889,-3.0889,-3.0889,-3.0889,-3.0889,-3.0889,-3.0889,-3.0889,-3.0889,-3.0889,-3.0889,-3.0889,-3.0889,-3.0889,-3.0889,-3.0889,-3.0859,-3.0674,-3.043,-3.0166,-3.0,-2.9541,-2.9014,-2.875,-2.8496,-2.8291,-2.8291,-2.8291,-2.8291,-2.8291,-2.8291,-2.8398,-2.8717,-2.9036,-2.9237,-2.9669,-2.9889,-3.0203,-3.0734,-3.0838,-3.0931,-3.1527,-3.2139,-3.2544,-3.2544,-3.2969,-3.3281,-3.3281,-3.3779,-3.4075,-3.4075,-3.4543,-3.4823,-3.4823,-3.4823,-3.4823,-3.4823,-3.4823,-3.4823,-3.4823,-3.4823,-3.4823,-3.4823,-3.5148,-3.5304,-3.5304,-3.5629,-3.5881,-3.6086,-3.6086,-3.6206,-2.2573,-2.2206,-2.1883,-2.1578,-2.1761,-2.1777,-2.0904,-2.0365,-1.9944,-1.9448,-1.8701,-1.8193,-1.8193,-1.8545,-1.917,-2.0205,-2.0967,-2.1934,-2.3398,-2.4189,-2.4727,-2.5029,-2.6221,-2.7012,-2.7012,-2.8018,-2.8916,-2.9521,-3.0391,-3.0889,-3.0889,-3.0889,-3.0889,-3.0889,-3.0889,-3.0889,-3.0889,-3.0889,-3.0889,-3.0889,-3.0889,-3.0889,-3.0889,-3.0889,-3.0889,-3.0889,-3.0889,-3.0889,-3.0889,-3.0889,-3.0889,-3.0889,-3.0889,-3.0889,-3.0889,-3.0889,-3.0889,-3.0889,-3.0889,-3.0674,-3.04,-3.04,-3.0107,-2.9697,-2.9394,-2.8916,-2.8447,-2.833,-2.8291,-2.8291,-2.8291,-2.8291,-2.8408,-2.8621,-2.893,-2.9237,-2.9554,-2.9774,-3.0203,-3.0734,-3.0838,-3.0931,-3.1527,-3.2139,-3.2544,-3.2544,-3.2969,-3.3281,-3.3281,-3.3679,-3.3977,-3.4075,-3.4445,-3.4726,-3.4823,-3.4823,-3.4823,-3.4823,-3.4823,-3.4823,-3.4823,-3.4823,-3.4895,-3.5052,-3.5425,-3.5701,-3.5857,-3.623,-3.6483,-3.6639,-3.6639,-3.6723,-2.2569,-2.237,-2.2252,-2.1655,-2.1683,-2.1539,-2.0486,-2.0062,-1.9795,-1.9375,-1.8936,-1.8562,-1.8562,-1.8984,-1.9424,-1.9853,-2.1025,-2.2178,-2.3047,-2.4258,-2.5059,-2.5068,-2.6221,-2.7012,-2.7012,-2.8555,-2.956,-2.957,-3.0391,-3.0889,-3.0889,-3.0889,-3.0889,-3.0889,-3.0889,-3.0889,-3.0889,-3.0889,-3.0889,-3.0889,-3.0889,-3.0889,-3.0889,-3.0889,-3.0889,-3.0889,-3.0889,-3.0889,-3.0889,-3.0889,-3.0889,-3.0889,-3.0889,-3.0889,-3.0889,-3.0889,-3.0889,-3.0889,-3.0889,-3.0889,-3.0889,-3.0889,-3.0566,-3.0185,-3.0185,-2.959,-2.8828,-2.8408,-2.8291,-2.8291,-2.8291,-2.8291,-2.8408,-2.8621,-2.893,-2.9237,-2.9554,-2.9774,-3.0203,-3.0734,-3.0838,-3.0931,-3.1527,-3.2139,-3.2544,-3.2544,-3.2969,-3.3281,-3.3281,-3.358,-3.3779,-3.4075,-3.4249,-3.4531,-3.4738,-3.4823,-3.4823,-3.4823,-3.4823,-3.4823,-3.4823,-3.4823,-3.5076,-3.5605,-3.5617,-3.5869,-3.6398,-3.6411,-3.6675,-3.718,-3.718,-3.7469,-2.2402,-2.1935,-2.1501,-2.1,-2.1069,-2.0876,-1.9836,-1.9781,-1.9795,-1.9375,-1.8936,-1.873,-1.9023,-1.9189,-1.9814,-2.1426,-2.2041,-2.2822,-2.4268,-2.5078,-2.5527,-2.5527,-2.667,-2.7685,-2.8262,-2.9082,-2.9687,-2.9971,-3.0547,-3.0889,-3.0889,-3.0889,-3.0889,-3.0889,-3.0889,-3.0889,-3.0889,-3.0889,-3.0889,-3.0889,-3.0889,-3.0889,-3.0889,-3.0889,-3.0889,-3.0889,-3.0889,-3.0889,-3.0889,-3.0889,-3.0889,-3.0889,-3.0889,-3.0889,-3.0889,-3.0889,-3.0889,-3.0889,-3.0889,-3.0889,-3.0889,-3.0889,-3.0791,-3.0615,-3.0293,-2.96,-2.8838,-2.8408,-2.8291,-2.8291,-2.8291,-2.8291,-2.8291,-2.8408,-2.8814,-2.9132,-2.9237,-2.9669,-3.0203,-3.0734,-3.0838,-3.0931,-3.1527,-3.2139,-3.2544,-3.2544,-3.2969,-3.3281,-3.3281,-3.358,-3.3779,-3.4075,-3.4249,-3.4531,-3.4738,-3.4823,-3.4823,-3.4823,-3.4823,-3.4992,-3.5352,-3.5364,-3.5617,-3.6146,-3.6507,-3.6771,-3.694,-3.73,-3.7565,-3.7733,-3.7733,-3.7829,-2.16,-2.1618,-2.1502,-2.1105,-2.1042,-2.0777,-1.9673,-1.9584,-1.9561,-1.9131,-1.8955,-1.8965,-1.9238,-1.9551,-2.0156,-2.1338,-2.208,-2.2939,-2.417,-2.5146,-2.5918,-2.6406,-2.7314,-2.8174,-2.8848,-2.9453,-2.9912,-3.0176,-3.0625,-3.0889,-3.0889,-3.0889,-3.0889,-3.0889,-3.0889,-3.0889,-3.0889,-3.0889,-3.0889,-3.0889,-3.0889,-3.0889,-3.0889,-3.0889,-3.0889,-3.0889,-3.0889,-3.0889,0.0,-3.0889,-3.0889,-3.0889,-3.0889,-3.0889,-3.0889,-3.0889,-3.0889,-3.0889,-3.0889,-3.0889,-3.0889,-3.0889,-3.0889,-3.0801,-3.0332,-2.96,-2.8867,-2.8603,-2.8418,-2.8291,-2.8291,-2.8291,-2.8291,-2.8291,-2.8708,-2.9132,-2.9132,-2.9564,-3.0099,-3.0505,-3.0724,-3.0931,-3.1322,-3.2037,-3.2544,-3.2544,-3.2969,-3.3281,-3.3281,-3.3481,-3.3679,-3.4075,-3.4261,-3.4445,-3.4726,-3.4823,-3.4823,-3.4823,-3.5016,-3.5268,-3.5605,-3.5809,-3.6158,-3.6687,-3.7024,-3.7288,-3.7493,-3.7829,-3.7986,-3.7986,-3.7986,-3.7986,0.0,-2.1294,-2.2082,-2.1672,-2.1332,-2.0907,-1.9813,-1.9414,0.0,-1.8721,-1.8984,-1.9316,-1.9404,-2.0049,-2.0498,-2.0264,-2.1562,-2.2783,-2.3291,-2.4844,-2.6367,-2.7568,-2.8115,-2.8555,-2.8965,-2.9726,-3.0205,-3.0244,-3.0644,-3.0889,-3.0889,-3.0889,-3.0889,-3.0889,-3.0889,-3.0889,-3.0889,-3.0889,-3.0889,-3.0889,-3.0889,-3.0889,-3.0889,-3.0889,-3.0889,-3.0889,-3.0889,-3.0889,-3.0889,-3.0889,-3.0889,-3.0889,-3.0889,-3.0889,-3.0889,-3.0889,-3.0889,-3.0889,-3.0889,-3.0889,-3.0889,-3.0889,-3.0889,-3.081,-3.0371,-2.9648,-2.8955,-2.8926,-2.8613,-2.8291,-2.8291,-2.8291,-2.8291,-2.8291,-2.8708,-2.9132,-2.9132,-2.9564,-3.0099,-3.0391,-3.0609,-3.0931,-3.1127,-3.1936,-3.2443,-3.2544,-3.2969,-3.3281,-3.3281,-3.3281,-3.3481,-3.4075,-3.4075,-3.4261,-3.4726,-3.4823,-3.4847,-3.4883,-3.534,-3.5653,-3.5725,-3.6194,-3.6711,-3.724,-3.7252,-3.7493,-3.7986,-3.7986,-3.7986,-3.7986,-3.7986,-3.7986,-1.8665,0.0,-2.0806,-2.0074,-1.9988,-1.9764,0.0,-1.8626,-1.876,-1.8592,-1.8984,-1.959,-2.0596,-2.0664,-2.1182,-2.3057,-2.3437,-2.3984,-2.542,-2.6816,-2.7803,-2.8105,-2.8809,-2.9434,-2.9853,-3.0078,-3.0342,-3.0703,-3.083,-3.0889,-3.0889,-3.0889,-3.0889,-3.0889,-3.0889,-3.0889,-3.0889,-3.0889,-3.0889,-3.0889,-3.0889,-3.0889,-3.0889,-3.0889,-3.0889,-3.0889,-3.0889,-3.0889,-3.0889,-3.0889,-3.0889,-3.0889,-3.0889,-3.0889,-3.0889,-3.0889,-3.0889,-3.0889,-3.0889,-3.0889,-3.0889,-3.0889,-3.0889,-3.0869,-3.0762,-3.0117,-2.9346,-2.9014,-2.8613,-2.8291,-2.8291,-2.8291,-2.8291,-2.8291,-2.8708,-2.9132,-2.9132,-2.9564,-3.0099,-3.0391,-3.0609,-3.0931,-3.1127,-3.1732,-3.2229,-3.2443,-3.2768,-3.3081,-3.3281,-3.3281,-3.3481,-3.4075,-3.4075,-3.4261,-3.4726,-3.4823,-3.5004,-3.54,-3.5545,-3.5978,-3.6795,-3.694,-3.7252,-3.7781,-3.7793,-3.7853,-3.7986,-3.7986,-3.7986,-3.7986,-3.7986,-3.7986,-1.8047,-1.9538,-2.0886,-2.0096,-1.9984,-1.9836,-1.9183,-1.8666,-1.835,-1.835,-1.8848,-1.9561,-2.0459,-2.0762,-2.1465,-2.3252,-2.3682,-2.4541,-2.667,-2.7734,-2.8437,-2.8828,-2.9453,-2.9941,-3.0176,-3.0391,-3.0625,-3.0869,-3.0889,-3.0889,-3.0889,-3.0889,-3.0889,-3.0889,-3.0889,-3.0889,-3.0889,-3.0889,-3.0889,-3.0889,-3.0889,-3.0889,-3.0889,-3.0889,-3.0889,-3.0889,-3.0889,-3.0889,-3.0889,-3.0889,-3.0889,-3.0889,-3.0889,-3.0889,-3.0889,-3.0889,-3.0889,-3.0889,-3.0889,-3.0889,-3.0889,-3.0889,-3.0889,-3.0889,-3.0889,-3.0273,-2.9521,-2.9287,-2.8769,-2.8291,-2.8291,-2.8291,-2.8291,-2.8291,-2.8708,-2.9132,-2.9132,-2.9564,-2.9994,-3.0193,-3.0505,-3.0838,-3.1034,-3.1527,-3.2128,-3.2443,-3.2768,-3.2992,-3.3292,-3.3281,-3.3481,-3.4075,-3.4075,-3.4355,-3.5074,-3.5196,-3.5304,-3.5605,-3.6074,-3.6591,-3.7168,-3.7433,-3.7685,-3.7974,-3.7986,-3.7986,-3.7986,-3.7986,-3.7986,-3.7986,-3.7986,-3.7986,-1.798,-1.9688,-2.1086,-2.04,-2.0249,-2.0237,-2.0104,-1.9024,-1.8125,-1.8193,-1.8887,-1.9629,-2.0127,-2.0937,-2.1826,-2.2754,-2.3682,-2.5098,-2.7432,-2.8184,-2.8779,-2.957,-3.0049,-3.0303,-3.0303,-3.0664,-3.0889,-3.0889,-3.0889,-3.0889,-3.0889,-3.0889,-3.0889,-3.0889,-3.0889,-3.0889,-3.0889,-3.0889,-3.0889,-3.0889,-3.0889,-3.0889,-3.0889,-3.0889,-3.0889,-3.0889,-3.0889,-3.0889,-3.0889,-3.0889,-3.0889,-3.0889,-3.0889,-3.0889,-3.0889,-3.0889,-3.0889,-3.0889,-3.0889,-3.0889,-3.0889,-3.0889,-3.0889,-3.0889,-3.0889,-3.0273,-2.957,-2.957,-2.8955,-2.8291,-2.8291,-2.8291,-2.8291,-2.8291,-2.8708,-2.9132,-2.9132,-2.9564,-2.9994,-2.9994,-3.0464,-3.0934,-3.0934,-3.1587,-3.2247,-3.2667,-3.2825,-3.3094,-3.3396,-3.3327,-3.3515,-3.4181,-3.4181,-3.4592,-3.5589,-3.5809,-3.5857,-3.5857,-3.6699,-3.7228,-3.7312,-3.7745,-3.7986,-3.7986,-3.7986,-3.7986,-3.7986,-3.7986,-3.7986,-3.7986,-3.7986,-3.7986,-1.8048,-1.901,-1.9505,-1.8363,-1.922,-2.0012,-1.9092,-1.8703,-1.8643,-1.9014,-1.9775,-2.0615,-2.1435,-2.2285,-2.3262,-2.4473,-2.5713,-2.6914,-2.8037,-2.8877,-2.956,-3.0039,-3.0508,-3.0781,-3.0781,-3.085,-3.0889,-3.0889,-3.0889,-3.0889,-3.0889,-3.0889,-3.0889,-3.0889,-3.0889,-3.0889,-3.0889,-3.0889,-3.0889,-3.0889,-3.0889,-3.0889,-3.0889,-3.0889,-3.0889,-3.0889,-3.0889,-3.0889,-3.0889,-3.0889,-3.0889,-3.0889,-3.0889,-3.0889,-3.0889,-3.0889,-3.0889,-3.0889,-3.0889,-3.0889,-3.0889,-3.0889,-3.0889,-3.0889,-3.0889,-3.0273,-2.957,-2.957,-2.8955,-2.8291,-2.8291,-2.8291,-2.8291,-2.8291,-2.8708,-2.9132,-2.9132,-2.9564,-2.9994,-2.9994,-3.0716,-3.1391,-3.1391,-3.2252,-3.3054,-3.3604,-3.335,-3.3287,-3.3788,-3.3534,-3.3642,-3.4551,-3.4698,-3.5112,-3.6242,-3.6699,-3.6952,-3.6952,-3.7108,-3.7385,-3.7841,-3.7938,-3.7986,-3.7986,-3.7986,-3.7986,-3.7986,-3.7986,-3.7986,-3.7986,-3.7986,-3.7986,-1.7459,-1.8268,-1.8844,-1.8015,-1.9114,-2.0352,-1.9791,-1.9326,-1.9111,-1.9531,-2.0127,-2.0898,-2.2021,-2.2734,-2.3652,-2.5185,-2.6514,-2.7578,-2.8203,-2.9033,-2.9726,-3.0146,-3.0605,-3.0889,-3.0889,-3.0889,-3.0889,-3.0889,-3.0889,-3.0889,-3.0889,-3.0889,-3.0889,-3.0889,-3.0889,-3.0889,-3.0889,-3.0889,-3.0889,-3.0889,-3.0889,-3.0889,-3.0889,-3.0889,-3.0889,-3.0889,-3.0889,-3.0889,-3.0889,-3.0889,-3.0889,-3.0889,-3.0889,-3.0889,-3.0889,-3.0889,-3.0889,-3.0889,-3.0889,-3.0889,-3.0889,-3.0889,-3.0889,-3.0889,-3.0889,-3.0273,-2.957,-2.957,-2.8955,-2.8291,-2.8291,-2.8291,-2.8291,-2.8291,-2.8708,-2.9132,-2.9132,-2.9564,-3.0067,-3.0325,-3.0947,-3.1583,-3.1838,-3.2598,-3.3285,-3.3827,-3.3742,-3.3806,-3.4337,-3.4245,-3.4381,-3.5204,-3.5227,-3.5644,-3.6783,-3.7048,-3.7312,-3.7601,-3.7613,-3.7733,-3.7974,-3.7986,-3.7986,-3.7986,-3.7986,-3.7986,-3.7986,-3.7986,-3.7986,-3.7986,-3.7986,-3.7986,-1.7093,-1.7795,-1.8359,-1.8437,-1.9443,-2.041,-2.041,-1.9902,-1.959,-2.0117,-2.0732,-2.1475,-2.248,-2.3262,-2.4287,-2.5918,-2.7021,-2.7851,-2.8369,-2.9004,-2.9609,-3.0137,-3.0508,-3.0771,-3.0879,-3.0889,-3.0889,-3.0889,-3.0889,-3.0889,-3.0889,-3.0889,-3.0889,-3.0889,-3.0889,-3.0889,-3.0889,-3.0889,-3.0889,-3.0889,-3.0889,-3.0889,-3.0889,-3.0889,-3.0889,-3.0889,-3.0889,-3.0889,-3.0889,-3.0889,-3.0889,-3.0889,-3.0889,-3.0889,-3.0889,-3.0889,-3.0889,-3.0889,-3.0889,-3.0889,-3.0889,-3.0889,-3.0889,-3.0869,-3.0762,-3.0185,-2.9551,-2.9443,-2.8877,-2.8291,-2.8291,-2.8291,-2.8291,-2.8291,-2.8708,-2.9132,-2.9132,-2.9564,-3.0129,-3.0594,-3.1178,-3.1817,-3.2295,-3.3009,-3.3625,-3.4173,-3.4179,-3.4324,-3.4863,-3.4877,-3.504,-3.5768,-3.5768,-3.6188,-3.7336,-3.7372,-3.7553,-3.795,-3.7986,-3.7986,-3.7986,-3.7986,-3.7986,-3.7986,-3.7986,-3.7986,-3.7986,-3.7986,-3.7986,-3.7986,-3.7986,-3.7986,-1.7609,-1.7742,-1.7842,-1.9394,-1.9873,-1.9961,-1.9961,-1.9912,-2.0107,-2.0967,-2.2119,-2.2998,-2.3076,-2.4434,-2.5986,-2.7314,-2.7607,-2.7949,-2.876,-2.8926,-2.9277,-3.0098,-3.0225,-3.042,-3.085,-3.0889,-3.0889,-3.0889,-3.0889,-3.0889,-3.0889,-3.0889,-3.0889,-3.0889,-3.0889,-3.0889,-3.0889,-3.0889,-3.0889,-3.0889,-3.0889,-3.0889,-3.0889,-3.0889,-3.0889,-3.0889,-3.0889,-3.0889,-3.0889,-3.0889,-3.0889,-3.0889,-3.0889,-3.0889,-3.0889,-3.0889,-3.0889,-3.0889,-3.0889,-3.0889,-3.0889,-3.0889,-3.0889,-3.081,-3.0371,-2.9932,-2.9482,-2.9082,-2.8643,-2.8291,-2.8291,-2.8291,-2.8291,-2.8291,-2.8708,-2.9132,-2.9132,-2.9564,-3.0129,-3.0594,-3.1569,-3.2327,-3.2785,-3.3677,-3.4648,-3.5201,-3.4907,-3.4809,-3.5356,-3.5072,-3.519,-3.618,-3.6332,-3.6743,-3.7878,-3.7926,-3.7938,-3.7986,-3.7986,-3.7986,-3.7986,-3.7986,-3.7986,-3.7986,-3.7986,-3.7986,-3.7986,-3.7986,-3.7986,-3.7986,-3.7986,-3.7986,-1.6355,-1.7023,-1.7861,-1.9083,-1.962,-2.0014,-2.0245,-2.0742,-2.1465,-2.2588,-2.2998,-2.3389,-2.4189,-2.5332,-2.6387,-2.7139,-2.749,-2.7861,-2.8447,-2.875,-2.9141,-2.9736,-3.0039,-3.0381,-3.084,-3.0889,-3.0889,-3.0889,-3.0889,-3.0889,-3.0889,-3.0889,-3.0889,-3.0889,-3.0889,-3.0889,-3.0889,-3.0889,-3.0889,-3.0889,-3.0889,-3.0889,-3.0889,-3.0889,-3.0889,-3.0889,-3.0889,-3.0889,-3.0889,-3.0889,-3.0889,-3.0889,-3.0889,-3.0889,-3.0889,-3.0889,-3.0889,-3.0889,-3.0889,-3.0889,-3.0889,-3.0889,-3.0693,-3.043,-3.0244,-2.9717,-2.9131,-2.8965,-2.8613,-2.8291,-2.8291,-2.8291,-2.8291,-2.8291,-2.8708,-2.9132,-2.9132,-2.9564,-3.0222,-3.0967,-3.179,-3.2476,-3.3231,-3.3957,-3.4747,-3.5312,-3.5255,-3.5339,-3.5882,-3.583,-3.5998,-3.6731,-3.7169,-3.757,-3.7962,-3.7986,-3.7986,-3.7986,-3.7986,-3.7986,-3.7986,-3.7986,-3.7986,-3.7986,-3.7986,-3.7986,-3.7986,-3.7986,-3.788,-3.7797,-3.7797,-3.7679,-1.5723,-1.6664,-1.777,-1.862,-1.9478,-2.022,-2.0536,-2.1293,-2.2288,-2.3379,-2.3672,-2.4062,-2.5088,-2.5771,-2.6367,-2.6924,-2.7266,-2.7656,-2.8213,-2.8535,-2.8887,-2.9316,-2.9736,-3.0176,-3.0635,-3.0801,-3.0889,-3.0889,-3.0889,-3.0889,-3.0889,-3.0889,-3.0889,-3.0889,-3.0889,-3.0889,-3.0889,-3.0889,-3.0889,-3.0889,-3.0889,-3.0889,-3.0889,-3.0889,-3.0889,-3.0889,-3.0889,-3.0889,-3.0889,-3.0889,-3.0889,-3.0889,-3.0889,-3.0889,-3.0889,-3.0889,-3.0889,-3.0889,-3.0889,-3.0889,-3.0869,-3.0723,-3.0459,-3.0146,-2.9873,-2.9385,-2.8887,-2.876,-2.8516,-2.8291,-2.8291,-2.8291,-2.8291,-2.8291,-2.8708,-2.9132,-2.9132,-2.9564,-3.0222,-3.1008,-3.1822,-3.2487,-3.3263,-3.3968,-3.4747,-3.5312,-3.5423,-3.5632,-3.6266,-3.6266,-3.6495,-3.7024,-3.7667,-3.7986,-3.7986,-3.7986,-3.7986,-3.7986,-3.7986,-3.7986,-3.7986,-3.7986,-3.7986,-3.7986,-3.7986,-3.7986,-3.7892,-3.7892,-3.7679,-3.7477,-3.7477,-3.737,-1.6078,-1.6798,-1.7477,-1.7981,-1.9345,-2.0585,-2.0585,-2.1406,-2.2399,-2.2989,-2.418,-2.5215,-2.5654,-2.5742,-2.6025,-2.6875,-2.7021,-2.7314,-2.8174,-2.8291,-2.8447,-2.8867,-2.9297,-2.9726,-3.0156,-3.0615,-3.0889,-3.0889,-3.0889,-3.0889,-3.0889,-3.0889,-3.0889,-3.0889,-3.0889,-3.0889,-3.0889,-3.0889,-3.0889,-3.0889,-3.0889,-3.0889,-3.0889,-3.0889,-3.0889,-3.0889,-3.0889,-3.0889,-3.0889,-3.0889,-3.0889,-3.0889,-3.0889,-3.0889,-3.0889,-3.0889,-3.0889,-3.0889,-3.0889,-3.0889,-3.081,-3.0342,-3.0185,-3.0029,-2.917,-2.8916,-2.8828,-2.8408,-2.8291,-2.8291,-2.8291,-2.8291,-2.8291,-2.8291,-2.8708,-2.9132,-2.9132,-2.9564,-3.0129,-3.0594,-3.159,-3.238,-3.2838,-3.3752,-3.4747,-3.5312,-3.5423,-3.5632,-3.6266,-3.6266,-3.6483,-3.7024,-3.7667,-3.7986,-3.7986,-3.7986,-3.7986,-3.7986,-3.7986,-3.7986,-3.7986,-3.7986,-3.7986,-3.7986,-3.7986,-3.7892,-3.7596,-3.7596,-3.737,-3.7131,-3.7131,-3.7131,-1.5501,-1.6271,-1.7353,-1.8206,-1.9468,-2.0671,-2.1306,-2.2274,-2.3345,-2.4346,-2.5293,-2.5947,-2.5771,-2.5986,-2.6377,-2.6924,-2.7275,-2.7666,-2.8213,-2.8291,-2.8447,-2.8867,-2.9033,-2.9287,-2.9707,-3.0146,-3.04,-3.04,-3.0703,-3.0889,-3.0889,-3.0889,-3.0889,-3.0889,-3.0889,-3.0889,-3.0889,-3.0889,-3.0889,-3.0889,-3.0889,-3.0889,-3.0889,-3.0889,-3.0889,-3.0889,-3.0889,-3.0889,-3.0889,-3.0889,-3.0889,-3.0889,-3.0889,-3.0889,-3.0889,-3.0889,-3.0889,-3.084,-3.0518,-3.04,-3.0332,-2.9893,-2.9551,-2.9248,-2.8994,-2.8711,-2.8447,-2.833,-2.8291,-2.8291,-2.8291,-2.8291,-2.8291,-2.8291,-2.8708,-2.9132,-2.9132,-2.9564,-3.0129,-3.0594,-3.1316,-3.1976,-3.2774,-3.3472,-3.4351,-3.5256,-3.5423,-3.5632,-3.6266,-3.6592,-3.6916,-3.7131,-3.7667,-3.7986,-3.7986,-3.7986,-3.7986,-3.7986,-3.7986,-3.7986,-3.7986,-3.7986,-3.7986,-3.7986,-3.7785,-3.7702,-3.7596,-3.737,-3.7131,-3.6808,-3.6808,-3.67,-1.591,-1.6775,-1.7888,-1.8462,-1.9528,-2.0798,-2.2061,-2.3009,-2.3953,-2.4922,-2.5635,-2.6055,-2.5781,-2.6094,-2.6523,-2.6943,-2.7383,-2.7812,-2.8232,-2.8291,-2.8389,-2.8643,-2.8818,-2.9023,-2.9287,-2.9697,-2.9941,-2.9941,-3.0361,-3.0615,-3.0615,-3.0791,-3.0889,-3.0889,-3.0889,-3.0889,-3.0889,-3.0889,-3.0889,-3.0889,-3.0889,-3.0889,-3.0889,-3.0889,-3.0889,-3.0889,-3.0889,-3.0889,-3.0889,-3.0889,-3.0889,-3.0889,-3.0889,-3.0889,-3.0869,-3.0684,-3.0615,-3.0547,-3.0107,-2.9941,-2.9873,-2.9453,-2.9131,-2.8887,-2.8721,-2.8496,-2.8291,-2.8291,-2.8291,-2.8291,-2.8291,-2.8291,-2.8291,-2.8291,-2.8708,-2.9132,-2.9132,-2.9564,-3.0077,-3.0356,-3.0958,-3.1678,-3.2253,-3.3105,-3.4109,-3.4966,-3.5497,-3.584,-3.6277,-3.6808,-3.7131,-3.7131,-3.7667,-3.7986,-3.7986,-3.7986,-3.7986,-3.7986,-3.7986,-3.7986,-3.7986,-3.7986,-3.7986,-3.7892,-3.7702,-3.7489,-3.7262,-3.7036,-3.6808,-3.6592,-3.6592,-3.6483,-1.6762,-1.7706,-1.8614,-1.8687,-1.9622,-2.0909,-2.2645,-2.3543,-2.4272,-2.498,-2.543,-2.5742,-2.5742,-2.6094,-2.6523,-2.6943,-2.7383,-2.7812,-2.8232,-2.8291,-2.8291,-2.8291,-2.8633,-2.8867,-2.8867,-2.9258,-2.9512,-2.9512,-2.9902,-3.0137,-3.0137,-3.0537,-3.0771,-3.0771,-3.081,-3.083,-3.083,-3.0869,-3.0889,-3.0889,-3.0889,-3.0889,-3.0889,-3.0889,-3.0889,-3.0889,-3.0889,-3.0889,-3.0889,-3.0889,-3.0869,-3.083,-3.083,-3.0801,-3.0723,-3.0293,-3.0137,-3.0078,-2.9658,-2.9512,-2.9443,-2.9004,-2.8867,-2.8789,-2.8408,-2.8291,-2.8291,-2.8291,-2.8291,-2.8291,-2.8291,-2.8291,-2.8291,-2.8291,-2.8708,-2.9132,-2.9132,-2.9564,-2.9994,-2.9994,-3.0737,-3.1455,-3.1487,-3.2749,-3.3922,-3.4553,-3.5586,-3.622,-3.6266,-3.6808,-3.7131,-3.7131,-3.7667,-3.7986,-3.7986,-3.7986,-3.7986,-3.7986,-3.7986,-3.7986,-3.7986,-3.7986,-3.7892,-3.7596,-3.7596,-3.7262,-3.67,-3.67,-3.6592,-3.6266,-3.6266,-3.6266,-1.6422,-1.7092,-1.7917,-1.855,-1.9622,-2.0845,-2.2022,-2.306,-2.4076,-2.4886,-2.543,-2.5742,-2.5742,-2.6094,-2.6523,-2.6943,-2.7383,-2.7812,-2.8232,-2.8291,-2.8291,-2.8291,-2.8369,-2.8428,-2.8428,-2.8809,-2.9062,-2.9062,-2.9463,-2.9707,-2.9707,-2.9795,-2.9853,-2.9853,-3.0176,-3.0342,-3.0342,-3.0703,-3.0889,-3.0889,-3.0889,-3.0889,-3.0889,-3.0889,-3.0889,-3.0889,-3.0889,-3.0889,-3.0889,-3.0889,-3.0674,-3.0342,-3.0342,-3.0146,-2.9844,-2.9746,-2.9707,-2.9639,-2.9209,-2.9062,-2.8994,-2.8564,-2.8428,-2.8408,-2.832,-2.8291,-2.8291,-2.8291,-2.8291,-2.8291,-2.8291,-2.8291,-2.8291,-2.8291,-2.8708,-2.9132,-2.9132,-2.9564,-2.9994,-2.9994,-3.0496,-3.1083,-3.1434,-3.2219,-3.3153,-3.4452,-3.529,-3.5818,-3.622,-3.6808,-3.7131,-3.7131,-3.7667,-3.7986,-3.7986,-3.7986,-3.7986,-3.7986,-3.7986,-3.7986,-3.7986,-3.7785,-3.7702,-3.7596,-3.7143,-3.6808,-3.67,-3.6483,-3.6386,-3.6266,-3.6266,-3.6266,-1.6551,-1.7321,-1.8275,-1.9091,-1.9916,-2.0762,-2.1649,-2.2612,-2.3687,-2.4481,-2.5188,-2.5742,-2.5742,-2.6094,-2.6523,-2.6943,-2.7383,-2.7812,-2.8232,-2.8291,-2.8291,-2.8291,-2.8291,-2.8291,-2.8291,-2.8496,-2.8613,-2.8613,-2.9014,-2.9258,-2.9258,-2.9453,-2.957,-2.957,-2.9785,-2.9893,-2.9893,-3.0137,-3.0264,-3.0264,-3.0264,-3.0264,-3.0273,-3.0693,-3.0771,-3.0557,-3.0557,-3.0449,-3.0264,-3.0264,-3.0117,-2.9893,-2.9893,-2.9766,-2.9541,-2.9336,-2.9258,-2.9199,-2.8769,-2.8613,-2.8584,-2.8359,-2.8291,-2.8291,-2.8291,-2.8291,-2.8291,-2.8291,-2.8291,-2.8291,-2.8291,-2.8291,-2.8291,-2.8291,-2.8708,-2.9132,-2.9132,-2.9564,-2.9994,-2.9994,-3.0412,-3.0902,-3.1136,-3.2104,-3.3149,-3.4213,-3.4944,-3.5611,-3.5875,-3.6657,-3.7131,-3.7131,-3.7667,-3.7986,-3.7986,-3.7986,-3.7986,-3.7986,-3.7986,-3.7986,-3.7785,-3.7477,-3.737,-3.737,-3.6928,-3.6592,-3.6483,-3.6375,-3.6266,-3.6266,-3.6168,-3.6059,-1.6587,-1.7633,-1.8806,-1.9622,-2.0173,-2.0622,-2.1284,-2.2283,-2.3189,-2.3875,-2.4879,-2.5644,-2.5723,-2.6035,-2.6416,-2.6836,-2.7207,-2.7617,-2.8115,-2.8184,-2.8213,-2.8281,-2.8291,-2.8291,-2.8291,-2.8291,-2.8291,-2.8291,-2.8613,-2.8809,-2.8809,-2.915,-2.9355,-2.9355,-2.9414,-2.9453,-2.9453,-2.9531,-2.957,-2.957,-2.957,-2.957,-2.959,-3.0332,-3.0449,-3.0088,-3.0088,-2.9893,-2.957,-2.957,-2.9521,-2.9453,-2.9453,-2.9414,-2.9307,-2.8945,-2.8809,-2.876,-2.8418,-2.8291,-2.8291,-2.8291,-2.8291,-2.8291,-2.8291,-2.8291,-2.8291,-2.8291,-2.8291,-2.8291,-2.8291,-2.8291,-2.8291,-2.8291,-2.8717,-2.9026,-2.9132,-2.9564,-2.9994,-2.9994,-3.0412,-3.0827,-3.0931,-3.2174,-3.3238,-3.3742,-3.457,-3.5324,-3.5497,-3.6424,-3.7037,-3.712,-3.7667,-3.7986,-3.7986,-3.7986,-3.7986,-3.7986,-3.7986,-3.7892,-3.7596,-3.7251,-3.7024,-3.7024,-3.6808,-3.6483,-3.6266,-3.6266,-3.6266,-3.6168,-3.5961,-3.5742,-1.5744,-1.7,-1.8394,-1.9191,-1.9952,-2.0622,-2.1016,-2.2008,-2.2906,-2.3597,-2.4533,-2.5273,-2.5664,-2.5781,-2.5967,-2.6406,-2.6523,-2.6836,-2.7637,-2.7754,-2.7881,-2.8252,-2.8291,-2.8291,-2.8291,-2.8291,-2.8291,-2.8291,-2.834,-2.8379,-2.8379,-2.8428,-2.8457,-2.8457,-2.8818,-2.9004,-2.9004,-2.9385,-2.957,-2.957,-2.957,-2.957,-2.957,-2.9687,-2.9717,-2.9658,-2.9658,-2.9619,-2.957,-2.957,-2.9346,-2.9004,-2.9004,-2.8789,-2.8457,-2.8398,-2.8379,-2.8369,-2.831,-2.8291,-2.8291,-2.8291,-2.8291,-2.8291,-2.8291,-2.8291,-2.8291,-2.8291,-2.8291,-2.8291,-2.8291,-2.8291,-2.8291,-2.8291,-2.8514,-2.8834,-2.9026,-2.9564,-2.9994,-2.9994,-3.0412,-3.0931,-3.1424,-3.2093,-3.2712,-3.3216,-3.3856,-3.4521,-3.5405,-3.6121,-3.6661,-3.7084,-3.7667,-3.7986,-3.7986,-3.7986,-3.7986,-3.7986,-3.7986,-3.7892,-3.7596,-3.7251,-3.7024,-3.6808,-3.6483,-3.6375,-3.6266,-3.6266,-3.6168,-3.5852,-3.5852,-3.5632,-1.6138,-1.7229,-1.8256,-1.8834,-1.9751,-2.0567,-2.0741,-2.1586,-2.256,-2.3256,-2.3951,-2.4828,-2.5518,-2.5742,-2.5879,-2.6318,-2.6387,-2.6602,-2.7217,-2.751,-2.7734,-2.792,-2.8144,-2.8291,-2.8291,-2.8291,-2.8291,-2.8291,-2.8291,-2.8291,-2.8291,-2.8291,-2.8291,-2.8291,-2.8467,-2.8564,-2.8564,-2.876,-2.8857,-2.8857,-2.8857,-2.8857,-2.8857,-2.8857,-2.8984,-2.9209,-2.9209,-2.9072,-2.8857,-2.8857,-2.874,-2.8564,-2.8564,-2.8457,-2.8291,-2.8291,-2.8291,-2.8291,-2.8291,-2.8291,-2.8291,-2.8291,-2.8291,-2.8291,-2.8291,-2.8291,-2.8291,-2.8291,-2.8291,-2.8291,-2.8291,-2.8291,-2.8291,-2.8291,-2.8514,-2.8727,-2.9026,-2.9459,-2.9879,-3.0412,-3.062,-3.0931,-3.1527,-3.2139,-3.2521,-3.2745,-3.3515,-3.4165,-3.4613,-3.5503,-3.6273,-3.6697,-3.7299,-3.7892,-3.7986,-3.7986,-3.7986,-3.7986,-3.7986,-3.7773,-3.7358,-3.7131,-3.6916,-3.6483,-3.6375,-3.6266,-3.6266,-3.6266,-3.6168,-3.5852,-3.5643,-3.5423,-1.6294,-1.7193,-1.7935,-1.844,-1.9467,-2.0393,-2.0493,-2.1158,-2.2087,-2.2862,-2.3496,-2.4131,-2.5072,-2.5489,-2.584,-2.6172,-2.6221,-2.6377,-2.6797,-2.7139,-2.7383,-2.749,-2.7783,-2.8008,-2.8125,-2.8135,-2.8174,-2.8281,-2.8291,-2.8291,-2.8291,-2.8291,-2.8291,-2.8291,-2.8291,-2.8291,-2.8291,-2.8291,-2.8291,-2.8291,-2.8291,-2.8291,-2.8291,-2.8291,-2.8467,-2.876,-2.876,-2.8584,-2.8291,-2.8291,-2.8291,-2.8291,-2.8291,-2.8291,-2.8291,-2.8291,-2.8291,-2.8291,-2.8291,-2.8291,-2.8291,-2.8291,-2.8291,-2.8291,-2.8291,-2.8291,-2.8291,-2.8291,-2.8291,-2.8291,-2.8291,-2.8291,-2.8291,-2.8291,-2.8398,-2.8727,-2.9132,-2.9448,-2.9879,-3.062,-3.0838,-3.0931,-3.1527,-3.2139,-3.2544,-3.2544,-3.3265,-3.3866,-3.3981,-3.4878,-3.5725,-3.6168,-3.6967,-3.7488,-3.7781,-3.7902,-3.7986,-3.7986,-3.7986,-3.7773,-3.7131,-3.7131,-3.6808,-3.6266,-3.6266,-3.6266,-3.6266,-3.6266,-3.6059,-3.5742,-3.5522,-3.5202,-1.5533,-1.6349,-1.7165,-1.7954,-1.9063,-2.0063,-2.0429,-2.0842,-2.1452,-2.2525,-2.2985,-2.3319,-2.4044,-2.4985,-2.5742,-2.5762,-2.5771,-2.5918,-2.6357,-2.6435,-2.6602,-2.7002,-2.707,-2.7246,-2.7656,-2.7695,-2.7861,-2.8262,-2.8291,-2.8291,-2.8291,-2.8291,-2.8291,-2.8291,-2.8291,-2.8291,-2.8291,-2.8291,-2.8291,-2.8291,-2.8291,-2.8291,-2.8291,-2.8291,-2.8301,-2.833,-2.833,-2.831,-2.8291,-2.8291,-2.8291,-2.8291,-2.8291,-2.8291,-2.8291,-2.8291,-2.8291,-2.8291,-2.8291,-2.8291,-2.8291,-2.8291,-2.8291,-2.8291,-2.8291,-2.8291,-2.8291,-2.8291,-2.8291,-2.8291,-2.8291,-2.8291,-2.8291,-2.8291,-2.8291,-2.8504,-2.9343,-2.9774,-3.0099,-3.0724,-3.0838,-3.0931,-3.1527,-3.2139,-3.2544,-3.2544,-3.2992,-3.3488,-3.3947,-3.4254,-3.4781,-3.5568,-3.6398,-3.6916,-3.724,-3.7697,-3.7986,-3.7986,-3.7986,-3.7773,-3.7131,-3.7131,-3.6808,-3.6266,-3.6266,-3.6266,-3.6266,-3.6266,-3.595,-3.5423,-3.5423,-3.5091,-1.5239,-1.6092,-1.7037,-1.7587,-1.8632,-1.9632,-2.0044,-2.064,-2.1277,-2.1845,-2.2419,-2.3013,-2.353,-2.453,-2.5303,-2.5303,-2.5547,-2.5791,-2.5947,-2.6211,-2.6445,-2.6592,-2.6846,-2.708,-2.7236,-2.7246,-2.7305,-2.7461,-2.7734,-2.7891,-2.7891,-2.8144,-2.8291,-2.8291,-2.8291,-2.8291,-2.8291,-2.8291,-2.8291,-2.8291,-2.8291,-2.8291,-2.8291,-2.8291,-2.8291,-2.8291,-2.8291,-2.8291,-2.8291,-2.8291,-2.8291,-2.8291,-2.8291,-2.8291,-2.8291,-2.8291,-2.8291,-2.8291,-2.8291,-2.8291,-2.8291,-2.8291,-2.8291,-2.8291,-2.8291,-2.8291,-2.8291,-2.8291,-2.8291,-2.8291,-2.8291,-2.8291,-2.8291,-2.8291,-2.8611,-2.892,-2.9237,-2.9669,-3.0203,-3.0734,-3.0838,-3.0931,-3.1527,-3.2139,-3.2544,-3.2544,-3.2969,-3.335,-3.3522,-3.391,-3.4379,-3.5063,-3.5647,-3.6173,-3.6687,-3.7168,-3.7481,-3.7481,-3.7793,-3.7773,-3.7131,-3.7131,-3.6808,-3.6266,-3.5956,-3.5944,-3.6266,-3.6266,-3.595,-3.5412,-3.5087,-3.4614,-1.5065,-1.578,-1.6688,-1.7504,-1.8201,-1.8944,-1.9907,-2.0319,-2.0576,-2.1117,-2.1798,-2.2363,-2.2729,-2.3688,-2.4584,-2.4824,-2.5225,-2.5518,-2.5518,-2.5889,-2.6172,-2.6172,-2.6416,-2.6641,-2.6787,-2.6807,-2.6865,-2.7002,-2.7285,-2.7451,-2.7451,-2.7851,-2.8144,-2.8291,-2.8291,-2.8291,-2.8291,-2.8291,-2.8291,-2.8291,-2.8291,-2.8291,-2.8291,-2.8291,-2.8291,-2.8291,-2.8291,-2.8291,-2.8291,-2.8291,-2.8291,-2.8291,-2.8291,-2.8291,-2.8291,-2.8291,-2.8291,-2.8291,-2.8291,-2.8291,-2.8291,-2.8291,-2.8291,-2.8291,-2.8291,-2.8291,-2.8291,-2.8291,-2.8291,-2.8291,-2.8291,-2.8291,-2.8291,-2.8291,-2.8708,-2.9132,-2.9132,-2.9564,-3.0099,-3.062,-3.0724,-3.0931,-3.1424,-3.1936,-3.2342,-3.2443,-3.2869,-3.3192,-3.3281,-3.3568,-3.3966,-3.4469,-3.5016,-3.5525,-3.6045,-3.6627,-3.6928,-3.6928,-3.7264,-3.7247,-3.672,-3.6614,-3.6402,-3.5987,-3.5451,-3.5439,-3.5784,-3.5784,-3.5461,-3.4919,-3.4583,-3.4103,0.0,0.0,0.0,-1.7669,-1.777,-1.7999,-2.0008,-1.9861,-1.9531,-2.0338,-2.0985,-2.1435,-2.1444,-2.246,-2.3606,-2.4195,-2.4746,-2.5049,-2.5049,-2.5439,-2.5713,-2.5713,-2.5732,-2.5908,-2.6328,-2.6367,-2.6533,-2.6943,-2.6992,-2.6992,-2.6992,-2.7412,-2.7832,-2.8242,-2.8271,-2.8271,-2.8271,-2.8281,-2.8291,-2.8291,-2.8291,-2.8291,-2.8291,-2.8291,-2.8291,-2.8291,-2.8291,-2.8291,-2.8291,-2.8291,-2.8291,-2.8291,-2.8291,-2.8291,-2.8291,-2.8291,-2.8291,-2.8291,-2.8291,-2.8291,-2.8291,-2.8291,-2.8291,-2.8291,-2.8291,-2.8291,-2.8291,-2.8291,-2.8291,-2.8291,-2.8291,-2.8291,-2.8291,-2.8291,-2.8708,-2.9132,-2.9132,-2.9564,-3.0099,-3.0391,-3.0609,-3.0931,-3.1127,-3.1618,-3.2128,-3.2443,-3.2768,-3.2992,-3.3292,-3.3281,-3.3481,-3.4075,-3.4498,-3.4993,-3.5493,-3.6086,-3.6386,-3.6386,-3.6398,-3.6297,-3.5991,-3.5786,-3.5489,-3.5213,-3.4889,-3.4785,-3.4785,-3.4796,-3.4482,-3.3944,-3.3816,-3.3582,-1.4717,0.0,0.0,0.0,0.0,0.0,-1.888,-1.9256,-1.9457,-1.9989,-2.0402,-2.0856,-2.1025,-2.1626,-2.2195,-2.2766,-2.3826,-2.459,-2.459,-2.498,-2.5254,-2.5254,-2.5537,-2.5781,-2.5908,-2.5918,-2.5967,-2.6084,-2.6377,-2.6562,-2.6562,-2.6963,-2.7246,-2.7363,-2.7676,-2.7842,-2.7842,-2.8135,-2.8291,-2.8291,-2.8291,-2.8291,-2.8291,-2.8291,-2.8291,-2.8291,-2.8291,-2.8291,-2.8291,-2.8291,-2.8291,-2.8291,-2.8291,-2.8291,-2.8291,-2.8291,-2.8291,-2.8291,-2.8291,-2.8291,-2.8291,-2.8291,-2.8291,-2.8291,-2.8291,-2.8291,-2.8291,-2.8291,-2.8291,-2.8291,-2.8291,-2.8291,-2.8291,-2.8291,-2.8514,-2.8834,-2.9026,-2.9448,-2.9879,-3.0287,-3.0609,-3.0931,-3.1127,-3.1618,-3.2128,-3.2443,-3.2768,-3.2992,-3.3292,-3.3281,-3.3481,-3.4075,-3.4205,-3.4473,-3.4954,-3.5533,-3.5833,-3.5833,-3.6194,-3.6297,-3.5991,-3.5786,-3.5489,-3.5213,-3.4521,-3.4222,-3.4222,-3.4613,-3.4482,-3.3933,-3.3155,-3.2488,-1.5111,-1.5469,-1.6092,-1.667,0.0,0.0,-1.8641,-1.888,-1.8971,-1.9549,-1.9989,-2.0273,-2.044,-2.0941,-2.1381,-2.173,-2.2756,-2.366,-2.4102,-2.4531,-2.4795,-2.4795,-2.5029,-2.5254,-2.5439,-2.5459,-2.5537,-2.5723,-2.5977,-2.6201,-2.6377,-2.6621,-2.6836,-2.7012,-2.7266,-2.7393,-2.7393,-2.7812,-2.8027,-2.8027,-2.8203,-2.8291,-2.8291,-2.8291,-2.8291,-2.8291,-2.8291,-2.8291,-2.8291,-2.8291,-2.8291,-2.8291,-2.8291,-2.8291,-2.8291,-2.8291,-2.8291,-2.8291,-2.8291,-2.8291,-2.8291,-2.8291,-2.8291,-2.8291,-2.8291,-2.8291,-2.8291,-2.8291,-2.8291,-2.8291,-2.8291,-2.8291,-2.8291,-2.8291,-2.8514,-2.8727,-2.9026,-2.9343,-2.9764,-3.0193,-3.0516,-3.0827,-3.1034,-3.1527,-3.2026,-3.2443,-3.2656,-3.2869,-3.3281,-3.3281,-3.3481,-3.3878,-3.4075,-3.4261,-3.4628,-3.5014,-3.5292,-3.5292,-3.5581,-3.5649,-3.5549,-3.5147,-3.4856,-3.4778,-3.407,-3.3706,-3.3706,-3.4016,-3.3856,-3.3305,-3.2509,-3.1902,-1.5927,-1.6166,-1.6661,-1.7275,-1.7266,0.0,-1.8797,-1.8632,-1.8375,-1.9036,-1.9467,-1.9732,-1.9732,-2.0255,-2.08,-2.1049,-2.1616,-2.2476,-2.3535,-2.4053,-2.4346,-2.4346,-2.4385,-2.457,-2.4951,-2.5,-2.5156,-2.5557,-2.5635,-2.585,-2.6299,-2.6318,-2.6484,-2.6855,-2.6924,-2.6943,-2.6943,-2.7373,-2.7598,-2.7598,-2.8027,-2.8223,-2.8223,-2.8271,-2.8291,-2.8291,-2.8291,-2.8291,-2.8291,-2.8291,-2.8291,-2.8291,-2.8291,-2.8291,-2.8291,-2.8291,-2.8291,-2.8291,-2.8291,-2.8291,-2.8291,-2.8291,-2.8291,-2.8291,-2.8291,-2.8291,-2.8291,-2.8291,-2.8291,-2.8291,-2.8291,-2.8291,-2.8291,-2.8291,-2.8514,-2.8727,-2.9036,-2.9343,-2.9659,-2.9994,-3.0412,-3.0838,-3.0838,-3.123,-3.1823,-3.2443,-3.2544,-3.2656,-3.3281,-3.3281,-3.3381,-3.3679,-3.3977,-3.4162,-3.4335,-3.464,-3.4823,-3.4823,-3.4823,-3.4823,-3.4823,-3.4359,-3.4075,-3.4075,-3.358,-3.3281,-3.3281,-3.3281,-3.2969,-3.2443,-3.1924,-3.1618,-1.6688,-1.7211,-1.7651,-1.7147,-1.7697,0.0,-1.7926,-1.8238,-1.855,-1.8385,-1.8421,-1.8476,-1.8476,-1.9063,-1.9789,-2.0197,-2.0914,-2.1738,-2.26,-2.3428,-2.3906,-2.3906,-2.4209,-2.4453,-2.4531,-2.4541,-2.458,-2.4668,-2.5,-2.5391,-2.584,-2.5859,-2.5898,-2.5986,-2.6328,-2.6514,-2.6514,-2.6934,-2.7139,-2.7148,-2.7578,-2.7783,-2.7803,-2.8135,-2.8291,-2.8291,-2.8291,-2.8291,-2.8291,-2.8291,-2.8291,-2.8291,-2.8291,-2.8291,-2.8291,-2.8291,-2.8291,-2.8291,-2.8291,-2.8291,-2.8291,-2.8291,-2.8291,-2.8291,-2.8291,-2.8291,-2.8291,-2.8291,-2.8291,-2.8291,-2.8291,-2.8291,-2.8291,-2.8291,-2.8291,-2.8504,-2.9026,-2.9132,-2.9343,-2.9889,-3.0412,-3.0838,-3.0838,-3.123,-3.1823,-3.2443,-3.2544,-3.2656,-3.3281,-3.3281,-3.3381,-3.3679,-3.3977,-3.4162,-3.4335,-3.464,-3.4823,-3.4823,-3.4823,-3.4823,-3.4823,-3.4531,-3.4249,-3.4075,-3.358,-3.3281,-3.3281,-3.3081,-3.2768,-3.2443,-3.2128,-3.1823,-1.7568,-1.7954,-1.832,-1.7908,-1.8265,0.0,0.0,-1.8403,-1.8531,-1.8944,-1.8375,-1.799,-1.8605,-1.8715,-1.8929,-1.9659,-2.0391,-2.1196,-2.1878,-2.2668,-2.3232,-2.3437,-2.3652,-2.3867,-2.4082,-2.4102,-2.4189,-2.4394,-2.4619,-2.4941,-2.5381,-2.54,-2.5508,-2.5732,-2.5947,-2.6064,-2.6064,-2.6484,-2.6699,-2.6709,-2.7139,-2.7344,-2.7363,-2.7783,-2.7978,-2.7988,-2.8203,-2.8291,-2.8291,-2.8291,-2.8291,-2.8291,-2.8291,-2.8291,-2.8291,-2.8291,-2.8291,-2.8291,-2.8291,-2.8291,-2.8291,-2.8291,-2.8291,-2.8291,-2.8291,-2.8291,-2.8291,-2.8291,-2.8291,-2.8291,-2.8291,-2.8291,-2.8291,-2.8291,-2.8291,-2.8398,-2.9026,-2.9132,-2.9237,-2.9889,-3.0308,-3.062,-3.0827,-3.1127,-3.1629,-3.2128,-3.2443,-3.2656,-3.3081,-3.3181,-3.3381,-3.3481,-3.3878,-3.4174,-3.4261,-3.464,-3.4823,-3.4823,-3.4823,-3.4823,-3.4823,-3.4531,-3.4249,-3.3878,-3.3481,-3.3281,-3.3281,-3.3192,-3.298,-3.2667,-3.224,-3.1913,-1.865,-1.8871,-1.9118,-1.888,-1.8999,-1.9155,0.0,0.0,0.0,-1.9412,-1.8531,-1.7917,-1.8898,-1.855,-1.8414,-1.9223,-1.9907,-2.0562,-2.1154,-2.1748,-2.2353,-2.2949,-2.3018,-2.3184,-2.3623,-2.3594,-2.375,-2.4258,-2.4219,-2.4394,-2.4912,-2.5019,-2.5234,-2.5596,-2.5693,-2.5742,-2.5742,-2.6084,-2.6269,-2.6269,-2.6699,-2.6894,-2.6904,-2.7344,-2.7539,-2.7568,-2.7988,-2.8174,-2.8174,-2.8262,-2.8291,-2.8291,-2.8291,-2.8291,-2.8291,-2.8291,-2.8291,-2.8291,-2.8291,-2.8291,-2.8291,-2.8291,-2.8291,-2.8291,-2.8291,-2.8291,-2.8291,-2.8291,-2.8291,-2.8291,-2.8291,-2.8291,-2.8291,-2.8291,-2.8291,-2.8398,-2.9026,-2.9132,-2.9237,-2.9889,-3.0193,-3.0401,-3.0724,-3.1023,-3.1424,-3.1924,-3.2342,-3.2555,-3.2891,-3.3081,-3.3281,-3.3281,-3.3779,-3.4075,-3.4075,-3.4543,-3.4823,-3.4823,-3.4823,-3.4823,-3.4823,-3.4531,-3.4249,-3.3779,-3.3481,-3.3381,-3.3281,-3.3281,-3.3181,-3.2891,-3.2342,-3.2015,-2.0163,-2.0539,-2.0576,-1.9503,-2.0044,-2.0383,-1.865,0.0,-1.9008,-1.844,0.0,-1.8091,-1.8229,0.0,0.0,-1.8453,-1.9052,-1.9697,-2.0351,-2.0683,-2.123,-2.2441,-2.2578,-2.2744,-2.3174,-2.2871,-2.2998,-2.3799,-2.3516,-2.3652,-2.4443,-2.4853,-2.5088,-2.5137,-2.5527,-2.5742,-2.5742,-2.5781,-2.581,-2.582,-2.625,-2.6455,-2.6475,-2.6894,-2.709,-2.7119,-2.7549,-2.7734,-2.7773,-2.8135,-2.8291,-2.8291,-2.8291,-2.8291,-2.8291,-2.8291,-2.8291,-2.8291,-2.8291,-2.8291,-2.8291,-2.8291,-2.8291,-2.8291,-2.8291,-2.8291,-2.8291,-2.8291,-2.8291,-2.8291,-2.8291,-2.8291,-2.8291,-2.8291,-2.8291,-2.8398,-2.9026,-2.9132,-2.9237,-2.9889,-2.9994,-3.0203,-3.0724,-3.1023,-3.1424,-3.1924,-3.2342,-3.2555,-3.2891,-3.3081,-3.3281,-3.3281,-3.3779,-3.4075,-3.4075,-3.4543,-3.4823,-3.4823,-3.4823,-3.4823,-3.4823,-3.4531,-3.4249,-3.4075,-3.3779,-3.358,-3.3281,-3.3281,-3.3181,-3.288,-3.2555,-3.2229,-2.0475,-2.0466,-2.0356,-2.0081,-2.0035,-1.9907,-1.9311,-1.9063,-1.8999,-1.9146,0.0,0.0,0.0,0.0,0.0,0.0,-1.8779,-1.9108,-1.9611,-1.9763,-2.04,-2.1963,-2.1924,-2.1943,-2.2373,-2.2246,-2.2402,-2.2998,-2.2891,-2.3154,-2.4004,-2.4228,-2.456,-2.5049,-2.5254,-2.5478,-2.5742,-2.5742,-2.5742,-2.5742,-2.5918,-2.6006,-2.6025,-2.6455,-2.665,-2.668,-2.71,-2.7285,-2.7324,-2.7754,-2.793,-2.7949,-2.8193,-2.8291,-2.8291,-2.8291,-2.8291,-2.8291,-2.8291,-2.8291,-2.8291,-2.8291,-2.8291,-2.8291,-2.8291,-2.8291,-2.8291,-2.8291,-2.8291,-2.8291,-2.8291,-2.8291,-2.8291,-2.8291,-2.8291,-2.8398,-2.8824,-2.9036,-2.9237,-2.9669,-2.9879,-3.0203,-3.0734,-3.0931,-3.1127,-3.1721,-3.224,-3.2555,-3.2656,-3.3081,-3.3281,-3.3281,-3.3679,-3.3977,-3.4075,-3.4347,-3.4628,-3.4823,-3.4823,-3.4823,-3.4823,-3.4531,-3.4347,-3.4075,-3.3878,-3.358,-3.3281,-3.3281,-3.3281,-3.3092,-3.288,-3.2555,-2.0851,-2.064,-2.0438,-2.0503,-2.0072,-1.9659,-1.9742,-1.9393,-1.921,-1.9806,-1.9072,0.0,0.0,0.0,-1.8284,-1.865,0.0,-1.889,-1.8976,-1.9014,-1.9707,-2.1328,-2.1455,-2.1543,-2.1855,-2.1777,-2.1885,-2.2305,-2.2344,-2.2656,-2.3398,-2.3662,-2.4072,-2.4697,-2.4951,-2.5225,-2.5557,-2.5674,-2.5742,-2.5742,-2.5742,-2.5742,-2.5752,-2.6064,-2.6211,-2.623,-2.666,-2.6846,-2.6875,-2.7305,-2.7559,-2.7695,-2.7998,-2.8193,-2.8291,-2.8291,-2.8291,-2.8291,-2.8291,-2.8291,-2.8291,-2.8291,-2.8291,-2.8291,-2.8291,-2.8291,-2.8291,-2.8291,-2.8291,-2.8291,-2.8291,-2.8291,-2.8291,-2.8291,-2.8291,-2.8398,-2.8621,-2.893,-2.9237,-2.9554,-2.9774,-3.0099,-3.062,-3.0724,-3.1034,-3.1527,-3.2139,-3.2544,-3.2544,-3.2969,-3.3281,-3.3281,-3.358,-3.3779,-3.4075,-3.4249,-3.4531,-3.4823,-3.4823,-3.4823,-3.4823,-3.4628,-3.4347,-3.4075,-3.3878,-3.3679,-3.3281,-3.3281,-3.3281,-3.3281,-3.2992,-3.2779,-2.1695,-2.1686,-2.1493,-2.0714,-2.0493,-2.0273,-1.9494,-1.9613,-1.9897,-1.9925,-2.0191,-2.0438,-2.0466,-2.0136,-1.9604,-1.8834,-1.9012,0.0,0.0,-1.8389,-1.9141,-2.0449,-2.1348,-2.1865,-2.1885,-2.1504,-2.1435,-2.1875,-2.1904,-2.21,-2.2529,-2.334,-2.3799,-2.3828,-2.4639,-2.5078,-2.5088,-2.5518,-2.5742,-2.5742,-2.5742,-2.5742,-2.5742,-2.5752,-2.5762,-2.5781,-2.6221,-2.6406,-2.6435,-2.6865,-2.7285,-2.7666,-2.7685,-2.7939,-2.8291,-2.8291,-2.8291,-2.8291,-2.8291,-2.8291,-2.8291,-2.8291,-2.8291,-2.8291,-2.8291,-2.8291,-2.8291,-2.8291,-2.8291,-2.8291,-2.8291,-2.8291,-2.8291,-2.8291,-2.8291,-2.8398,-2.8621,-2.893,-2.9237,-2.9554,-2.9774,-3.0099,-3.0401,-3.062,-3.1034,-3.1527,-3.2139,-3.2544,-3.2544,-3.2969,-3.3281,-3.3281,-3.358,-3.3779,-3.4075,-3.4249,-3.4531,-3.4823,-3.4823,-3.4823,-3.4823,-3.4823,-3.4543,-3.4075,-3.4075,-3.3878,-3.3281,-3.3281,-3.3281,-3.3281,-3.2992,-3.2779,-2.1741,-2.153,-2.1255,-2.0979,-2.0512,-2.0063,-1.9778,-1.9824,-1.9934,-1.9934,-2.0246,-2.0521,-2.0521,-2.02,-1.9742,-1.9191,-1.8889,-1.8573,0.0,-1.836,-1.8799,-1.9238,-2.0059,-2.0469,-2.0195,-2.0547,-2.085,-2.1006,-2.1289,-2.1768,-2.2471,-2.2783,-2.3203,-2.3769,-2.4336,-2.4775,-2.5068,-2.5518,-2.5742,-2.5742,-2.5742,-2.5742,-2.5742,-2.5742,-2.5742,-2.5742,-2.5889,-2.5957,-2.5986,-2.6426,-2.6689,-2.6875,-2.7441,-2.7754,-2.791,-2.8193,-2.8291,-2.8291,-2.8291,-2.8291,-2.8291,-2.8291,-2.8291,-2.8291,-2.8291,-2.8291,-2.8291,-2.8291,-2.8291,-2.8291,-2.8291,-2.8291,-2.8291,-2.8291,-2.8291,-2.8291,-2.8408,-2.8824,-2.9132,-2.9237,-2.9669,-3.0099,-3.0391,-3.0609,-3.0931,-3.1333,-3.1834,-3.2229,-3.2443,-3.2768,-3.3081,-3.3281,-3.3381,-3.358,-3.3779,-3.415,-3.4531,-3.4823,-3.4823,-3.4823,-3.4823,-3.4823,-3.4543,-3.4075,-3.4075,-3.3878,-3.3281,-3.3281,-3.3281,-3.3281,-3.3181,-3.2969,-2.1741,-2.1539,-2.1291,-2.1145,-2.0622,-2.0099,-1.9962,-1.9934,-1.9971,-2.0108,-2.0457,-2.0723,-2.0723,-2.0402,-1.9916,-1.9201,-1.8692,-1.8283,0.0,-1.8129,-1.8259,-1.8259,-1.9097,-1.958,-1.9316,-1.9785,-2.0176,-2.0322,-2.0742,-2.1377,-2.2246,-2.2432,-2.2832,-2.3535,-2.3965,-2.4394,-2.4834,-2.5273,-2.5586,-2.5742,-2.5742,-2.5742,-2.5742,-2.5742,-2.5742,-2.5742,-2.5742,-2.5742,-2.5762,-2.6045,-2.625,-2.6445,-2.7002,-2.7402,-2.7715,-2.8135,-2.8291,-2.8291,-2.8291,-2.8291,-2.8291,-2.8291,-2.8291,-2.8291,-2.8291,-2.8291,-2.8291,-2.8291,-2.8291,-2.8291,-2.8291,-2.8291,-2.8291,-2.8291,-2.8291,-2.8291,-2.8291,-2.8717,-2.9132,-2.9132,-2.9564,-3.0099,-3.0193,-3.0516,-3.0931,-3.1127,-3.1629,-3.2128,-3.2443,-3.2768,-3.298,-3.3281,-3.3281,-3.3481,-3.3779,-3.415,-3.4531,-3.4823,-3.4823,-3.4823,-3.4823,-3.4823,-3.4543,-3.4075,-3.4075,-3.3878,-3.3281,-3.3281,-3.3281,-3.3281,-3.3281,-3.2969]},{"header":{"parameterUnit":"m.s-1","parameterCategory":1,"la1":30.6,"la2":29.2853,"lo1":-89.7004,"lo2":-87.6739,"dy":0.0162,"dx":0.0183,"nx":112,"ny":82,"refTime":"2024-09-23T12:00:00:Z","depth":0,"parameterNumber":3,"parameterNumberName":"V-component_of_WINDS"},"data":[0.0,0.0,0.0,0.0,0.0,0.0,0.0,0.0,0.0,0.0,0.0,0.0,0.0,0.0,0.0,0.0,0.0,0.0,0.0,0.0,0.0,0.0,0.0,0.0,0.0,0.0,0.0,0.0,0.0,0.0,0.0,0.0,0.0,0.0,0.0,0.0,0.0,0.0,0.0,0.0,0.0,0.0,0.0,0.0,0.0,0.0,0.0,0.0,0.0,0.0,0.0,0.0,0.0,0.0,0.0,0.0,0.0,0.0,0.0,0.0,0.0,0.0,0.0,0.0,0.0,0.0,0.0,0.0,0.0,0.0,0.0,0.0,0.0,0.0,0.0,0.0,0.0,0.0,0.0,0.0,0.0,0.0,0.0,0.0,0.0,0.0,0.0,0.0,0.0,0.0,-2.5375,-2.5585,-2.4954,-2.4238,-2.357,-2.3422,-2.317,-2.2721,0.0,0.0,0.0,0.0,0.0,0.0,0.0,0.0,0.0,0.0,0.0,0.0,0.0,0.0,0.0,0.0,0.0,0.0,0.0,0.0,0.0,0.0,0.0,0.0,0.0,0.0,0.0,0.0,0.0,0.0,0.0,0.0,0.0,0.0,0.0,0.0,0.0,0.0,0.0,0.0,0.0,0.0,0.0,0.0,0.0,0.0,0.0,0.0,0.0,0.0,0.0,0.0,0.0,0.0,0.0,0.0,0.0,0.0,0.0,0.0,0.0,0.0,0.0,0.0,0.0,0.0,0.0,0.0,0.0,0.0,0.0,0.0,0.0,0.0,0.0,0.0,0.0,0.0,0.0,0.0,0.0,0.0,0.0,0.0,0.0,0.0,0.0,0.0,0.0,0.0,0.0,0.0,0.0,0.0,0.0,0.0,0.0,0.0,0.0,0.0,0.0,0.0,0.0,0.0,-2.4343,-2.5495,-2.4985,-2.4552,-2.4388,-2.3895,-2.3522,-2.3417,0.0,0.0,0.0,0.0,0.0,0.0,0.0,0.0,0.0,0.0,0.0,0.0,0.0,0.0,0.0,0.0,0.0,0.0,0.0,0.0,0.0,0.0,0.0,0.0,0.0,0.0,0.0,0.0,0.0,0.0,0.0,0.0,0.0,0.0,0.0,0.0,0.0,0.0,0.0,0.0,0.0,0.0,0.0,0.0,0.0,0.0,0.0,0.0,0.0,0.0,0.0,0.0,0.0,0.0,0.0,0.0,0.0,0.0,0.0,0.0,0.0,0.0,0.0,0.0,0.0,0.0,0.0,0.0,0.0,0.0,0.0,0.0,0.0,0.0,0.0,0.0,0.0,0.0,0.0,0.0,0.0,0.0,0.0,0.0,0.0,0.0,0.0,0.0,0.0,0.0,0.0,0.0,0.0,0.0,0.0,0.0,0.0,0.0,0.0,0.0,0.0,0.0,0.0,-2.527,-2.5465,-2.6078,-2.5555,-2.497,-2.4612,-2.3999,-2.3595,-2.3595,-2.2357,0.0,0.0,0.0,0.0,0.0,0.0,0.0,0.0,0.0,0.0,0.0,0.0,0.0,0.0,0.0,0.0,0.0,0.0,0.0,0.0,0.0,0.0,0.0,0.0,0.0,0.0,0.0,0.0,0.0,0.0,0.0,0.0,0.0,0.0,0.0,0.0,0.0,0.0,0.0,0.0,0.0,0.0,0.0,0.0,0.0,0.0,0.0,0.0,0.0,0.0,0.0,0.0,0.0,0.0,0.0,0.0,0.0,0.0,0.0,0.0,0.0,0.0,0.0,0.0,0.0,0.0,0.0,0.0,0.0,0.0,0.0,0.0,0.0,0.0,0.0,0.0,0.0,0.0,0.0,0.0,0.0,0.0,0.0,0.0,0.0,0.0,0.0,0.0,0.0,0.0,0.0,0.0,0.0,0.0,0.0,0.0,0.0,0.0,0.0,0.0,0.0,0.0,-2.6861,-2.6647,-2.6811,-2.6093,-2.5405,-2.4896,-2.4088,-2.3595,-2.3653,-2.2263,0.0,0.0,0.0,0.0,0.0,0.0,0.0,0.0,0.0,0.0,0.0,0.0,0.0,0.0,0.0,0.0,0.0,0.0,0.0,0.0,0.0,0.0,0.0,0.0,0.0,0.0,0.0,0.0,0.0,0.0,0.0,0.0,0.0,0.0,0.0,0.0,0.0,0.0,0.0,0.0,0.0,0.0,0.0,0.0,0.0,0.0,0.0,0.0,0.0,0.0,0.0,0.0,0.0,0.0,0.0,0.0,0.0,0.0,0.0,0.0,0.0,0.0,0.0,0.0,0.0,0.0,0.0,0.0,0.0,0.0,0.0,0.0,0.0,0.0,0.0,0.0,0.0,0.0,0.0,0.0,0.0,0.0,0.0,0.0,0.0,0.0,0.0,0.0,0.0,0.0,0.0,0.0,0.0,0.0,0.0,0.0,0.0,0.0,0.0,0.0,0.0,0.0,-2.6291,-2.6826,-2.749,-2.6363,-2.5585,-2.554,-2.4343,-2.3653,-2.3782,-2.1884,0.0,0.0,0.0,0.0,0.0,0.0,0.0,0.0,0.0,0.0,0.0,0.0,0.0,0.0,0.0,0.0,0.0,0.0,0.0,0.0,0.0,0.0,0.0,0.0,0.0,0.0,0.0,0.0,0.0,0.0,0.0,0.0,0.0,0.0,0.0,0.0,0.0,0.0,0.0,0.0,0.0,0.0,0.0,0.0,0.0,0.0,0.0,0.0,0.0,0.0,0.0,0.0,0.0,0.0,0.0,0.0,0.0,0.0,0.0,0.0,0.0,0.0,0.0,0.0,0.0,0.0,0.0,0.0,0.0,0.0,0.0,0.0,0.0,0.0,0.0,0.0,0.0,0.0,0.0,0.0,0.0,0.0,0.0,0.0,0.0,0.0,0.0,0.0,0.0,0.0,0.0,0.0,0.0,0.0,0.0,0.0,0.0,0.0,0.0,0.0,0.0,0.0,-2.6406,-2.7085,-2.778,-2.701,-2.6285,-2.5878,-2.4987,-2.4277,-2.3812,0.0,0.0,0.0,0.0,0.0,0.0,0.0,0.0,0.0,0.0,0.0,0.0,0.0,0.0,0.0,0.0,0.0,0.0,0.0,0.0,0.0,0.0,0.0,0.0,0.0,0.0,0.0,0.0,0.0,0.0,0.0,0.0,0.0,0.0,0.0,0.0,0.0,0.0,0.0,0.0,0.0,0.0,0.0,0.0,0.0,0.0,0.0,0.0,0.0,0.0,0.0,0.0,0.0,0.0,0.0,0.0,0.0,0.0,0.0,0.0,0.0,0.0,0.0,0.0,0.0,0.0,0.0,0.0,0.0,0.0,0.0,0.0,0.0,0.0,0.0,0.0,0.0,0.0,0.0,0.0,0.0,0.0,0.0,0.0,0.0,0.0,0.0,0.0,0.0,0.0,0.0,0.0,0.0,0.0,0.0,0.0,0.0,0.0,0.0,0.0,0.0,0.0,-2.5667,-2.6563,-2.7246,-2.7944,-2.7382,-2.6746,-2.6077,-2.5408,-2.4589,-2.3652,0.0,0.0,0.0,0.0,0.0,0.0,0.0,0.0,0.0,0.0,0.0,0.0,0.0,0.0,0.0,0.0,0.0,0.0,0.0,0.0,0.0,0.0,0.0,0.0,0.0,0.0,0.0,0.0,0.0,0.0,0.0,0.0,0.0,0.0,0.0,0.0,0.0,0.0,0.0,0.0,0.0,0.0,0.0,0.0,0.0,0.0,0.0,0.0,0.0,0.0,0.0,0.0,0.0,0.0,0.0,0.0,0.0,0.0,0.0,0.0,0.0,0.0,0.0,0.0,0.0,0.0,0.0,0.0,0.0,0.0,0.0,0.0,0.0,0.0,0.0,0.0,0.0,0.0,0.0,0.0,0.0,0.0,0.0,0.0,0.0,0.0,0.0,0.0,0.0,0.0,0.0,0.0,0.0,0.0,0.0,0.0,0.0,0.0,0.0,0.0,0.0,0.0,-2.5909,-2.6671,-2.7294,-2.7929,-2.7397,-2.6746,-2.6077,-2.5423,-2.445,0.0,0.0,0.0,0.0,0.0,0.0,0.0,0.0,0.0,0.0,0.0,0.0,0.0,0.0,0.0,0.0,0.0,0.0,0.0,0.0,0.0,0.0,0.0,0.0,0.0,0.0,0.0,0.0,0.0,0.0,0.0,0.0,0.0,0.0,0.0,0.0,0.0,0.0,0.0,0.0,0.0,0.0,0.0,0.0,0.0,0.0,0.0,0.0,0.0,0.0,0.0,0.0,0.0,0.0,0.0,0.0,0.0,0.0,0.0,0.0,0.0,0.0,0.0,0.0,0.0,0.0,0.0,0.0,0.0,0.0,0.0,0.0,0.0,0.0,0.0,0.0,0.0,0.0,0.0,0.0,0.0,0.0,0.0,0.0,0.0,0.0,0.0,0.0,0.0,0.0,0.0,0.0,0.0,0.0,0.0,0.0,0.0,0.0,0.0,0.0,0.0,0.0,0.0,-2.603,-2.724,-2.8069,-2.8235,-2.813,-2.7532,-2.6382,-2.609,-2.5142,-2.3234,0.0,0.0,0.0,0.0,0.0,0.0,0.0,0.0,0.0,0.0,0.0,0.0,0.0,0.0,0.0,0.0,0.0,0.0,0.0,0.0,0.0,0.0,0.0,0.0,0.0,0.0,0.0,0.0,0.0,0.0,0.0,0.0,0.0,0.0,0.0,0.0,0.0,0.0,0.0,0.0,0.0,0.0,0.0,0.0,0.0,0.0,0.0,0.0,0.0,0.0,0.0,0.0,0.0,0.0,0.0,0.0,0.0,0.0,0.0,0.0,0.0,0.0,0.0,0.0,0.0,0.0,0.0,0.0,0.0,0.0,0.0,0.0,0.0,0.0,0.0,0.0,0.0,0.0,0.0,0.0,0.0,0.0,0.0,0.0,0.0,0.0,0.0,0.0,0.0,0.0,0.0,0.0,0.0,0.0,0.0,0.0,0.0,0.0,0.0,0.0,0.0,0.0,-2.6075,-2.7503,-2.8411,-2.8411,-2.8411,-2.7965,-2.6888,-2.6534,-2.5503,-2.3345,0.0,0.0,0.0,0.0,0.0,0.0,0.0,0.0,0.0,0.0,0.0,0.0,0.0,0.0,0.0,0.0,0.0,0.0,0.0,0.0,0.0,0.0,0.0,0.0,0.0,0.0,0.0,0.0,0.0,0.0,0.0,0.0,0.0,0.0,0.0,0.0,0.0,0.0,0.0,0.0,0.0,0.0,0.0,0.0,0.0,0.0,0.0,0.0,0.0,0.0,0.0,0.0,0.0,0.0,0.0,0.0,0.0,0.0,0.0,0.0,0.0,0.0,0.0,0.0,0.0,0.0,0.0,0.0,0.0,0.0,0.0,0.0,0.0,0.0,0.0,0.0,0.0,0.0,0.0,0.0,0.0,0.0,0.0,0.0,0.0,0.0,0.0,0.0,0.0,0.0,0.0,0.0,0.0,0.0,0.0,0.0,0.0,0.0,0.0,0.0,0.0,0.0,-2.612,-2.755,-2.8411,-2.8411,-2.8411,-2.8134,-2.7457,-2.678,-2.5518,-2.3517,0.0,0.0,0.0,0.0,0.0,0.0,0.0,0.0,0.0,0.0,0.0,0.0,0.0,0.0,0.0,0.0,0.0,0.0,0.0,0.0,0.0,0.0,0.0,0.0,0.0,0.0,0.0,0.0,0.0,0.0,0.0,0.0,0.0,0.0,0.0,0.0,0.0,0.0,0.0,0.0,0.0,0.0,0.0,0.0,0.0,0.0,0.0,0.0,0.0,0.0,0.0,0.0,0.0,0.0,0.0,0.0,0.0,0.0,0.0,0.0,-2.3071,-2.2147,0.0,0.0,0.0,0.0,0.0,0.0,0.0,0.0,0.0,0.0,0.0,0.0,0.0,0.0,0.0,0.0,0.0,0.0,0.0,0.0,0.0,0.0,0.0,0.0,0.0,0.0,0.0,0.0,0.0,0.0,0.0,0.0,0.0,0.0,0.0,0.0,0.0,0.0,0.0,0.0,-2.6272,-2.7565,-2.8411,-2.8411,-2.8411,-2.8134,-2.7457,-2.6749,-2.5687,-2.4179,-2.2762,0.0,0.0,0.0,0.0,0.0,0.0,0.0,0.0,0.0,0.0,0.0,0.0,0.0,0.0,0.0,0.0,0.0,0.0,0.0,0.0,0.0,0.0,0.0,0.0,0.0,0.0,0.0,0.0,0.0,0.0,0.0,0.0,0.0,0.0,0.0,0.0,0.0,0.0,0.0,0.0,0.0,0.0,0.0,0.0,0.0,0.0,0.0,0.0,0.0,0.0,0.0,0.0,0.0,0.0,0.0,0.0,0.0,0.0,0.0,-2.4837,-2.3933,0.0,0.0,0.0,0.0,0.0,0.0,0.0,0.0,0.0,0.0,0.0,0.0,0.0,0.0,0.0,0.0,0.0,0.0,0.0,0.0,0.0,0.0,0.0,0.0,0.0,0.0,0.0,0.0,0.0,0.0,0.0,0.0,0.0,0.0,0.0,0.0,0.0,0.0,0.0,0.0,-2.6734,-2.8057,-2.8889,-2.8889,-2.8889,-2.875,-2.8396,-2.7426,-2.6257,-2.4887,-2.3774,0.0,0.0,0.0,0.0,0.0,0.0,0.0,0.0,0.0,0.0,0.0,0.0,0.0,0.0,0.0,0.0,0.0,0.0,0.0,0.0,0.0,0.0,0.0,0.0,0.0,0.0,0.0,0.0,0.0,0.0,0.0,0.0,0.0,0.0,0.0,0.0,0.0,0.0,0.0,0.0,0.0,0.0,0.0,0.0,0.0,0.0,0.0,0.0,0.0,0.0,0.0,0.0,0.0,-2.6796,-2.7195,-2.7966,-2.7966,-2.8355,-2.8885,-2.7025,-2.6425,-2.6687,-2.6116,0.0,0.0,0.0,0.0,0.0,0.0,0.0,0.0,0.0,0.0,0.0,0.0,0.0,0.0,0.0,0.0,0.0,0.0,0.0,0.0,0.0,0.0,-2.6953,-2.694,-2.7408,-2.7508,-2.6194,0.0,0.0,0.0,0.0,0.0,0.0,0.0,0.0,0.0,0.0,0.0,-2.7426,-2.875,-2.9581,-2.9581,-2.9581,-2.955,-2.9427,-2.8288,-2.7026,-2.5764,-2.4863,-2.3682,0.0,0.0,0.0,0.0,0.0,0.0,0.0,0.0,0.0,0.0,0.0,0.0,0.0,0.0,0.0,0.0,0.0,0.0,0.0,0.0,0.0,0.0,0.0,0.0,0.0,0.0,0.0,0.0,0.0,0.0,0.0,0.0,-2.0632,-2.147,0.0,0.0,0.0,0.0,0.0,0.0,0.0,0.0,0.0,0.0,0.0,0.0,0.0,-2.7042,-2.7119,-2.7719,-2.8334,-2.9012,-2.9095,-2.95,-3.0165,-3.0301,-3.0398,-3.051,-3.018,0.0,-2.8467,-2.8248,0.0,0.0,0.0,0.0,0.0,0.0,0.0,0.0,0.0,0.0,0.0,0.0,0.0,0.0,0.0,0.0,0.0,0.0,0.0,0.0,0.0,0.0,-2.871,-2.9919,-3.0199,-3.0254,-3.0607,-2.8545,-2.6467,-2.5711,-2.5523,-2.519,0.0,0.0,0.0,0.0,0.0,0.0,-2.8242,-2.9458,-3.0289,-3.0289,-3.0289,-3.0058,-2.9458,-2.8704,-2.795,-2.7165,-2.5859,-2.5029,-2.4698,-2.359,0.0,0.0,0.0,0.0,0.0,0.0,0.0,0.0,0.0,0.0,0.0,0.0,0.0,0.0,0.0,0.0,0.0,0.0,0.0,0.0,0.0,0.0,0.0,0.0,0.0,0.0,0.0,0.0,0.0,-2.1135,-2.254,-2.2866,-2.3284,-2.3266,0.0,0.0,0.0,0.0,0.0,0.0,0.0,0.0,0.0,-2.769,-2.8387,-2.8931,-2.9319,-3.0002,-3.0499,-3.0794,-3.1234,-3.1815,-3.2485,-3.2538,-3.281,-3.3294,-3.3294,-3.3002,-3.2332,-3.0185,-2.9277,-2.9292,0.0,0.0,0.0,0.0,-3.0448,-3.0454,-3.0286,-2.9927,-2.9557,-2.9659,0.0,0.0,0.0,0.0,0.0,0.0,0.0,-2.9403,-2.955,-3.0256,-3.109,-3.1609,-3.1665,-3.1813,-3.2528,-3.1607,-3.0258,-2.8701,-2.8538,-2.8116,-2.6608,-2.6865,0.0,0.0,0.0,-2.9119,-2.9489,-3.0381,-3.0966,-3.0966,-3.0966,-3.0843,-3.0551,-2.9566,-2.8688,-2.7996,-2.7042,-2.6089,-2.5277,-2.4679,-2.3682,0.0,0.0,0.0,0.0,0.0,0.0,0.0,0.0,0.0,0.0,0.0,0.0,0.0,0.0,0.0,0.0,0.0,0.0,0.0,0.0,0.0,0.0,0.0,0.0,0.0,0.0,0.0,0.0,-2.2972,-2.4157,-2.4294,-2.4879,-2.4787,0.0,0.0,0.0,0.0,0.0,0.0,-2.7841,-2.885,-2.9679,-3.0192,-3.06,-3.1072,-3.1571,-3.2326,-3.267,-3.267,-3.3255,-3.3772,-3.4201,-3.4257,-3.4666,-3.5225,-3.5225,-3.5282,-3.5189,-3.2374,-3.1205,-3.1205,-3.1138,-3.1263,-3.1596,-3.2478,-3.2678,-3.2546,-3.3002,-3.2857,-3.253,-3.2466,-3.2349,-3.1998,-3.0591,0.0,0.0,0.0,0.0,-3.1907,-3.1991,-3.2619,-3.3267,-3.3477,-3.3529,-3.3629,-3.4169,-3.4529,-3.3973,-3.1533,-3.1196,-3.0717,-2.8982,-2.8982,0.0,-2.9018,-2.9539,-3.0104,-3.0612,-3.1243,-3.1643,-3.1643,-3.1643,-3.1582,-3.1397,-3.0489,-2.955,-2.8719,-2.8027,-2.7119,-2.5903,-2.5431,-2.4514,-2.2998,0.0,0.0,0.0,0.0,0.0,0.0,0.0,0.0,0.0,0.0,0.0,0.0,0.0,0.0,0.0,0.0,0.0,0.0,0.0,0.0,0.0,0.0,0.0,0.0,0.0,0.0,0.0,0.0,0.0,-2.5635,-2.5864,0.0,0.0,0.0,0.0,-2.7041,-2.8585,-2.9487,-2.9552,-3.0963,-3.1748,-3.1779,-3.3045,-3.3692,-3.3724,-3.4394,-3.4753,-3.4753,-3.4986,-3.509,-3.5122,-3.5291,-3.5363,-3.5394,-3.5394,-3.5394,-3.5379,-3.5037,-3.4917,-3.4917,-3.4716,-3.5149,-3.5839,-3.5386,-3.5712,-3.6253,-3.5783,-3.5379,-3.5286,-3.6918,-3.687,-3.5656,-3.2607,-3.2395,0.0,0.0,-3.2419,-3.3278,-3.4416,-3.4655,-3.4938,-3.6338,-3.6582,-3.6479,-3.6512,-3.7312,-3.6949,-3.3616,-3.2886,-3.24,-3.1242,0.0,-3.0782,-3.051,-3.1031,-3.148,-3.1389,-3.1921,-3.2336,-3.2336,-3.2336,-3.2074,-3.1428,-3.132,-3.0735,-2.9443,-2.8735,-2.8042,-2.7319,-2.6026,-2.5272,-2.5164,-2.3871,0.0,0.0,0.0,0.0,0.0,0.0,0.0,0.0,0.0,0.0,0.0,0.0,0.0,0.0,0.0,0.0,0.0,0.0,0.0,0.0,0.0,0.0,0.0,0.0,0.0,0.0,0.0,0.0,-2.7422,-2.7979,0.0,-2.7489,-2.831,-2.9086,-2.957,-3.0927,-3.1908,-3.2398,-3.3427,-3.3999,-3.3999,-3.4581,-3.5052,-3.5493,-3.62,-3.6766,-3.7207,-3.7707,-3.7989,-3.7989,-3.8033,-3.8033,-3.8033,-3.8185,-3.8245,-3.8261,-3.8321,-3.7197,-3.5482,-3.5837,-3.6283,-3.6619,-3.6421,-3.6598,-3.6878,-3.6319,-3.6129,-3.6277,-3.7096,-3.7219,-3.6833,-3.578,-3.5803,-3.6093,-3.5748,-3.5866,-3.6139,-3.637,-3.6389,-3.6472,-3.6919,-3.7001,-3.7081,-3.756,-3.7961,-3.7777,-3.6362,-3.6114,-3.5516,-3.3718,-3.3646,-3.3574,-3.285,-3.3215,-3.3593,-3.3537,-3.364,-3.3552,-3.309,-3.3044,-3.2767,-3.209,-3.1643,-3.1182,-3.072,-2.9658,-2.875,-2.8073,-2.7149,-2.6226,-2.5333,-2.4425,-2.3502,0.0,0.0,0.0,0.0,0.0,0.0,0.0,0.0,0.0,0.0,0.0,0.0,0.0,0.0,0.0,0.0,0.0,0.0,0.0,0.0,0.0,0.0,0.0,0.0,0.0,-2.733,-2.855,-2.9095,-2.9642,-2.985,-2.9545,-3.0326,-3.1154,-3.1945,-3.302,-3.3975,-3.472,-3.554,-3.6101,-3.6337,-3.66,-3.7006,-3.7464,-3.7923,-3.8397,-3.8855,-3.9359,-3.9581,-3.9581,-3.9643,-3.9706,-3.9706,-3.9861,-3.9877,-3.9939,-4.0062,-3.8958,-3.7237,-3.7626,-3.7876,-3.8065,-3.8123,-3.8237,-3.8254,-3.7747,-3.7719,-3.7797,-3.7632,-3.7619,-3.772,-3.7617,-3.7648,-3.7745,-3.7696,-3.7696,-3.7698,-3.7736,-3.7703,-3.7719,-3.7884,-3.7899,-3.798,-3.8477,-3.8576,-3.8471,-3.8171,-3.792,-3.715,-3.5326,-3.5244,-3.5165,-3.4341,-3.4556,-3.4736,-3.4635,-3.4519,-3.4291,-3.3814,-3.3767,-3.3475,-3.2798,-3.2321,-3.1874,-3.1413,-3.0566,-2.9781,-2.9119,-2.8211,-2.7303,-2.638,-2.5226,-2.4317,-2.3625,0.0,0.0,0.0,0.0,0.0,0.0,0.0,0.0,0.0,0.0,0.0,0.0,0.0,0.0,0.0,0.0,0.0,0.0,0.0,0.0,0.0,0.0,0.0,-2.8146,-2.8523,-2.9242,-3.051,-3.0849,-3.0982,-3.1033,-3.2238,-3.3318,-3.4187,-3.4895,-3.566,-3.6485,-3.7164,-3.7844,-3.8523,-3.9171,-3.9518,-3.9534,-3.9534,-3.955,-3.9566,-3.9817,-3.9911,-3.9895,-4.0112,-4.0235,-4.0219,-4.0219,-4.0203,-4.0187,-4.0187,-4.0248,-4.0353,-4.02,-4.0184,-4.0365,-4.0453,-4.0631,-4.0743,-4.0294,-4.016,-3.9985,-3.8847,-3.8605,-3.8623,-3.8001,-3.7945,-3.7993,-3.7879,-3.7831,-3.7999,-3.8573,-3.8588,-3.8668,-3.9401,-3.9462,-3.9392,-3.9392,-3.9392,-3.9284,-3.8925,-3.8221,-3.7319,-3.6069,-3.5776,-3.5498,-3.5086,-3.4971,0.0,-3.4596,-3.4596,-3.458,-3.4565,-3.4506,-3.4214,-3.3506,-3.3429,-3.2859,-3.1536,-3.1428,-3.112,-3.0474,-2.9181,-2.8442,-2.8411,-2.6411,-2.5041,-2.4333,0.0,0.0,0.0,0.0,0.0,0.0,0.0,0.0,0.0,0.0,0.0,0.0,0.0,0.0,0.0,0.0,0.0,0.0,0.0,0.0,0.0,-2.8731,-2.9075,-2.8573,-3.0363,-3.1867,-3.2347,-3.3448,-3.4187,-3.4295,-3.4721,-3.5545,-3.6756,-3.7026,-3.7695,-3.8998,-3.9253,-3.9444,-3.9636,-3.9827,-4.0162,-4.0641,-4.0641,-4.0896,-4.1406,-4.1997,-4.2253,-4.2269,-4.2861,-4.2879,-4.2398,-4.2478,-4.2253,-4.1818,-4.2005,-4.2129,-4.2093,-4.0857,-4.0529,-4.0664,-4.0808,-4.0967,-4.105,-4.0951,-4.1071,-4.1189,-4.09,-4.0929,-4.111,-4.0944,-4.0981,-4.1085,-4.1034,-4.1034,-4.1032,-4.1129,-4.109,-4.1087,-4.1071,-4.1083,-4.1012,-4.0829,-4.0829,-4.0717,-4.0434,-4.0246,-3.9536,-3.785,-3.7415,-3.7186,-3.6938,-3.6747,-3.657,-3.6451,-3.6226,-3.5919,-3.5424,-3.5259,-3.4922,-3.4245,-3.4183,-3.3798,-3.2906,-3.2382,-3.1813,-3.1151,-3.032,-2.9396,-2.8427,-2.7365,-2.6226,0.0,0.0,0.0,0.0,0.0,0.0,0.0,0.0,0.0,0.0,0.0,0.0,0.0,0.0,0.0,0.0,0.0,0.0,0.0,0.0,0.0,0.0,-3.0777,-3.1302,-3.0809,-3.2147,-3.3429,-3.4175,-3.5022,-3.5824,-3.651,-3.6614,-3.7262,-3.8686,-3.8798,-3.9294,-4.0491,-4.0782,-4.1086,-4.1357,-4.1725,-4.2078,-4.2462,-4.2462,-4.267,-4.3005,-4.3488,-4.3746,-4.3762,-4.4262,-4.4297,-4.3894,-4.4058,-4.3945,-4.3541,-4.3795,-4.3921,-4.3774,0.0,0.0,0.0,0.0,-4.212,-4.2171,-4.1931,-4.2019,-4.2155,-4.1933,-4.1997,-4.2105,-4.2142,-4.225,-4.2286,-4.2286,-4.2286,-4.2286,-4.2196,-4.2142,-4.2051,-4.1887,-4.1777,-4.1666,-4.1538,-4.1481,-4.1368,-4.114,-4.1041,0.0,-3.9502,-3.875,-3.8323,-3.807,-3.7563,-3.7194,-3.715,-3.6846,-3.6569,-3.6166,-3.6029,-3.563,-3.4953,-3.4906,0.0,0.0,0.0,-3.2829,-3.1844,-3.1182,0.0,0.0,0.0,0.0,0.0,-2.7719,0.0,0.0,-2.6041,-2.6334,0.0,0.0,0.0,0.0,0.0,0.0,0.0,0.0,0.0,0.0,0.0,0.0,0.0,0.0,0.0,0.0,-3.2572,-3.3882,-3.4098,-3.411,-3.4606,-3.5854,-3.6133,-3.671,-3.8056,-3.8184,-3.8745,-4.0139,-4.0315,-4.0651,-4.134,-4.2062,0.0,0.0,0.0,-4.4388,-4.4388,-4.4388,-4.4388,-4.4388,-4.4586,-4.4685,-4.4702,-4.4982,-4.5048,-4.4983,-4.5196,-4.5212,-4.5131,-4.5308,-4.5355,-4.5224,-4.3928,-4.3403,-4.3403,-4.352,-4.3624,-4.3645,-4.3107,0.0,0.0,-4.245,-4.2358,-4.2412,-4.2503,-4.2557,-4.2557,-4.2557,-4.2557,-4.2557,-4.2557,-4.2449,-4.2358,-4.2341,-4.2138,-4.1988,-4.1932,-4.1787,-4.16,-4.1486,-4.1329,-4.1171,-4.1086,-3.9946,-3.9042,-3.8708,-3.7989,-3.7429,-3.7294,-3.7079,-3.6987,-3.6847,-3.6724,0.0,-3.5645,-3.5599,-3.5306,-3.4629,-3.4506,-3.3921,-3.2675,-3.2059,-3.1428,-3.0766,-3.0766,-3.0428,-2.975,-3.0351,-3.0381,-2.9827,-2.8396,-2.8427,0.0,0.0,0.0,0.0,0.0,0.0,0.0,0.0,0.0,0.0,0.0,0.0,0.0,0.0,0.0,-3.3947,-3.5134,-3.6149,-3.6734,-3.7394,-3.7741,-3.7495,-3.8097,-3.8904,-3.973,-3.9914,-4.0372,-4.1245,-4.1843,-4.2411,-4.3121,-4.3929,-4.4382,-4.4511,-4.4657,-4.4721,-4.4721,-4.4721,-4.4721,-4.4721,-4.5421,0.0,-4.5846,-4.6649,-4.6667,-4.611,-4.611,-4.5783,-4.5308,-4.5436,-4.5626,-4.5639,-4.525,-4.5197,-4.5222,-4.4627,-4.4533,-4.4571,-4.3931,-4.3839,-4.4018,-4.3923,-4.4002,-4.4147,-4.413,-4.4147,0.0,-4.4147,-4.4147,-4.4147,-4.4147,-4.4147,-4.4074,-4.3945,-4.3776,-4.3621,-4.3523,-4.3331,-4.3138,-4.302,-4.2824,-4.2643,-4.2492,-4.1023,-3.979,-3.9729,-3.9311,-3.9046,-3.9046,-3.8858,-3.8529,-3.7842,-3.7608,-3.7219,-3.6353,-3.6307,-3.6014,-3.5337,-3.4783,-3.4352,-3.4091,-3.3952,-3.3552,-3.2844,-3.2829,-3.249,-3.1813,-3.1951,-3.2228,-3.2582,-3.0705,-3.0258,0.0,0.0,0.0,0.0,0.0,0.0,0.0,0.0,0.0,0.0,0.0,-3.1444,-3.261,0.0,-3.4956,-3.575,-3.66,-3.7425,-3.8074,-3.8848,-3.9233,-3.8951,-3.9583,-4.0372,-4.1119,-4.1629,-4.2118,-4.2834,-4.3551,-4.4105,-4.4479,-4.518,-4.5587,-4.5587,-4.5945,-4.6124,-4.6124,-4.6124,-4.6124,-4.614,-4.6616,-4.678,-4.6796,-4.7306,-4.7273,-4.6929,-4.7046,-4.6832,-4.6503,-4.6715,-4.6908,-4.7002,-4.6955,-4.6507,-4.5889,-4.5524,-4.5496,-4.5567,-4.5319,-4.5303,-4.5404,-4.5537,-4.5612,-4.5686,-4.5686,-4.5432,-4.5145,-4.5145,-4.4874,-4.4587,-4.4587,-4.4587,-4.457,-4.444,-4.427,-4.4097,-4.3998,-4.3822,-4.3568,-4.3492,-4.3295,-4.3113,-4.3007,-4.2035,-4.1066,-4.0651,-4.0052,-3.9581,-3.9503,-3.9377,-3.9062,-3.8528,-3.8385,-3.8054,-3.7538,-3.7184,-3.6707,-3.603,-3.5353,-3.4983,-3.4983,-3.466,-3.4306,-3.3952,-3.3937,-3.3783,-3.3429,-3.3429,-3.3614,-3.3921,-3.2921,-3.2628,0.0,0.0,0.0,0.0,0.0,0.0,0.0,-3.066,-3.1459,-3.2251,-3.3068,-3.394,-3.4964,-3.5889,-3.6572,-3.691,-3.7732,-3.8504,-3.9046,-3.9884,-4.0426,-4.0426,-4.0894,-4.154,-4.2408,-4.3031,-4.367,-4.4358,-4.5095,-4.5504,-4.5504,-4.6192,-4.6602,-4.6602,-4.7175,-4.7486,-4.7486,-4.7486,-4.7486,-4.7486,-4.7537,-4.7537,-4.7537,-4.7604,-4.7604,-4.7604,-4.7721,-4.777,-4.7836,-4.7984,-4.8115,-4.8292,-4.8292,-4.7591,-4.6603,-4.6407,-4.6464,-4.6535,-4.6505,-4.6514,-4.6574,-4.6727,-4.6786,-4.6786,-4.6786,-4.638,-4.5923,-4.5923,-4.5483,-4.501,-4.501,-4.501,-4.501,-4.501,-4.4764,-4.4532,-4.4532,-4.4281,-4.4042,-4.4042,-4.3608,-4.3309,-4.3309,-4.284,-4.2188,-4.1421,-4.0672,-4.0134,-3.9914,-3.9787,-3.9612,-3.923,-3.91,-3.8908,-3.8523,-3.8,-3.7461,-3.6923,-3.6368,-3.6076,-3.6076,-3.5537,-3.526,-3.526,-3.526,-3.526,-3.526,-3.526,-3.526,-3.526,-3.526,-3.5122,-2.9939,-2.9874,-2.941,-2.9231,-2.9317,-2.9819,0.0,-3.1875,-3.2227,-3.3094,-3.4334,-3.5227,-3.5207,-3.6786,-3.8118,-3.8011,-3.9185,-4.0166,-4.0178,-4.1368,-4.2212,-4.2212,-4.2078,-4.249,-4.3834,-4.403,-4.439,-4.5111,-4.5848,-4.6258,-4.6258,-4.6962,-4.7355,-4.7355,-4.7437,-4.7486,-4.7486,-4.7486,-4.7486,-4.7486,-4.7588,-4.7704,-4.7704,-4.7853,-4.7935,-4.7935,-4.7935,-4.8049,-4.8163,-4.8163,-4.8292,-4.8483,-4.8483,-4.8463,-4.8387,-4.7529,-4.734,-4.7345,-4.6733,-4.665,-4.6786,-4.6786,-4.6786,-4.6786,-4.6786,-4.6735,-4.6667,-4.6667,-4.6616,-4.6532,-4.6532,-4.6532,-4.6532,-4.6532,-4.6296,-4.6039,-4.6039,-4.5796,-4.5549,-4.5549,-4.4772,-4.4079,-4.4079,-4.3228,-4.2476,-4.2078,-4.1821,-4.1595,-4.1367,-4.1351,-4.0999,-4.0091,-3.9963,-3.9582,-3.8554,-3.8431,-3.8369,-3.8292,-3.8215,-3.8169,-3.8169,-3.8092,-3.8061,-3.8061,-3.8061,-3.8061,-3.8061,-3.8061,-3.8061,-3.8061,-3.8061,-3.7415,-3.131,-3.1329,-3.103,-3.1687,-3.2011,-3.2484,-3.3667,-3.4007,-3.4341,-3.5216,-3.5785,-3.6384,-3.7129,-3.7953,-3.8772,-3.9587,-4.0238,-4.0938,-4.1788,-4.2422,-4.3122,-4.3973,-4.3955,-4.4085,-4.4438,-4.528,-4.5906,-4.622,-4.6929,-4.7342,-4.7342,-4.7638,-4.7803,-4.7803,-4.8232,-4.8447,-4.8447,-4.8876,-4.909,-4.909,-4.9141,-4.9141,-4.9125,-4.8779,-4.8464,-4.8115,-4.8244,-4.8292,-4.8356,-4.8356,-4.8483,-4.869,-4.869,-4.8753,-4.8861,-4.8354,-4.8298,-4.8354,-4.8051,-4.801,-4.8088,-4.8088,-4.8088,-4.8088,-4.8088,-4.7784,-4.7445,-4.7445,-4.7124,-4.6786,-4.6786,-4.6786,-4.6786,-4.6786,-4.6531,-4.629,-4.629,-4.6046,-4.5798,-4.5798,-4.5283,-4.4833,-4.4833,-4.4333,-4.3751,-4.3407,-4.2588,-4.1931,-4.1654,-4.1588,-4.1362,-4.0778,-4.0463,-3.9982,-3.9154,-3.9093,-3.8923,-3.8539,-3.8508,-3.8508,-3.8508,-3.8508,-3.8508,-3.8508,-3.8508,-3.8508,-3.8508,-3.8508,-3.8508,-3.8508,-3.8508,-3.8415,-3.2222,-3.2474,-3.2685,-3.3482,-3.3789,-3.4172,-3.5078,-3.5551,-3.5946,-3.6671,-3.7047,-3.7576,-3.8622,-3.8875,-3.936,-4.0581,-4.0966,-4.1536,-4.2808,-4.3327,-4.398,-4.5051,-4.5537,-4.5728,-4.5485,-4.6387,-4.7101,-4.7301,-4.7816,-4.8115,-4.8049,-4.8249,-4.8365,-4.8299,-4.9028,-4.9409,-4.9459,-4.999,-5.0255,-5.0323,-5.0323,-5.0323,-5.0307,-4.9759,-4.9294,-4.8892,-4.8821,-4.8849,-4.8849,-4.8647,-4.869,-4.8832,-4.8832,-4.8894,-4.9001,-4.8894,-4.8894,-4.9001,-4.9001,-4.9001,-4.9001,-4.9001,-4.9001,-4.9001,-4.9001,-4.8646,-4.8223,-4.8223,-4.7817,-4.7411,-4.7411,-4.7411,-4.7411,-4.7411,-4.7154,-4.6893,-4.6893,-4.6645,-4.6411,-4.6411,-4.5975,-4.5586,-4.5586,-4.518,-4.4639,-4.4221,-4.3341,-4.2491,-4.1987,-4.1664,-4.1355,-4.1117,-4.0746,-4.0324,-3.9831,-3.9801,-3.9585,-3.9093,-3.9062,-3.9062,-3.9062,-3.9062,-3.9062,-3.9062,-3.9062,-3.9062,-3.9062,-3.9062,-3.9062,-3.9062,-3.9062,-3.9431,-3.3274,-3.374,-3.4634,-3.3955,-3.3789,-3.408,-3.5078,-3.5844,-3.6441,-3.6726,-3.7922,-3.8888,-3.8807,-3.9396,-4.0068,-4.0718,-4.1402,-4.2138,-4.2875,-4.4214,-4.5118,-4.5169,-4.6458,-4.7345,-4.7345,-4.7378,-4.7697,-4.84,-4.8467,-4.842,-4.8227,-4.8877,-4.921,-4.9077,-4.979,-5.0222,-5.0376,-5.0392,-5.0476,-5.0677,-5.0677,-5.0677,-5.0677,-5.0643,-5.0626,-5.0559,-4.9856,-4.9653,-4.9813,-4.9089,-4.8894,-4.9001,-4.9001,-4.9001,-4.9001,-4.9001,-4.9001,-4.9001,-4.9001,-4.9001,-4.9001,-4.9001,-4.9001,-4.9001,-4.9001,-4.8984,-4.8968,-4.8968,-4.8951,-4.8934,-4.8934,-4.8934,-4.8934,-4.8934,-4.8685,-4.8416,-4.8416,-4.8177,-4.7934,-4.7934,-4.7095,-4.6356,-4.6356,-4.5522,-4.4639,-4.4221,-4.4189,-4.3783,-4.2794,-4.1727,-4.1117,-4.1117,-4.0746,-4.0524,-4.0493,-4.0493,-4.0493,-4.0462,-4.0462,-4.0462,-4.0462,-4.0462,-4.0462,-4.0462,-4.0462,-4.0462,-4.0462,-4.0462,-4.0462,-4.0462,-4.0462,-4.0847,-3.4185,-3.4561,-3.4833,-3.4584,-3.4518,-3.4695,-3.5195,-3.5844,-3.6609,-3.7368,-3.8311,-3.914,-3.9581,-4.029,-4.0965,-4.1707,-4.2395,-4.3322,-4.4586,-4.5192,-4.5866,-4.6861,-4.7417,-4.7905,-4.8394,-4.8258,-4.8216,-4.8467,-4.8483,-4.8701,-4.9139,-4.9389,-4.9675,-5.0176,-5.0843,-5.1295,-5.1346,-5.1831,-5.2081,-5.215,-5.215,-5.1899,-5.1413,-5.1564,-5.1379,-5.0892,-5.0753,-5.0716,-5.0683,-4.9987,-4.9666,-4.9678,-4.9187,-4.9001,-4.9001,-4.9001,-4.9001,-4.9001,-4.9001,-4.9001,-4.9001,-4.9001,-4.9001,-4.9001,-4.9001,-4.9001,-4.9001,-4.9001,-4.9001,-4.9001,-4.9001,-4.9001,-4.9001,-4.9001,-4.8736,-4.8483,-4.8483,-4.8244,-4.8001,-4.8001,-4.7539,-4.711,-4.711,-4.6629,-4.5882,-4.5074,-4.4336,-4.3765,-4.3406,-4.2808,-4.2443,-4.2443,-4.2107,-4.1909,-4.1909,-4.1909,-4.1909,-4.1909,-4.1909,-4.1909,-4.1909,-4.1909,-4.1909,-4.1909,-4.1909,-4.1909,-4.1909,-4.1909,-4.1909,-4.1909,-4.1909,-4.2048,-3.4756,-3.4923,-3.4899,-3.4899,-3.4899,-3.4994,-3.5245,-3.6061,-3.7011,-3.7756,-3.87,-3.9529,-3.9986,-4.0476,-4.1119,-4.2134,-4.2929,-4.3961,-4.5483,-4.616,-4.6853,-4.78,-4.8156,-4.8494,-4.8951,-4.8815,-4.8673,-4.8673,-4.8908,-4.9278,-4.9653,-5.0173,-5.0676,-5.1062,-5.1798,-5.2252,-5.232,-5.2806,-5.3041,-5.3127,-5.3127,-5.2875,-5.2404,-5.2556,-5.2303,-5.1898,-5.1659,-5.1606,-5.1555,-5.0794,-5.0338,-5.0033,-4.9576,-4.9238,-4.9001,-4.9001,-4.9001,-4.9001,-4.9001,-4.9001,-4.9001,-4.9001,-4.9001,-4.9001,-4.9001,-4.9001,-4.9001,-4.9001,-4.9001,-4.9001,-4.9001,-4.9001,-4.9001,-4.9001,-4.8736,-4.8483,-4.8483,-4.8244,-4.8001,-4.8001,-4.7737,-4.7486,-4.7486,-4.7046,-4.6454,-4.5725,-4.496,-4.429,-4.3785,-4.3341,-4.3114,-4.3114,-4.2788,-4.2602,-4.2602,-4.2602,-4.2602,-4.2602,-4.2602,-4.2602,-4.2602,-4.2602,-4.2602,-4.2602,-4.2602,-4.2602,-4.2602,-4.2602,-4.2602,-4.2602,-4.2602,-4.274,-3.4904,-3.4899,-3.4899,-3.4899,-3.4899,-3.4994,-3.5245,-3.6396,-3.7549,-3.7858,-3.9005,-3.9969,-4.002,-4.0054,-4.0544,-4.1999,-4.2895,-4.3961,-4.5483,-4.6955,-4.7868,-4.7919,-4.8562,-4.9001,-4.9001,-4.9001,-4.9018,-4.9052,-4.9695,-5.0088,-5.0015,-5.1344,-5.2034,-5.1916,-5.2535,-5.3041,-5.3179,-5.3195,-5.3332,-5.3501,-5.3501,-5.3501,-5.3501,-5.3501,-5.3501,-5.3467,-5.2689,-5.2367,-5.23,-5.1572,-5.0845,-5.0202,-5.0152,-4.9712,-4.9069,-4.9069,-4.9035,-4.9001,-4.9001,-4.9001,-4.9001,-4.9001,-4.9001,-4.9001,-4.9001,-4.9001,-4.9001,-4.9001,-4.9001,-4.9001,-4.9001,-4.9001,-4.9001,-4.9001,-4.8736,-4.8483,-4.8483,-4.8244,-4.8001,-4.8001,-4.7737,-4.747,-4.747,-4.6839,-4.6262,-4.6262,-4.6008,-4.5333,-4.4006,-4.3451,-4.3223,-4.3223,-4.2896,-4.2709,-4.2709,-4.2709,-4.2709,-4.2709,-4.2709,-4.2709,-4.2709,-4.2709,-4.2709,-4.2709,-4.2709,-4.2709,-4.2709,-4.2709,-4.2709,-4.2709,-4.2709,-4.3033,-3.4592,-3.4835,-3.4899,-3.4899,-3.4899,-3.4994,-3.5245,-3.5994,-3.6911,-3.7739,-3.821,-3.8633,-3.9174,-3.9715,-4.0392,-4.1322,-4.2574,-4.3961,-4.5483,-4.6498,-4.7293,-4.7851,-4.8562,-4.9001,-4.9001,-4.9001,-4.9221,-4.9779,-4.9982,-5.0574,-5.1626,-5.2048,-5.2521,-5.3045,-5.3264,-5.3348,-5.3416,-5.3416,-5.3433,-5.3501,-5.3501,-5.3501,-5.3501,-5.3501,-5.3501,-5.3501,-5.3281,-5.3196,-5.3129,-5.235,-5.1911,-5.1674,-5.1133,-5.0473,-4.9813,-4.9813,-4.9475,-4.9001,-4.9001,-4.9001,-4.9001,-4.9001,-4.9001,-4.9001,-4.9001,-4.9001,-4.9001,-4.9001,-4.9001,-4.9001,-4.9001,-4.9001,-4.9001,-4.9001,-4.8736,-4.8483,-4.8483,-4.8244,-4.8001,-4.8001,-4.7737,-4.7403,-4.7098,-4.6615,-4.6262,-4.6262,-4.6008,-4.5681,-4.5317,-4.4909,-4.4674,-4.4674,-4.4304,-4.4079,-4.4079,-4.4079,-4.4079,-4.4079,-4.4079,-4.4079,-4.4079,-4.4079,-4.4079,-4.4079,-4.4079,-4.4079,-4.4079,-4.4079,-4.4079,-4.4079,-4.4079,-4.4156,-3.4592,-3.4804,-3.4899,-3.4899,-3.4899,-3.4994,-3.5245,-3.5844,-3.6491,-3.6797,-3.7401,-3.7821,-3.752,-3.865,-3.9732,-4.0172,-4.2033,-4.3842,-4.5043,-4.6126,-4.7073,-4.7834,-4.8291,-4.8646,-4.8968,-4.9001,-4.9441,-5.0507,-5.0591,-5.1099,-5.2232,-5.2638,-5.3044,-5.3501,-5.3501,-5.3501,-5.3501,-5.3501,-5.3501,-5.3501,-5.3501,-5.3501,-5.3501,-5.3501,-5.3501,-5.3501,-5.3501,-5.3501,-5.3467,-5.301,-5.2621,-5.2266,-5.1843,-5.1234,-5.0541,-5.0219,-4.983,-4.9441,-4.912,-4.9001,-4.9001,-4.9001,-4.9001,-4.9001,-4.9001,-4.9001,-4.9001,-4.9001,-4.9001,-4.9001,-4.9001,-4.9001,-4.9001,-4.9001,-4.8736,-4.8483,-4.8483,-4.8244,-4.7935,-4.7803,-4.7604,-4.7403,-4.6961,-4.6545,-4.6262,-4.6262,-4.6008,-4.5807,-4.5807,-4.5442,-4.522,-4.522,-4.4814,-4.4572,-4.4572,-4.4572,-4.4572,-4.4572,-4.4572,-4.4572,-4.4572,-4.4572,-4.4572,-4.4572,-4.4572,-4.4572,-4.4572,-4.4572,-4.4572,-4.4572,-4.4572,-4.4572,-3.4691,-3.4787,-3.4899,-3.4899,-3.4899,-3.4947,-3.5198,-3.571,-3.5974,-3.5576,-3.6443,-3.6928,-3.5751,-3.7266,-3.8768,-3.8954,-4.1322,-4.3436,-4.4316,-4.5618,-4.6819,-4.7665,-4.7851,-4.8206,-4.8934,-4.9001,-4.961,-5.1099,-5.1217,-5.1589,-5.2418,-5.3129,-5.3501,-5.3501,-5.3501,-5.3501,-5.3501,-5.3501,-5.3501,-5.3501,-5.3501,-5.3501,-5.3501,-5.3501,-5.3501,-5.3501,-5.3501,-5.3501,-5.3501,-5.3501,-5.3095,-5.2469,-5.2469,-5.2012,-5.1285,-5.0625,-5.0321,-5.0135,-4.9407,-4.9154,-4.9137,-4.9035,-4.9001,-4.9001,-4.9001,-4.9001,-4.9001,-4.9001,-4.9001,-4.9001,-4.9001,-4.9001,-4.9001,-4.9001,-4.8736,-4.8483,-4.8483,-4.8244,-4.7869,-4.7554,-4.7486,-4.7403,-4.6961,-4.6545,-4.6262,-4.6262,-4.6008,-4.5807,-4.5807,-4.5442,-4.522,-4.522,-4.4814,-4.4572,-4.4572,-4.4572,-4.4572,-4.4572,-4.4572,-4.4572,-4.4572,-4.4572,-4.4572,-4.4572,-4.4572,-4.4572,-4.4572,-4.4572,-4.4572,-4.4572,-4.4572,-4.4572,-3.4546,-3.4691,-3.4899,-3.4899,-3.4899,-3.4947,-3.5088,-3.4831,-3.4784,-3.5391,-3.479,-3.4489,-3.5408,-3.6468,-3.7567,-3.8785,-4.046,-4.2066,-4.3436,-4.4401,-4.5466,-4.6819,-4.753,-4.8206,-4.8934,-4.9001,-4.961,-5.1099,-5.1217,-5.1826,-5.323,-5.3433,-5.3501,-5.3501,-5.3501,-5.3501,-5.3501,-5.3501,-5.3501,-5.3501,-5.3501,-5.3501,-5.3501,-5.3501,-5.3501,-5.3501,-5.3501,-5.3501,-5.3501,-5.3501,-5.3416,-5.3298,-5.3298,-5.2807,-5.2097,-5.1961,-5.1539,-5.0913,-5.0168,-4.9898,-4.9796,-4.9204,-4.9001,-4.9001,-4.9001,-4.9001,-4.9001,-4.9001,-4.9001,-4.9001,-4.9001,-4.9001,-4.9001,-4.9001,-4.8736,-4.8483,-4.8483,-4.8244,-4.7869,-4.7554,-4.7486,-4.7403,-4.6961,-4.6545,-4.6262,-4.6262,-4.6008,-4.5807,-4.5807,-4.5442,-4.522,-4.522,-4.4814,-4.4572,-4.4572,-4.4572,-4.4572,-4.4572,-4.4572,-4.4572,-4.4572,-4.4572,-4.4572,-4.4572,-4.4572,-4.4572,-4.4572,-4.4572,-4.4572,-4.4572,-4.4572,-4.4572,-3.4497,-3.4707,-3.4899,-3.4899,-3.4899,-3.4947,-3.5152,-3.4693,-3.422,-3.4303,-3.3845,-3.3347,-3.3237,-3.4834,-3.6417,-3.7127,-3.9157,-4.1153,-4.2625,-4.3487,-4.4536,-4.6041,-4.6887,-4.7631,-4.8376,-4.8781,-4.961,-5.1099,-5.1217,-5.1877,-5.3416,-5.3501,-5.3501,-5.3501,-5.3501,-5.3501,-5.3501,-5.3501,-5.3501,-5.3501,-5.3501,-5.3501,-5.3501,-5.3501,-5.3501,-5.3501,-5.3501,-5.3501,-5.3501,-5.3501,-5.3501,-5.3501,-5.3501,-5.3264,-5.2875,-5.2452,-5.208,-5.1674,-5.093,-5.0422,-5.0033,-4.9678,-4.9306,-4.9001,-4.9001,-4.9001,-4.9001,-4.9001,-4.9001,-4.9001,-4.9001,-4.9001,-4.9001,-4.9001,-4.8736,-4.842,-4.8308,-4.8115,-4.7869,-4.7554,-4.7486,-4.7403,-4.6961,-4.6545,-4.6262,-4.6262,-4.6008,-4.5807,-4.5807,-4.5442,-4.522,-4.522,-4.4814,-4.4572,-4.4572,-4.4572,-4.4572,-4.4572,-4.4572,-4.4572,-4.4572,-4.4572,-4.4572,-4.4572,-4.4572,-4.4572,-4.4572,-4.4572,-4.4572,-4.4572,-4.4572,-4.4572,-3.4546,-3.4691,-3.4835,-3.4899,-3.4899,-3.4994,-3.5198,-3.4605,-3.3845,-3.3405,-3.3086,-3.2587,-3.1476,-3.3372,-3.5301,-3.5791,-3.8125,-4.0392,-4.1863,-4.2844,-4.3927,-4.5297,-4.6244,-4.709,-4.7851,-4.8578,-4.961,-5.1099,-5.1522,-5.2232,-5.345,-5.3501,-5.3501,-5.3501,-5.3501,-5.3501,-5.3501,-5.3501,-5.3501,-5.3501,-5.3501,-5.3501,-5.3501,-5.3501,-5.3501,-5.3501,-5.3501,-5.3501,-5.3501,-5.3501,-5.3501,-5.3501,-5.3501,-5.3501,-5.3433,-5.279,-5.2553,-5.2452,-5.1708,-5.1065,-5.0541,-5.0388,-4.9729,-4.9001,-4.9001,-4.9001,-4.9001,-4.9001,-4.9001,-4.9001,-4.9001,-4.9001,-4.9001,-4.894,-4.8673,-4.842,-4.8066,-4.8001,-4.7869,-4.7554,-4.7486,-4.7403,-4.6961,-4.6545,-4.6262,-4.6262,-4.6008,-4.5807,-4.5807,-4.5442,-4.522,-4.522,-4.4814,-4.4572,-4.4572,-4.4572,-4.4572,-4.4572,-4.4572,-4.4572,-4.4572,-4.4572,-4.4572,-4.4572,-4.4572,-4.4572,-4.4572,-4.4572,-4.4649,-4.4787,-4.4787,-4.4864,-3.4677,-3.4594,-3.4756,-3.4851,-3.4994,-3.5105,-3.5088,-3.4186,-3.3261,-3.3237,-3.2259,-3.1562,-3.2087,-3.2966,-3.4286,-3.6332,-3.8041,-3.9614,-4.1085,-4.2523,-4.3724,-4.4587,-4.5923,-4.709,-4.7851,-4.8578,-4.961,-5.1099,-5.2503,-5.3365,-5.3501,-5.3501,-5.3501,-5.3501,-5.3501,-5.3501,-5.3501,-5.3501,-5.3501,-5.3501,-5.3501,-5.3501,-5.3501,-5.3501,-5.3501,-5.3501,-5.3501,-5.3501,-5.3501,-5.3501,-5.3501,-5.3501,-5.3501,-5.3501,-5.3501,-5.3416,-5.3399,-5.3281,-5.2486,-5.2147,-5.1995,-5.1336,-5.0168,-4.9001,-4.9001,-4.9001,-4.9001,-4.9001,-4.9001,-4.9001,-4.9001,-4.9001,-4.894,-4.861,-4.8547,-4.842,-4.8066,-4.8001,-4.7869,-4.7554,-4.7486,-4.7403,-4.6961,-4.6545,-4.6262,-4.6262,-4.6008,-4.5807,-4.5807,-4.5442,-4.522,-4.522,-4.4814,-4.4572,-4.4572,-4.4572,-4.4572,-4.4572,-4.4572,-4.4572,-4.4572,-4.4572,-4.4572,-4.4572,-4.4572,-4.4572,-4.4572,-4.4572,-4.4895,-4.5495,-4.5495,-4.5818,-3.453,-3.4643,-3.4851,-3.4994,-3.5421,-3.5668,-3.5392,-3.4561,-3.3741,-3.3406,-3.2181,-3.1275,-3.1562,-3.2222,-3.3457,-3.5723,-3.6975,-3.8497,-4.0865,-4.21,-4.3014,-4.3792,-4.5602,-4.6904,-4.7208,-4.8308,-4.961,-5.1099,-5.2638,-5.3501,-5.3501,-5.3501,-5.3501,-5.3501,-5.3501,-5.3501,-5.3501,-5.3501,-5.3501,-5.3501,-5.3501,-5.3501,-5.3501,-5.3501,-5.3501,-5.3501,-5.3501,-5.3501,-5.3501,-5.3501,-5.3501,-5.3501,-5.3501,-5.3501,-5.3501,-5.3501,-5.3501,-5.345,-5.3129,-5.2706,-5.2249,-5.1961,-5.1166,-5.0253,-4.9796,-4.9357,-4.9001,-4.9001,-4.9001,-4.9001,-4.9001,-4.9001,-4.894,-4.8753,-4.8564,-4.842,-4.8179,-4.8066,-4.7869,-4.7554,-4.7486,-4.7403,-4.6961,-4.6545,-4.6262,-4.6262,-4.6008,-4.5807,-4.5807,-4.5442,-4.522,-4.522,-4.4814,-4.4572,-4.4572,-4.4572,-4.4572,-4.4572,-4.4572,-4.4572,-4.4572,-4.4572,-4.4572,-4.4572,-4.4987,-4.5187,-4.5187,-4.5603,-4.5926,-4.6188,-4.6188,-4.6342,-3.4759,-3.4856,-3.4851,-3.5041,-3.5685,-3.6064,-3.5311,-3.4745,-3.4199,-3.3516,-3.2391,-3.1512,-3.1512,-3.2121,-3.3203,-3.4996,-3.6315,-3.799,-4.0527,-4.1897,-4.2828,-4.3352,-4.5415,-4.6786,-4.6786,-4.8528,-5.0084,-5.1133,-5.2638,-5.3501,-5.3501,-5.3501,-5.3501,-5.3501,-5.3501,-5.3501,-5.3501,-5.3501,-5.3501,-5.3501,-5.3501,-5.3501,-5.3501,-5.3501,-5.3501,-5.3501,-5.3501,-5.3501,-5.3501,-5.3501,-5.3501,-5.3501,-5.3501,-5.3501,-5.3501,-5.3501,-5.3501,-5.3501,-5.3501,-5.3129,-5.2655,-5.2655,-5.2147,-5.1437,-5.0913,-5.0084,-4.9272,-4.9069,-4.9001,-4.9001,-4.9001,-4.9001,-4.8956,-4.8832,-4.8627,-4.842,-4.8227,-4.8115,-4.7869,-4.7554,-4.7486,-4.7403,-4.6961,-4.6545,-4.6262,-4.6262,-4.6008,-4.5807,-4.5807,-4.5515,-4.5294,-4.522,-4.4889,-4.4648,-4.4572,-4.4572,-4.4572,-4.4572,-4.4572,-4.4572,-4.4572,-4.4572,-4.4664,-4.4864,-4.5341,-4.5695,-4.5895,-4.6372,-4.6696,-4.6896,-4.6896,-4.7004,-3.5597,-3.5283,-3.4594,-3.4994,-3.5733,-3.6025,-3.4606,-3.4401,-3.4286,-3.3558,-3.2797,-3.2313,-3.2313,-3.2882,-3.3643,-3.4387,-3.6417,-3.8413,-3.9918,-4.2016,-4.3403,-4.342,-4.5415,-4.6786,-4.6786,-4.9458,-5.12,-5.1217,-5.2638,-5.3501,-5.3501,-5.3501,-5.3501,-5.3501,-5.3501,-5.3501,-5.3501,-5.3501,-5.3501,-5.3501,-5.3501,-5.3501,-5.3501,-5.3501,-5.3501,-5.3501,-5.3501,-5.3501,-5.3501,-5.3501,-5.3501,-5.3501,-5.3501,-5.3501,-5.3501,-5.3501,-5.3501,-5.3501,-5.3501,-5.3501,-5.3501,-5.3501,-5.2942,-5.2283,-5.2283,-5.1251,-4.9932,-4.9204,-4.9001,-4.9001,-4.9001,-4.9001,-4.8956,-4.8832,-4.8627,-4.842,-4.8227,-4.8115,-4.7869,-4.7554,-4.7486,-4.7403,-4.6961,-4.6545,-4.6262,-4.6262,-4.6008,-4.5807,-4.5807,-4.5589,-4.5442,-4.522,-4.5039,-4.4799,-4.4663,-4.4572,-4.4572,-4.4572,-4.4572,-4.4572,-4.4572,-4.4572,-4.4895,-4.5572,-4.5588,-4.5911,-4.6588,-4.6603,-4.6942,-4.7588,-4.7588,-4.7958,-3.2902,-3.3939,-3.4745,-3.3607,-3.4551,-3.5441,-3.4013,-3.409,-3.4286,-3.3558,-3.2797,-3.2442,-3.2949,-3.3237,-3.432,-3.711,-3.8176,-3.9529,-4.2033,-4.3436,-4.4215,-4.4215,-4.6194,-4.7953,-4.8951,-5.0371,-5.142,-5.1911,-5.2909,-5.3501,-5.3501,-5.3501,-5.3501,-5.3501,-5.3501,-5.3501,-5.3501,-5.3501,-5.3501,-5.3501,-5.3501,-5.3501,-5.3501,-5.3501,-5.3501,-5.3501,-5.3501,-5.3501,-5.3501,-5.3501,-5.3501,-5.3501,-5.3501,-5.3501,-5.3501,-5.3501,-5.3501,-5.3501,-5.3501,-5.3501,-5.3501,-5.3501,-5.3331,-5.3027,-5.2469,-5.1268,-4.9949,-4.9204,-4.9001,-4.9001,-4.9001,-4.9001,-4.9001,-4.8956,-4.8673,-4.8483,-4.842,-4.8179,-4.7869,-4.7554,-4.7486,-4.7403,-4.6961,-4.6545,-4.6262,-4.6262,-4.6008,-4.5807,-4.5807,-4.5589,-4.5442,-4.522,-4.5039,-4.4799,-4.4663,-4.4572,-4.4572,-4.4572,-4.4572,-4.4787,-4.5249,-4.5264,-4.5588,-4.6265,-4.6726,-4.7065,-4.7281,-4.7742,-4.8081,-4.8296,-4.8296,-4.8419,-3.1724,-3.2816,-3.359,-3.2498,-3.3512,-3.4409,-3.3067,-3.3414,-3.388,-3.3136,-3.2831,-3.2848,-3.3322,-3.3863,-3.4912,-3.6958,-3.8244,-3.9732,-4.1863,-4.3555,-4.4891,-4.5737,-4.731,-4.8798,-4.9965,-5.1014,-5.1809,-5.2266,-5.3044,-5.3501,-5.3501,-5.3501,-5.3501,-5.3501,-5.3501,-5.3501,-5.3501,-5.3501,-5.3501,-5.3501,-5.3501,-5.3501,-5.3501,-5.3501,-5.3501,-5.3501,-5.3501,-5.3501,0.0,-5.3501,-5.3501,-5.3501,-5.3501,-5.3501,-5.3501,-5.3501,-5.3501,-5.3501,-5.3501,-5.3501,-5.3501,-5.3501,-5.3501,-5.3348,-5.2536,-5.1268,-4.9999,-4.9543,-4.9221,-4.9001,-4.9001,-4.9001,-4.9001,-4.9001,-4.8736,-4.8483,-4.8483,-4.8244,-4.7935,-4.7654,-4.7537,-4.7403,-4.7098,-4.6615,-4.6262,-4.6262,-4.6008,-4.5807,-4.5807,-4.5662,-4.5515,-4.522,-4.5055,-4.4889,-4.4648,-4.4572,-4.4572,-4.4572,-4.4818,-4.5141,-4.5572,-4.5834,-4.628,-4.6957,-4.7388,-4.7727,-4.7989,-4.8419,-4.862,-4.862,-4.862,-4.862,0.0,-3.1718,-3.139,-3.1532,-3.2537,-3.3135,-3.1862,-3.2471,0.0,-3.2425,-3.2882,-3.3457,-3.3609,-3.4726,-3.5504,-3.5098,-3.7347,-3.9462,-4.0341,-4.3031,-4.5669,-4.775,-4.8697,-4.9458,-5.0168,-5.1488,-5.2317,-5.2384,-5.3078,-5.3501,-5.3501,-5.3501,-5.3501,-5.3501,-5.3501,-5.3501,-5.3501,-5.3501,-5.3501,-5.3501,-5.3501,-5.3501,-5.3501,-5.3501,-5.3501,-5.3501,-5.3501,-5.3501,-5.3501,-5.3501,-5.3501,-5.3501,-5.3501,-5.3501,-5.3501,-5.3501,-5.3501,-5.3501,-5.3501,-5.3501,-5.3501,-5.3501,-5.3501,-5.3365,-5.2604,-5.1352,-5.0152,-5.0101,-4.956,-4.9001,-4.9001,-4.9001,-4.9001,-4.9001,-4.8736,-4.8483,-4.8483,-4.8244,-4.7935,-4.7704,-4.7588,-4.7403,-4.7251,-4.6684,-4.6333,-4.6262,-4.6008,-4.5807,-4.5807,-4.5807,-4.5662,-4.522,-4.522,-4.5055,-4.4648,-4.4572,-4.4603,-4.4649,-4.5234,-4.5634,-4.5726,-4.6326,-4.6988,-4.7665,-4.7681,-4.7989,-4.862,-4.862,-4.862,-4.862,-4.862,-4.862,-2.7672,0.0,-3.0846,-2.9761,-3.0778,-3.1938,0.0,-3.1938,-3.2493,-3.2364,-3.2882,-3.3931,-3.5673,-3.5791,-3.6688,-3.9935,-4.0595,-4.1542,-4.4028,-4.6447,-4.8156,-4.868,-4.9898,-5.098,-5.1708,-5.2097,-5.2553,-5.3179,-5.3399,-5.3501,-5.3501,-5.3501,-5.3501,-5.3501,-5.3501,-5.3501,-5.3501,-5.3501,-5.3501,-5.3501,-5.3501,-5.3501,-5.3501,-5.3501,-5.3501,-5.3501,-5.3501,-5.3501,-5.3501,-5.3501,-5.3501,-5.3501,-5.3501,-5.3501,-5.3501,-5.3501,-5.3501,-5.3501,-5.3501,-5.3501,-5.3501,-5.3501,-5.3501,-5.3467,-5.3281,-5.2164,-5.0828,-5.0253,-4.956,-4.9001,-4.9001,-4.9001,-4.9001,-4.9001,-4.8736,-4.8483,-4.8483,-4.8244,-4.7935,-4.7704,-4.7588,-4.7403,-4.7251,-4.6823,-4.6458,-4.6333,-4.6152,-4.5952,-4.5807,-4.5807,-4.5662,-4.522,-4.522,-4.5055,-4.4648,-4.4572,-4.4803,-4.5311,-4.5495,-4.6049,-4.7096,-4.7281,-4.7681,-4.8358,-4.8373,-4.845,-4.862,-4.862,-4.862,-4.862,-4.862,-4.862,-2.5774,-2.8164,-3.0532,-2.9935,-3.092,-3.2054,-3.1926,-3.1847,-3.1782,-3.1782,-3.2645,-3.388,-3.5436,-3.596,-3.7178,-4.0273,-4.1018,-4.2506,-4.6194,-4.8037,-4.9255,-4.9932,-5.1014,-5.186,-5.2266,-5.2638,-5.3044,-5.3467,-5.3501,-5.3501,-5.3501,-5.3501,-5.3501,-5.3501,-5.3501,-5.3501,-5.3501,-5.3501,-5.3501,-5.3501,-5.3501,-5.3501,-5.3501,-5.3501,-5.3501,-5.3501,-5.3501,-5.3501,-5.3501,-5.3501,-5.3501,-5.3501,-5.3501,-5.3501,-5.3501,-5.3501,-5.3501,-5.3501,-5.3501,-5.3501,-5.3501,-5.3501,-5.3501,-5.3501,-5.3501,-5.2435,-5.1133,-5.0727,-4.983,-4.9001,-4.9001,-4.9001,-4.9001,-4.9001,-4.8736,-4.8483,-4.8483,-4.8244,-4.8001,-4.7853,-4.7654,-4.7486,-4.7335,-4.6961,-4.6528,-4.6333,-4.6152,-4.604,-4.5823,-4.5807,-4.5662,-4.522,-4.522,-4.5179,-4.5095,-4.5049,-4.5187,-4.5572,-4.6172,-4.6834,-4.7573,-4.7912,-4.8235,-4.8604,-4.862,-4.862,-4.862,-4.862,-4.862,-4.862,-4.862,-4.862,-2.5559,-2.7987,-3.0537,-3.053,-3.1632,-3.2702,-3.2646,-3.1976,-3.1393,-3.1512,-3.2713,-3.3998,-3.4861,-3.6265,-3.7804,-3.9411,-4.1018,-4.347,-4.7513,-4.8815,-4.9847,-5.1217,-5.2046,-5.2486,-5.2486,-5.3112,-5.3501,-5.3501,-5.3501,-5.3501,-5.3501,-5.3501,-5.3501,-5.3501,-5.3501,-5.3501,-5.3501,-5.3501,-5.3501,-5.3501,-5.3501,-5.3501,-5.3501,-5.3501,-5.3501,-5.3501,-5.3501,-5.3501,-5.3501,-5.3501,-5.3501,-5.3501,-5.3501,-5.3501,-5.3501,-5.3501,-5.3501,-5.3501,-5.3501,-5.3501,-5.3501,-5.3501,-5.3501,-5.3501,-5.3501,-5.2435,-5.1217,-5.1217,-5.0152,-4.9001,-4.9001,-4.9001,-4.9001,-4.9001,-4.8736,-4.8483,-4.8483,-4.8244,-4.8001,-4.8001,-4.782,-4.7634,-4.7634,-4.7273,-4.692,-4.6653,-4.6446,-4.6183,-4.5965,-4.5871,-4.5709,-4.536,-4.536,-4.549,-4.5758,-4.5834,-4.5895,-4.5895,-4.6973,-4.765,-4.7758,-4.8312,-4.862,-4.862,-4.862,-4.862,-4.862,-4.862,-4.862,-4.862,-4.862,-4.862,-2.8194,-3.0129,-3.1064,-2.9244,-3.0758,-3.2657,-3.2412,-3.2232,-3.229,-3.2933,-3.4252,-3.5707,-3.7127,-3.8599,-4.029,-4.2388,-4.4536,-4.6616,-4.8562,-5.0016,-5.12,-5.2029,-5.2841,-5.3315,-5.3315,-5.3433,-5.3501,-5.3501,-5.3501,-5.3501,-5.3501,-5.3501,-5.3501,-5.3501,-5.3501,-5.3501,-5.3501,-5.3501,-5.3501,-5.3501,-5.3501,-5.3501,-5.3501,-5.3501,-5.3501,-5.3501,-5.3501,-5.3501,-5.3501,-5.3501,-5.3501,-5.3501,-5.3501,-5.3501,-5.3501,-5.3501,-5.3501,-5.3501,-5.3501,-5.3501,-5.3501,-5.3501,-5.3501,-5.3501,-5.3501,-5.2435,-5.1217,-5.1217,-5.0152,-4.9001,-4.9001,-4.9001,-4.9001,-4.9001,-4.8736,-4.8483,-4.8483,-4.8244,-4.8001,-4.8001,-4.8215,-4.8338,-4.8338,-4.8497,-4.8546,-4.8214,-4.7629,-4.71,-4.6719,-4.6155,-4.5882,-4.6059,-4.6046,-4.6174,-4.6388,-4.6973,-4.7296,-4.7296,-4.7496,-4.785,-4.8435,-4.8558,-4.862,-4.862,-4.862,-4.862,-4.862,-4.862,-4.862,-4.862,-4.862,-4.862,-2.7805,-3.0106,-3.1674,-3.0281,-3.2127,-3.4208,-3.4107,-3.3474,-3.3102,-3.3829,-3.4861,-3.6197,-3.8142,-3.9377,-4.0967,-4.3623,-4.5923,-4.7767,-4.8849,-5.0287,-5.1488,-5.2215,-5.301,-5.3501,-5.3501,-5.3501,-5.3501,-5.3501,-5.3501,-5.3501,-5.3501,-5.3501,-5.3501,-5.3501,-5.3501,-5.3501,-5.3501,-5.3501,-5.3501,-5.3501,-5.3501,-5.3501,-5.3501,-5.3501,-5.3501,-5.3501,-5.3501,-5.3501,-5.3501,-5.3501,-5.3501,-5.3501,-5.3501,-5.3501,-5.3501,-5.3501,-5.3501,-5.3501,-5.3501,-5.3501,-5.3501,-5.3501,-5.3501,-5.3501,-5.3501,-5.2435,-5.1217,-5.1217,-5.0152,-4.9001,-4.9001,-4.9001,-4.9001,-4.9001,-4.8736,-4.8483,-4.8483,-4.8244,-4.8117,-4.8531,-4.8577,-4.8633,-4.9026,-4.9017,-4.8885,-4.8535,-4.8189,-4.7834,-4.7478,-4.7135,-4.689,-4.6717,-4.6748,-4.6874,-4.708,-4.7419,-4.7758,-4.8127,-4.8142,-4.8296,-4.8604,-4.862,-4.862,-4.862,-4.862,-4.862,-4.862,-4.862,-4.862,-4.862,-4.862,-4.862,-2.7757,-2.9911,-3.1799,-3.1935,-3.3677,-3.5351,-3.5351,-3.4472,-3.3931,-3.4844,-3.591,-3.7195,-3.8937,-4.029,-4.2066,-4.4891,-4.6802,-4.824,-4.9137,-5.0236,-5.1285,-5.2198,-5.2841,-5.3298,-5.3484,-5.3501,-5.3501,-5.3501,-5.3501,-5.3501,-5.3501,-5.3501,-5.3501,-5.3501,-5.3501,-5.3501,-5.3501,-5.3501,-5.3501,-5.3501,-5.3501,-5.3501,-5.3501,-5.3501,-5.3501,-5.3501,-5.3501,-5.3501,-5.3501,-5.3501,-5.3501,-5.3501,-5.3501,-5.3501,-5.3501,-5.3501,-5.3501,-5.3501,-5.3501,-5.3501,-5.3501,-5.3501,-5.3501,-5.3467,-5.3281,-5.2283,-5.1183,-5.0997,-5.0016,-4.9001,-4.9001,-4.9001,-4.9001,-4.9001,-4.8736,-4.8483,-4.8483,-4.8244,-4.8216,-4.8961,-4.894,-4.8993,-4.973,-4.9635,-4.9385,-4.9032,-4.8813,-4.8568,-4.8206,-4.8004,-4.7788,-4.7466,-4.7466,-4.7589,-4.7788,-4.7835,-4.8065,-4.8573,-4.862,-4.862,-4.862,-4.862,-4.862,-4.862,-4.862,-4.862,-4.862,-4.862,-4.862,-4.862,-4.862,-4.862,-3.0044,-3.0577,-3.0903,-3.3592,-3.4421,-3.4573,-3.4573,-3.4489,-3.4827,-3.6315,-3.8311,-3.9834,-3.9969,-4.232,-4.501,-4.731,-4.7817,-4.8409,-4.9813,-5.0101,-5.071,-5.2131,-5.235,-5.2689,-5.3433,-5.3501,-5.3501,-5.3501,-5.3501,-5.3501,-5.3501,-5.3501,-5.3501,-5.3501,-5.3501,-5.3501,-5.3501,-5.3501,-5.3501,-5.3501,-5.3501,-5.3501,-5.3501,-5.3501,-5.3501,-5.3501,-5.3501,-5.3501,-5.3501,-5.3501,-5.3501,-5.3501,-5.3501,-5.3501,-5.3501,-5.3501,-5.3501,-5.3501,-5.3501,-5.3501,-5.3501,-5.3501,-5.3501,-5.3365,-5.2604,-5.1843,-5.1065,-5.0371,-4.961,-4.9001,-4.9001,-4.9001,-4.9001,-4.9001,-4.8736,-4.8483,-4.8483,-4.8244,-4.8216,-4.8961,-4.9316,-4.978,-5.0484,-5.088,-5.0887,-5.0506,-4.9853,-4.9254,-4.8887,-4.8272,-4.7993,-4.8231,-4.8214,-4.832,-4.8481,-4.8543,-4.8558,-4.862,-4.862,-4.862,-4.862,-4.862,-4.862,-4.862,-4.862,-4.862,-4.862,-4.862,-4.862,-4.862,-4.862,-4.862,-2.8761,-3.0088,-3.1409,-3.3388,-3.4678,-3.5375,-3.5243,-3.5926,-3.7178,-3.9123,-3.9834,-4.051,-4.1897,-4.3876,-4.5703,-4.7005,-4.7614,-4.8257,-4.9272,-4.9796,-5.0473,-5.1505,-5.2029,-5.2621,-5.3416,-5.3501,-5.3501,-5.3501,-5.3501,-5.3501,-5.3501,-5.3501,-5.3501,-5.3501,-5.3501,-5.3501,-5.3501,-5.3501,-5.3501,-5.3501,-5.3501,-5.3501,-5.3501,-5.3501,-5.3501,-5.3501,-5.3501,-5.3501,-5.3501,-5.3501,-5.3501,-5.3501,-5.3501,-5.3501,-5.3501,-5.3501,-5.3501,-5.3501,-5.3501,-5.3501,-5.3501,-5.3501,-5.3162,-5.2706,-5.2384,-5.1471,-5.0456,-5.0168,-4.956,-4.9001,-4.9001,-4.9001,-4.9001,-4.9001,-4.8736,-4.8483,-4.8483,-4.8244,-4.8365,-4.9558,-4.9661,-5.0009,-5.1172,-5.1303,-5.1032,-5.0666,-5.0349,-5.0003,-4.9615,-4.9315,-4.9095,-4.8965,-4.8658,-4.8522,-4.8589,-4.862,-4.862,-4.862,-4.862,-4.862,-4.862,-4.862,-4.862,-4.862,-4.862,-4.862,-4.862,-4.862,-4.8702,-4.8816,-4.8816,-4.8883,-2.822,-2.9909,-3.173,-3.291,-3.478,-3.629,-3.6112,-3.7254,-3.88,-4.0493,-4.1001,-4.1677,-4.3453,-4.4637,-4.5669,-4.6633,-4.7225,-4.7902,-4.8866,-4.9424,-5.0033,-5.0777,-5.1505,-5.2266,-5.3061,-5.3348,-5.3501,-5.3501,-5.3501,-5.3501,-5.3501,-5.3501,-5.3501,-5.3501,-5.3501,-5.3501,-5.3501,-5.3501,-5.3501,-5.3501,-5.3501,-5.3501,-5.3501,-5.3501,-5.3501,-5.3501,-5.3501,-5.3501,-5.3501,-5.3501,-5.3501,-5.3501,-5.3501,-5.3501,-5.3501,-5.3501,-5.3501,-5.3501,-5.3501,-5.3501,-5.3467,-5.3213,-5.2756,-5.2215,-5.1742,-5.0896,-5.0033,-4.9813,-4.939,-4.9001,-4.9001,-4.9001,-4.9001,-4.9001,-4.8736,-4.8483,-4.8483,-4.8244,-4.8365,-4.9624,-4.971,-5.0025,-5.1221,-5.132,-5.1032,-5.0666,-5.0589,-5.0418,-4.9916,-4.9916,-4.9773,-4.9356,-4.8867,-4.862,-4.862,-4.862,-4.862,-4.862,-4.862,-4.862,-4.862,-4.862,-4.862,-4.862,-4.862,-4.862,-4.8718,-4.8718,-4.8883,-4.9062,-4.9062,-4.9144,-2.9006,-3.0304,-3.1692,-3.2439,-3.4899,-3.7137,-3.7137,-3.8223,-3.9389,-4.0019,-4.188,-4.3673,-4.4434,-4.4587,-4.5077,-4.6549,-4.6802,-4.731,-4.8798,-4.9001,-4.9272,-4.9999,-5.0744,-5.1488,-5.2232,-5.3027,-5.3501,-5.3501,-5.3501,-5.3501,-5.3501,-5.3501,-5.3501,-5.3501,-5.3501,-5.3501,-5.3501,-5.3501,-5.3501,-5.3501,-5.3501,-5.3501,-5.3501,-5.3501,-5.3501,-5.3501,-5.3501,-5.3501,-5.3501,-5.3501,-5.3501,-5.3501,-5.3501,-5.3501,-5.3501,-5.3501,-5.3501,-5.3501,-5.3501,-5.3501,-5.3365,-5.2553,-5.2283,-5.2012,-5.0524,-5.0084,-4.9932,-4.9204,-4.9001,-4.9001,-4.9001,-4.9001,-4.9001,-4.9001,-4.8736,-4.8483,-4.8483,-4.8244,-4.8216,-4.8961,-4.9349,-4.9861,-5.0566,-5.0994,-5.1032,-5.0666,-5.0589,-5.0418,-4.9916,-4.9916,-4.9757,-4.9356,-4.8867,-4.862,-4.862,-4.862,-4.862,-4.862,-4.862,-4.862,-4.862,-4.862,-4.862,-4.862,-4.862,-4.8718,-4.8996,-4.8996,-4.9144,-4.9275,-4.9275,-4.9275,-2.8698,-3.0125,-3.196,-3.3185,-3.5856,-3.827,-3.8636,-3.9773,-4.1053,-4.2168,-4.3809,-4.4942,-4.4637,-4.501,-4.5686,-4.6633,-4.7242,-4.7919,-4.8866,-4.9001,-4.9272,-4.9999,-5.0287,-5.0727,-5.1454,-5.2215,-5.2655,-5.2655,-5.3179,-5.3501,-5.3501,-5.3501,-5.3501,-5.3501,-5.3501,-5.3501,-5.3501,-5.3501,-5.3501,-5.3501,-5.3501,-5.3501,-5.3501,-5.3501,-5.3501,-5.3501,-5.3501,-5.3501,-5.3501,-5.3501,-5.3501,-5.3501,-5.3501,-5.3501,-5.3501,-5.3501,-5.3501,-5.3416,-5.2858,-5.2655,-5.2536,-5.1775,-5.1183,-5.0659,-5.0219,-4.9729,-4.9272,-4.9069,-4.9001,-4.9001,-4.9001,-4.9001,-4.9001,-4.9001,-4.8736,-4.8483,-4.8483,-4.8244,-4.8216,-4.8961,-4.8921,-4.9239,-5.0468,-5.057,-5.0451,-5.0586,-5.0589,-5.0418,-4.9916,-4.9677,-4.9437,-4.9275,-4.8867,-4.862,-4.862,-4.862,-4.862,-4.862,-4.862,-4.862,-4.862,-4.862,-4.862,-4.862,-4.88,-4.8914,-4.8996,-4.9144,-4.9275,-4.9517,-4.9517,-4.9597,-2.9765,-3.1384,-3.3291,-3.418,-3.6534,-3.8911,-4.0004,-4.1086,-4.2123,-4.3166,-4.4401,-4.5128,-4.4654,-4.5196,-4.594,-4.6667,-4.7428,-4.8173,-4.89,-4.9001,-4.9171,-4.961,-4.9915,-5.027,-5.0727,-5.1437,-5.186,-5.186,-5.2587,-5.3027,-5.3027,-5.3331,-5.3501,-5.3501,-5.3501,-5.3501,-5.3501,-5.3501,-5.3501,-5.3501,-5.3501,-5.3501,-5.3501,-5.3501,-5.3501,-5.3501,-5.3501,-5.3501,-5.3501,-5.3501,-5.3501,-5.3501,-5.3501,-5.3501,-5.3467,-5.3145,-5.3027,-5.2909,-5.2147,-5.186,-5.1742,-5.1014,-5.0456,-5.0033,-4.9746,-4.9357,-4.9001,-4.9001,-4.9001,-4.9001,-4.9001,-4.9001,-4.9001,-4.9001,-4.8736,-4.8483,-4.8483,-4.8244,-4.8133,-4.858,-4.8594,-4.878,-4.9665,-5.0017,-5.0096,-5.0169,-5.0227,-5.0246,-4.9931,-4.9517,-4.9275,-4.9275,-4.8867,-4.862,-4.862,-4.862,-4.862,-4.862,-4.862,-4.862,-4.862,-4.862,-4.862,-4.8718,-4.8914,-4.9078,-4.9225,-4.9372,-4.9517,-4.9677,-4.9677,-4.9757,-3.1524,-3.33,-3.5007,-3.5145,-3.6904,-3.9118,-4.1064,-4.204,-4.2683,-4.3267,-4.4045,-4.4587,-4.4587,-4.5196,-4.594,-4.6667,-4.7428,-4.8173,-4.89,-4.9001,-4.9001,-4.9001,-4.9593,-4.9999,-4.9999,-5.0676,-5.1116,-5.1116,-5.1792,-5.2198,-5.2198,-5.2892,-5.3298,-5.3298,-5.3365,-5.3399,-5.3399,-5.3467,-5.3501,-5.3501,-5.3501,-5.3501,-5.3501,-5.3501,-5.3501,-5.3501,-5.3501,-5.3501,-5.3501,-5.3501,-5.3467,-5.3399,-5.3399,-5.3348,-5.3213,-5.2469,-5.2198,-5.2097,-5.1369,-5.1116,-5.0997,-5.0236,-4.9999,-4.9864,-4.9204,-4.9001,-4.9001,-4.9001,-4.9001,-4.9001,-4.9001,-4.9001,-4.9001,-4.9001,-4.8736,-4.8483,-4.8483,-4.8244,-4.8001,-4.8001,-4.8248,-4.8436,-4.8486,-4.9245,-4.9821,-4.9576,-4.966,-4.9852,-4.9916,-4.9517,-4.9275,-4.9275,-4.8867,-4.862,-4.862,-4.862,-4.862,-4.862,-4.862,-4.862,-4.862,-4.862,-4.8718,-4.8996,-4.8996,-4.9225,-4.9597,-4.9597,-4.9677,-4.9916,-4.9916,-4.9916,-3.0886,-3.2145,-3.3697,-3.4887,-3.6904,-3.8997,-4.0559,-4.1817,-4.2771,-4.3322,-4.4045,-4.4587,-4.4587,-4.5196,-4.594,-4.6667,-4.7428,-4.8173,-4.89,-4.9001,-4.9001,-4.9001,-4.9137,-4.9238,-4.9238,-4.9898,-5.0338,-5.0338,-5.1031,-5.1454,-5.1454,-5.1606,-5.1708,-5.1708,-5.2266,-5.2553,-5.2553,-5.3179,-5.3501,-5.3501,-5.3501,-5.3501,-5.3501,-5.3501,-5.3501,-5.3501,-5.3501,-5.3501,-5.3501,-5.3501,-5.3129,-5.2553,-5.2553,-5.2215,-5.1691,-5.1522,-5.1454,-5.1336,-5.0591,-5.0338,-5.0219,-4.9475,-4.9238,-4.9204,-4.9052,-4.9001,-4.9001,-4.9001,-4.9001,-4.9001,-4.9001,-4.9001,-4.9001,-4.9001,-4.8736,-4.8483,-4.8483,-4.8244,-4.8001,-4.8001,-4.7869,-4.7863,-4.8404,-4.8448,-4.8691,-4.9432,-4.9247,-4.9299,-4.9852,-4.9517,-4.9275,-4.9275,-4.8867,-4.862,-4.862,-4.862,-4.862,-4.862,-4.862,-4.862,-4.862,-4.88,-4.8914,-4.8996,-4.9291,-4.9517,-4.9597,-4.9757,-4.9852,-4.9916,-4.9916,-4.9916,-3.1127,-3.2576,-3.4369,-3.5904,-3.7456,-3.8842,-3.9873,-4.1216,-4.2296,-4.2833,-4.3847,-4.4587,-4.4587,-4.5196,-4.594,-4.6667,-4.7428,-4.8173,-4.89,-4.9001,-4.9001,-4.9001,-4.9001,-4.9001,-4.9001,-4.9357,-4.956,-4.956,-5.0253,-5.0676,-5.0676,-5.1014,-5.1217,-5.1217,-5.1589,-5.1775,-5.1775,-5.2198,-5.2418,-5.2418,-5.2418,-5.2418,-5.2435,-5.3162,-5.3298,-5.2926,-5.2926,-5.2739,-5.2418,-5.2418,-5.2164,-5.1775,-5.1775,-5.1555,-5.1166,-5.0811,-5.0676,-5.0574,-4.983,-4.956,-4.9509,-4.912,-4.9001,-4.9001,-4.9001,-4.9001,-4.9001,-4.9001,-4.9001,-4.9001,-4.9001,-4.9001,-4.9001,-4.9001,-4.8736,-4.8483,-4.8483,-4.8244,-4.8001,-4.8001,-4.7737,-4.7585,-4.7945,-4.7821,-4.8007,-4.8861,-4.899,-4.9015,-4.9378,-4.9313,-4.9275,-4.9275,-4.8867,-4.862,-4.862,-4.862,-4.862,-4.862,-4.862,-4.862,-4.88,-4.9062,-4.9144,-4.9144,-4.9452,-4.9677,-4.9757,-4.9836,-4.9916,-4.9916,-5.001,-5.0089,-3.1196,-3.3162,-3.537,-3.6904,-3.7939,-3.8784,-3.9404,-4.0617,-4.1835,-4.2414,-4.3529,-4.4418,-4.4553,-4.5094,-4.5754,-4.6481,-4.7124,-4.7834,-4.8697,-4.8815,-4.8866,-4.8984,-4.9001,-4.9001,-4.9001,-4.9001,-4.9001,-4.9001,-4.956,-4.9898,-4.9898,-5.049,-5.0845,-5.0845,-5.0947,-5.1014,-5.1014,-5.115,-5.1217,-5.1217,-5.1217,-5.1217,-5.1251,-5.2536,-5.2739,-5.2114,-5.2114,-5.1775,-5.1217,-5.1217,-5.1133,-5.1014,-5.1014,-5.0947,-5.076,-5.0135,-4.9898,-4.9813,-4.9221,-4.9001,-4.9001,-4.9001,-4.9001,-4.9001,-4.9001,-4.9001,-4.9001,-4.9001,-4.9001,-4.9001,-4.9001,-4.9001,-4.9001,-4.9001,-4.8753,-4.8547,-4.8483,-4.8244,-4.8001,-4.8001,-4.7737,-4.747,-4.7403,-4.7254,-4.7469,-4.8189,-4.8465,-4.862,-4.8857,-4.9,-4.915,-4.9259,-4.8867,-4.862,-4.862,-4.862,-4.862,-4.862,-4.862,-4.8718,-4.8996,-4.921,-4.9356,-4.9356,-4.9517,-4.9757,-4.9916,-4.9916,-4.9916,-5.001,-5.0184,-5.034,-2.961,-3.1972,-3.4594,-3.6094,-3.7525,-3.8784,-3.9526,-4.0745,-4.1968,-4.2569,-4.3141,-4.3775,-4.4451,-4.4654,-4.4976,-4.5737,-4.594,-4.6481,-4.7868,-4.8071,-4.8291,-4.8934,-4.9001,-4.9001,-4.9001,-4.9001,-4.9001,-4.9001,-4.9086,-4.9154,-4.9154,-4.9238,-4.9289,-4.9289,-4.9915,-5.0236,-5.0236,-5.0896,-5.1217,-5.1217,-5.1217,-5.1217,-5.1217,-5.142,-5.1471,-5.1369,-5.1369,-5.1302,-5.1217,-5.1217,-5.0828,-5.0236,-5.0236,-4.9864,-4.9289,-4.9187,-4.9154,-4.9137,-4.9035,-4.9001,-4.9001,-4.9001,-4.9001,-4.9001,-4.9001,-4.9001,-4.9001,-4.9001,-4.9001,-4.9001,-4.9001,-4.9001,-4.9001,-4.9001,-4.8894,-4.8707,-4.8547,-4.8244,-4.8001,-4.8001,-4.7737,-4.7403,-4.703,-4.6695,-4.6717,-4.7437,-4.7247,-4.7514,-4.8731,-4.8592,-4.8651,-4.9213,-4.8867,-4.862,-4.862,-4.862,-4.862,-4.862,-4.862,-4.8718,-4.8996,-4.921,-4.9356,-4.9517,-4.9757,-4.9836,-4.9916,-4.9916,-5.001,-5.0262,-5.0262,-5.0418,-3.0351,-3.2403,-3.4335,-3.5421,-3.7146,-3.8681,-3.9008,-4.0173,-4.1334,-4.1954,-4.255,-4.322,-4.4423,-4.4587,-4.4823,-4.5585,-4.5703,-4.6075,-4.7141,-4.7648,-4.8037,-4.8359,-4.8748,-4.9001,-4.9001,-4.9001,-4.9001,-4.9001,-4.9001,-4.9001,-4.9001,-4.9001,-4.9001,-4.9001,-4.9306,-4.9475,-4.9475,-4.9813,-4.9982,-4.9982,-4.9982,-4.9982,-4.9982,-4.9982,-5.0202,-5.0591,-5.0591,-5.0355,-4.9982,-4.9982,-4.9779,-4.9475,-4.9475,-4.9289,-4.9001,-4.9001,-4.9001,-4.9001,-4.9001,-4.9001,-4.9001,-4.9001,-4.9001,-4.9001,-4.9001,-4.9001,-4.9001,-4.9001,-4.9001,-4.9001,-4.9001,-4.9001,-4.9001,-4.9001,-4.8894,-4.8769,-4.8547,-4.8308,-4.8049,-4.7737,-4.7604,-4.7403,-4.6961,-4.6545,-4.6445,-4.6765,-4.677,-4.7024,-4.764,-4.8199,-4.8576,-4.8698,-4.8829,-4.8718,-4.862,-4.862,-4.862,-4.862,-4.862,-4.8785,-4.9128,-4.9275,-4.9437,-4.9757,-4.9836,-4.9916,-4.9916,-4.9916,-5.001,-5.0262,-5.0434,-5.0589,-3.0644,-3.2334,-3.3731,-3.468,-3.6611,-3.8353,-3.8543,-3.9583,-4.068,-4.1458,-4.1955,-4.2651,-4.3868,-4.4372,-4.4756,-4.5331,-4.5415,-4.5686,-4.6413,-4.7005,-4.7428,-4.7614,-4.8122,-4.8511,-4.8714,-4.8731,-4.8798,-4.8984,-4.9001,-4.9001,-4.9001,-4.9001,-4.9001,-4.9001,-4.9001,-4.9001,-4.9001,-4.9001,-4.9001,-4.9001,-4.9001,-4.9001,-4.9001,-4.9001,-4.9306,-4.9813,-4.9813,-4.9509,-4.9001,-4.9001,-4.9001,-4.9001,-4.9001,-4.9001,-4.9001,-4.9001,-4.9001,-4.9001,-4.9001,-4.9001,-4.9001,-4.9001,-4.9001,-4.9001,-4.9001,-4.9001,-4.9001,-4.9001,-4.9001,-4.9001,-4.9001,-4.9001,-4.9001,-4.9001,-4.894,-4.8769,-4.8483,-4.8292,-4.8049,-4.7604,-4.7486,-4.7403,-4.6961,-4.6545,-4.6262,-4.6262,-4.6421,-4.6613,-4.6771,-4.7568,-4.8059,-4.7996,-4.8395,-4.8635,-4.8358,-4.8512,-4.862,-4.862,-4.862,-4.8785,-4.9275,-4.9275,-4.9517,-4.9916,-4.9916,-4.9916,-4.9916,-4.9916,-5.0089,-5.034,-5.0496,-5.0743,-2.9213,-3.0748,-3.2283,-3.3766,-3.5852,-3.7732,-3.8422,-3.9198,-4.0134,-4.1486,-4.168,-4.1852,-4.2498,-4.3715,-4.4587,-4.4621,-4.4637,-4.4891,-4.5652,-4.5788,-4.6075,-4.6769,-4.6887,-4.7192,-4.7902,-4.797,-4.8257,-4.8951,-4.9001,-4.9001,-4.9001,-4.9001,-4.9001,-4.9001,-4.9001,-4.9001,-4.9001,-4.9001,-4.9001,-4.9001,-4.9001,-4.9001,-4.9001,-4.9001,-4.9018,-4.9069,-4.9069,-4.9035,-4.9001,-4.9001,-4.9001,-4.9001,-4.9001,-4.9001,-4.9001,-4.9001,-4.9001,-4.9001,-4.9001,-4.9001,-4.9001,-4.9001,-4.9001,-4.9001,-4.9001,-4.9001,-4.9001,-4.9001,-4.9001,-4.9001,-4.9001,-4.9001,-4.9001,-4.9001,-4.9001,-4.8877,-4.8356,-4.8115,-4.7935,-4.7537,-4.7486,-4.7403,-4.6961,-4.6545,-4.6262,-4.6262,-4.604,-4.6092,-4.6724,-4.6717,-4.679,-4.72,-4.765,-4.7893,-4.7665,-4.825,-4.862,-4.862,-4.862,-4.8785,-4.9275,-4.9275,-4.9517,-4.9916,-4.9916,-4.9916,-4.9916,-4.9916,-5.0168,-5.0589,-5.0589,-5.082,-2.8661,-3.0265,-3.2041,-3.3076,-3.5042,-3.6922,-3.7698,-3.8819,-3.9807,-4.0233,-4.1077,-4.1731,-4.1801,-4.2918,-4.3826,-4.3826,-4.4248,-4.4671,-4.4942,-4.5399,-4.5805,-4.6058,-4.6498,-4.6904,-4.7175,-4.7192,-4.7293,-4.7564,-4.8037,-4.8308,-4.8308,-4.8748,-4.9001,-4.9001,-4.9001,-4.9001,-4.9001,-4.9001,-4.9001,-4.9001,-4.9001,-4.9001,-4.9001,-4.9001,-4.9001,-4.9001,-4.9001,-4.9001,-4.9001,-4.9001,-4.9001,-4.9001,-4.9001,-4.9001,-4.9001,-4.9001,-4.9001,-4.9001,-4.9001,-4.9001,-4.9001,-4.9001,-4.9001,-4.9001,-4.9001,-4.9001,-4.9001,-4.9001,-4.9001,-4.9001,-4.9001,-4.9001,-4.9001,-4.9001,-4.8815,-4.861,-4.842,-4.8179,-4.7869,-4.7554,-4.7486,-4.7403,-4.6961,-4.6545,-4.6262,-4.6262,-4.6008,-4.5902,-4.6139,-4.646,-4.6674,-4.653,-4.7092,-4.7355,-4.6957,-4.7573,-4.7973,-4.7973,-4.8373,-4.8785,-4.9275,-4.9275,-4.9517,-4.9916,-4.9489,-4.9473,-4.9916,-4.9916,-5.0168,-5.0573,-5.0109,-5.0129,-2.8334,-2.9679,-3.1386,-3.2921,-3.4231,-3.5628,-3.7439,-3.8215,-3.8698,-3.9095,-4.0147,-4.0974,-4.0794,-4.1869,-4.2797,-4.2997,-4.369,-4.4198,-4.4198,-4.484,-4.5331,-4.5331,-4.5754,-4.6143,-4.6397,-4.643,-4.6532,-4.6769,-4.7259,-4.7547,-4.7547,-4.824,-4.8748,-4.9001,-4.9001,-4.9001,-4.9001,-4.9001,-4.9001,-4.9001,-4.9001,-4.9001,-4.9001,-4.9001,-4.9001,-4.9001,-4.9001,-4.9001,-4.9001,-4.9001,-4.9001,-4.9001,-4.9001,-4.9001,-4.9001,-4.9001,-4.9001,-4.9001,-4.9001,-4.9001,-4.9001,-4.9001,-4.9001,-4.9001,-4.9001,-4.9001,-4.9001,-4.9001,-4.9001,-4.9001,-4.9001,-4.9001,-4.9001,-4.9001,-4.8736,-4.8483,-4.8483,-4.8244,-4.7935,-4.7604,-4.7537,-4.7403,-4.703,-4.6684,-4.6404,-4.6333,-4.608,-4.5896,-4.5807,-4.6202,-4.6323,-4.595,-4.6467,-4.6718,-4.6343,-4.688,-4.7265,-4.7265,-4.7696,-4.8105,-4.8509,-4.8589,-4.8748,-4.908,-4.8794,-4.8778,-4.9252,-4.9252,-4.9485,-4.9869,-4.9389,-4.9389,0.0,0.0,0.0,-3.3231,-3.3421,-3.3852,-3.7629,-3.7353,-3.6732,-3.8249,-3.9055,-3.9478,-3.9495,-4.0519,-4.1511,-4.2119,-4.2861,-4.3386,-4.3386,-4.4062,-4.4536,-4.4536,-4.457,-4.4874,-4.5602,-4.5669,-4.5957,-4.6667,-4.6752,-4.6752,-4.6752,-4.7479,-4.8206,-4.8917,-4.8968,-4.8968,-4.8968,-4.8984,-4.9001,-4.9001,-4.9001,-4.9001,-4.9001,-4.9001,-4.9001,-4.9001,-4.9001,-4.9001,-4.9001,-4.9001,-4.9001,-4.9001,-4.9001,-4.9001,-4.9001,-4.9001,-4.9001,-4.9001,-4.9001,-4.9001,-4.9001,-4.9001,-4.9001,-4.9001,-4.9001,-4.9001,-4.9001,-4.9001,-4.9001,-4.9001,-4.9001,-4.9001,-4.9001,-4.9001,-4.8736,-4.8483,-4.8483,-4.8244,-4.7935,-4.7704,-4.7588,-4.7403,-4.7251,-4.6876,-4.6528,-4.6333,-4.6152,-4.604,-4.5823,-4.5807,-4.5662,-4.522,-4.5781,-4.6019,-4.5634,-4.6188,-4.6573,-4.6573,-4.6588,-4.6667,-4.6904,-4.706,-4.7309,-4.7588,-4.7801,-4.7877,-4.7877,-4.7893,-4.812,-4.8477,-4.8519,-4.8634,-2.7678,0.0,0.0,0.0,0.0,0.0,-3.5508,-3.6215,-3.6594,-3.7594,-3.837,-3.8814,-3.8723,-3.9418,-4.0041,-4.0034,-4.1476,-4.2591,-4.2591,-4.3267,-4.3741,-4.3741,-4.4231,-4.4654,-4.4874,-4.4891,-4.4976,-4.5179,-4.5686,-4.6007,-4.6007,-4.6701,-4.7192,-4.7394,-4.7936,-4.8223,-4.8223,-4.8731,-4.9001,-4.9001,-4.9001,-4.9001,-4.9001,-4.9001,-4.9001,-4.9001,-4.9001,-4.9001,-4.9001,-4.9001,-4.9001,-4.9001,-4.9001,-4.9001,-4.9001,-4.9001,-4.9001,-4.9001,-4.9001,-4.9001,-4.9001,-4.9001,-4.9001,-4.9001,-4.9001,-4.9001,-4.9001,-4.9001,-4.9001,-4.9001,-4.9001,-4.9001,-4.9001,-4.9001,-4.8894,-4.8707,-4.8547,-4.8292,-4.8049,-4.777,-4.7588,-4.7403,-4.7251,-4.6876,-4.6528,-4.6333,-4.6152,-4.604,-4.5823,-4.5807,-4.5662,-4.522,-4.5391,-4.5335,-4.4941,-4.548,-4.5865,-4.5865,-4.6326,-4.6667,-4.6904,-4.706,-4.7309,-4.7588,-4.7296,-4.7103,-4.7103,-4.764,-4.812,-4.8461,-4.824,-4.7939,-2.842,-2.9092,-3.0265,-3.1351,0.0,0.0,-3.5059,-3.5508,-3.568,-3.6766,-3.7594,-3.8129,-3.804,-3.8568,-3.8973,-3.8802,-4.0017,-4.1188,-4.1745,-4.2489,-4.2946,-4.2946,-4.3352,-4.3741,-4.4062,-4.4096,-4.4231,-4.4553,-4.4993,-4.5382,-4.5686,-4.6109,-4.6481,-4.6786,-4.7225,-4.7445,-4.7445,-4.8173,-4.8545,-4.8545,-4.8849,-4.9001,-4.9001,-4.9001,-4.9001,-4.9001,-4.9001,-4.9001,-4.9001,-4.9001,-4.9001,-4.9001,-4.9001,-4.9001,-4.9001,-4.9001,-4.9001,-4.9001,-4.9001,-4.9001,-4.9001,-4.9001,-4.9001,-4.9001,-4.9001,-4.9001,-4.9001,-4.9001,-4.9001,-4.9001,-4.9001,-4.9001,-4.9001,-4.9001,-4.8894,-4.8769,-4.8547,-4.8356,-4.8098,-4.7853,-4.7671,-4.747,-4.7335,-4.6961,-4.6598,-4.6333,-4.6207,-4.608,-4.5807,-4.5807,-4.5662,-4.5368,-4.522,-4.5055,-4.4723,-4.5018,-4.5172,-4.5172,-4.5541,-4.5835,-4.5912,-4.6221,-4.6466,-4.6573,-4.6465,-4.6392,-4.6392,-4.6819,-4.7247,-4.7565,-4.7523,-4.7297,-2.9955,-3.0403,-3.1334,-3.249,-3.2472,0.0,-3.5352,-3.5042,-3.4559,-3.5801,-3.6611,-3.7111,-3.7111,-3.7696,-3.8111,-3.7974,-3.8598,-3.9525,-4.0764,-4.166,-4.2168,-4.2168,-4.2236,-4.2557,-4.3217,-4.3301,-4.3572,-4.4265,-4.4401,-4.4773,-4.5551,-4.5585,-4.5872,-4.6515,-4.6633,-4.6667,-4.6667,-4.7411,-4.78,-4.78,-4.8545,-4.8883,-4.8883,-4.8968,-4.9001,-4.9001,-4.9001,-4.9001,-4.9001,-4.9001,-4.9001,-4.9001,-4.9001,-4.9001,-4.9001,-4.9001,-4.9001,-4.9001,-4.9001,-4.9001,-4.9001,-4.9001,-4.9001,-4.9001,-4.9001,-4.9001,-4.9001,-4.9001,-4.9001,-4.9001,-4.9001,-4.9001,-4.9001,-4.9001,-4.8894,-4.8769,-4.8564,-4.8356,-4.8163,-4.8001,-4.7737,-4.7486,-4.7486,-4.7183,-4.6738,-4.6333,-4.6262,-4.6207,-4.5807,-4.5807,-4.5735,-4.5515,-4.5294,-4.5129,-4.4949,-4.4739,-4.4572,-4.4572,-4.4572,-4.4572,-4.4572,-4.498,-4.522,-4.522,-4.5589,-4.5807,-4.5807,-4.5807,-4.6008,-4.6333,-4.6668,-4.6876,-3.1386,-3.2369,-3.3197,-3.2248,-3.3283,0.0,-3.3714,-3.43,-3.4887,-3.4576,-3.4645,-3.4749,-3.4749,-3.5852,-3.6638,-3.6437,-3.7536,-3.8618,-3.9342,-4.0578,-4.1407,-4.1407,-4.1931,-4.2354,-4.2489,-4.2506,-4.2574,-4.2726,-4.3301,-4.3978,-4.4756,-4.479,-4.4857,-4.501,-4.5602,-4.5923,-4.5923,-4.665,-4.7005,-4.7022,-4.7767,-4.8122,-4.8156,-4.8731,-4.9001,-4.9001,-4.9001,-4.9001,-4.9001,-4.9001,-4.9001,-4.9001,-4.9001,-4.9001,-4.9001,-4.9001,-4.9001,-4.9001,-4.9001,-4.9001,-4.9001,-4.9001,-4.9001,-4.9001,-4.9001,-4.9001,-4.9001,-4.9001,-4.9001,-4.9001,-4.9001,-4.9001,-4.9001,-4.9001,-4.9001,-4.8877,-4.8547,-4.8483,-4.8356,-4.8066,-4.7737,-4.7486,-4.7486,-4.7183,-4.6738,-4.6333,-4.6262,-4.6207,-4.5807,-4.5807,-4.5735,-4.5515,-4.5294,-4.5129,-4.4949,-4.4739,-4.4572,-4.4572,-4.4572,-4.4572,-4.4572,-4.4799,-4.5039,-4.522,-4.5589,-4.5807,-4.5807,-4.5952,-4.6152,-4.6333,-4.6528,-4.6738,-3.3041,-3.3766,-3.4456,-3.368,-3.4352,0.0,0.0,-3.4611,-3.4852,-3.5628,-3.4559,-3.3835,-3.499,-3.5197,-3.5415,-3.602,-3.6977,-3.7848,-3.8472,-3.946,-4.024,-4.0595,-4.0967,-4.1339,-4.1711,-4.1745,-4.1897,-4.2252,-4.2642,-4.32,-4.3961,-4.3995,-4.4181,-4.457,-4.4942,-4.5145,-4.5145,-4.5872,-4.6244,-4.6261,-4.7005,-4.7361,-4.7394,-4.8122,-4.846,-4.8477,-4.8849,-4.9001,-4.9001,-4.9001,-4.9001,-4.9001,-4.9001,-4.9001,-4.9001,-4.9001,-4.9001,-4.9001,-4.9001,-4.9001,-4.9001,-4.9001,-4.9001,-4.9001,-4.9001,-4.9001,-4.9001,-4.9001,-4.9001,-4.9001,-4.9001,-4.9001,-4.9001,-4.9001,-4.9001,-4.894,-4.8547,-4.8483,-4.842,-4.8066,-4.7803,-4.7604,-4.747,-4.7251,-4.6892,-4.6528,-4.6333,-4.6207,-4.5952,-4.588,-4.5735,-4.5662,-4.5368,-4.5145,-4.5055,-4.4739,-4.4572,-4.4572,-4.4572,-4.4572,-4.4572,-4.4799,-4.5039,-4.5368,-4.5662,-4.5807,-4.5807,-4.5896,-4.6024,-4.6223,-4.6474,-4.6652,-3.5076,-3.549,-3.5956,-3.5508,-3.5732,-3.6025,0.0,0.0,0.0,-3.6508,-3.4852,-3.3697,-3.5542,-3.4887,-3.445,-3.5589,-3.6285,-3.6904,-3.758,-3.8051,-3.8717,-3.9749,-3.9868,-4.0155,-4.0916,-4.0865,-4.1136,-4.2016,-4.1948,-4.2252,-4.3149,-4.3335,-4.3707,-4.4333,-4.4502,-4.4587,-4.4587,-4.5179,-4.55,-4.55,-4.6244,-4.6583,-4.6599,-4.7361,-4.7699,-4.775,-4.8477,-4.8798,-4.8798,-4.8951,-4.9001,-4.9001,-4.9001,-4.9001,-4.9001,-4.9001,-4.9001,-4.9001,-4.9001,-4.9001,-4.9001,-4.9001,-4.9001,-4.9001,-4.9001,-4.9001,-4.9001,-4.9001,-4.9001,-4.9001,-4.9001,-4.9001,-4.9001,-4.9001,-4.9001,-4.894,-4.8547,-4.8483,-4.842,-4.8066,-4.7853,-4.7721,-4.7537,-4.7319,-4.703,-4.6668,-4.6404,-4.6278,-4.6112,-4.5952,-4.5807,-4.5807,-4.5442,-4.522,-4.522,-4.4814,-4.4572,-4.4572,-4.4572,-4.4572,-4.4572,-4.4799,-4.5039,-4.5442,-4.5662,-4.5735,-4.5807,-4.5807,-4.588,-4.6112,-4.6404,-4.6582,-3.7922,-3.8629,-3.8698,-3.668,-3.7698,-3.8336,-3.5076,0.0,-3.5749,-3.468,0.0,-3.4024,-3.4283,0.0,0.0,-3.4163,-3.4727,-3.5352,-3.597,-3.6005,-3.6772,-3.887,-3.9106,-3.9394,-4.0138,-3.9614,-3.9834,-4.1221,-4.073,-4.0967,-4.2337,-4.3047,-4.3453,-4.3538,-4.4215,-4.4587,-4.4587,-4.4654,-4.4705,-4.4722,-4.5466,-4.5821,-4.5855,-4.6583,-4.6921,-4.6972,-4.7716,-4.8037,-4.8105,-4.8731,-4.9001,-4.9001,-4.9001,-4.9001,-4.9001,-4.9001,-4.9001,-4.9001,-4.9001,-4.9001,-4.9001,-4.9001,-4.9001,-4.9001,-4.9001,-4.9001,-4.9001,-4.9001,-4.9001,-4.9001,-4.9001,-4.9001,-4.9001,-4.9001,-4.9001,-4.894,-4.8547,-4.8483,-4.842,-4.8066,-4.8001,-4.7869,-4.7537,-4.7319,-4.703,-4.6668,-4.6404,-4.6278,-4.6112,-4.5952,-4.5807,-4.5807,-4.5442,-4.522,-4.522,-4.4814,-4.4572,-4.4572,-4.4572,-4.4572,-4.4572,-4.4799,-4.5039,-4.522,-4.5442,-4.5589,-4.5807,-4.5807,-4.588,-4.6096,-4.6278,-4.6458,-3.8508,-3.8491,-3.8284,-3.7767,-3.768,-3.7439,-3.6318,-3.5852,-3.5732,-3.6008,0.0,0.0,0.0,0.0,0.0,0.0,-3.4408,-3.4472,-3.5198,-3.4754,-3.5334,-3.8041,-3.7973,-3.8007,-3.8751,-3.8531,-3.8802,-3.9834,-3.9648,-4.0104,-4.1576,-4.1965,-4.254,-4.3386,-4.3741,-4.413,-4.4587,-4.4587,-4.4587,-4.4587,-4.4891,-4.5043,-4.5077,-4.5821,-4.616,-4.621,-4.6938,-4.7259,-4.7327,-4.8071,-4.8376,-4.8409,-4.8832,-4.9001,-4.9001,-4.9001,-4.9001,-4.9001,-4.9001,-4.9001,-4.9001,-4.9001,-4.9001,-4.9001,-4.9001,-4.9001,-4.9001,-4.9001,-4.9001,-4.9001,-4.9001,-4.9001,-4.9001,-4.9001,-4.9001,-4.894,-4.869,-4.8564,-4.842,-4.8179,-4.8049,-4.7869,-4.7554,-4.7403,-4.7251,-4.6807,-4.6474,-4.6278,-4.6207,-4.5952,-4.5807,-4.5807,-4.5515,-4.5294,-4.522,-4.4964,-4.4723,-4.4572,-4.4572,-4.4572,-4.4572,-4.4799,-4.4964,-4.522,-4.5368,-4.5589,-4.5807,-4.5807,-4.5807,-4.5968,-4.6096,-4.6278,-3.9215,-3.8819,-3.8439,-3.856,-3.7749,-3.6973,-3.7129,-3.6473,-3.6128,-3.7249,-3.587,0.0,0.0,0.0,-3.4387,-3.5076,0.0,-3.4079,-3.4233,-3.3607,-3.4134,-3.6941,-3.7161,-3.7313,-3.7855,-3.7719,-3.7905,-3.8633,-3.87,-3.9242,-4.0527,-4.0984,-4.1694,-4.2777,-4.3217,-4.369,-4.4265,-4.4468,-4.4587,-4.4587,-4.4587,-4.4587,-4.4604,-4.5145,-4.5399,-4.5432,-4.6177,-4.6498,-4.6549,-4.7293,-4.7733,-4.797,-4.8494,-4.8832,-4.9001,-4.9001,-4.9001,-4.9001,-4.9001,-4.9001,-4.9001,-4.9001,-4.9001,-4.9001,-4.9001,-4.9001,-4.9001,-4.9001,-4.9001,-4.9001,-4.9001,-4.9001,-4.9001,-4.9001,-4.9001,-4.894,-4.8832,-4.8627,-4.842,-4.8227,-4.8115,-4.7935,-4.7604,-4.7537,-4.7335,-4.6961,-4.6545,-4.6262,-4.6262,-4.6008,-4.5807,-4.5807,-4.5589,-4.5442,-4.522,-4.5039,-4.4799,-4.4572,-4.4572,-4.4572,-4.4572,-4.4723,-4.4964,-4.522,-4.5368,-4.5515,-4.5807,-4.5807,-4.5807,-4.5807,-4.604,-4.6168,-4.0802,-4.0784,-4.0422,-3.8957,-3.8543,-3.8129,-3.6663,-3.6887,-3.7422,-3.7473,-3.7974,-3.8439,-3.8491,-3.787,-3.687,-3.5421,-3.5015,0.0,0.0,-3.2502,-3.3152,-3.5419,-3.6975,-3.7872,-3.7905,-3.7246,-3.7127,-3.7889,-3.7939,-3.8278,-3.9022,-4.0426,-4.1221,-4.1271,-4.2675,-4.3436,-4.3453,-4.4198,-4.4587,-4.4587,-4.4587,-4.4587,-4.4587,-4.4604,-4.4621,-4.4654,-4.5415,-4.5737,-4.5788,-4.6532,-4.7259,-4.7919,-4.7953,-4.8392,-4.9001,-4.9001,-4.9001,-4.9001,-4.9001,-4.9001,-4.9001,-4.9001,-4.9001,-4.9001,-4.9001,-4.9001,-4.9001,-4.9001,-4.9001,-4.9001,-4.9001,-4.9001,-4.9001,-4.9001,-4.9001,-4.894,-4.8832,-4.8627,-4.842,-4.8227,-4.8115,-4.7935,-4.7721,-4.7604,-4.7335,-4.6961,-4.6545,-4.6262,-4.6262,-4.6008,-4.5807,-4.5807,-4.5589,-4.5442,-4.522,-4.5039,-4.4799,-4.4572,-4.4572,-4.4572,-4.4572,-4.4572,-4.4814,-4.522,-4.522,-4.5368,-4.5807,-4.5807,-4.5807,-4.5807,-4.604,-4.6168,-4.0888,-4.0491,-3.9974,-3.9457,-3.8577,-3.7732,-3.7198,-3.7284,-3.7491,-3.7491,-3.8077,-3.8594,-3.8594,-3.7991,-3.7129,-3.6094,-3.4971,-3.3853,0.0,-3.2451,-3.256,-3.3322,-3.4742,-3.5453,-3.4979,-3.5588,-3.6113,-3.6383,-3.6874,-3.7702,-3.892,-3.9462,-4.0189,-4.117,-4.2151,-4.2912,-4.342,-4.4198,-4.4587,-4.4587,-4.4587,-4.4587,-4.4587,-4.4587,-4.4587,-4.4587,-4.484,-4.4959,-4.501,-4.5771,-4.6227,-4.6549,-4.753,-4.8071,-4.8342,-4.8832,-4.9001,-4.9001,-4.9001,-4.9001,-4.9001,-4.9001,-4.9001,-4.9001,-4.9001,-4.9001,-4.9001,-4.9001,-4.9001,-4.9001,-4.9001,-4.9001,-4.9001,-4.9001,-4.9001,-4.9001,-4.8956,-4.869,-4.8483,-4.842,-4.8179,-4.7935,-4.7704,-4.7588,-4.7403,-4.7115,-4.6754,-4.6458,-4.6333,-4.6152,-4.5952,-4.5807,-4.5735,-4.5589,-4.5442,-4.5114,-4.4799,-4.4572,-4.4572,-4.4572,-4.4572,-4.4572,-4.4814,-4.522,-4.522,-4.5368,-4.5807,-4.5807,-4.5807,-4.5807,-4.588,-4.6008,-4.0888,-4.0509,-4.0043,-3.9767,-3.8784,-3.7801,-3.7542,-3.7491,-3.756,-3.7818,-3.8474,-3.8974,-3.8974,-3.837,-3.7456,-3.6111,-3.4788,-3.3499,0.0,-3.2043,-3.1947,-3.1947,-3.3245,-3.3914,-3.3457,-3.4269,-3.4945,-3.5199,-3.5926,-3.7026,-3.8531,-3.8853,-3.9546,-4.0764,-4.1508,-4.2252,-4.3014,-4.3775,-4.4316,-4.4587,-4.4587,-4.4587,-4.4587,-4.4587,-4.4587,-4.4587,-4.4587,-4.4587,-4.4621,-4.5111,-4.5466,-4.5805,-4.6769,-4.7462,-4.8003,-4.8731,-4.9001,-4.9001,-4.9001,-4.9001,-4.9001,-4.9001,-4.9001,-4.9001,-4.9001,-4.9001,-4.9001,-4.9001,-4.9001,-4.9001,-4.9001,-4.9001,-4.9001,-4.9001,-4.9001,-4.9001,-4.9001,-4.8753,-4.8483,-4.8483,-4.8244,-4.7935,-4.7853,-4.7671,-4.7403,-4.7251,-4.6892,-4.6528,-4.6333,-4.6152,-4.6024,-4.5807,-4.5807,-4.5662,-4.5442,-4.5114,-4.4799,-4.4572,-4.4572,-4.4572,-4.4572,-4.4572,-4.4814,-4.522,-4.522,-4.5368,-4.5807,-4.5807,-4.5807,-4.5807,-4.5807,-4.6008]}]]